| time (UTC) | temp F | wind direction | speed knots | gust knots | rain 1hr in | rain 24hr in | rain mn in | humidity % | barometer mb |
| 20260906190121 | 64 | 126 | 1.7 | 5.2 | 0.00 | 0.00 | 0.00 | 58 | 1022.6 |
| 20260906190113 | 64 | 125 | 1.7 | 5.2 | 0.00 | 0.00 | 0.00 | 59 | 1022.6 |
| 20260906185844 | 64 | 125 | 1.7 | 5.2 | 0.00 | 0.00 | 0.00 | 58 | 1022.7 |
| 20260906185741 | 64 | 125 | 1.7 | 5.2 | 0.00 | 0.00 | 0.00 | 58 | 1022.6 |
| 20260906185641 | 64 | 125 | 1.7 | 5.2 | 0.00 | 0.00 | 0.00 | 58 | 1022.6 |
| 20260906185539 | 64 | 124 | 1.7 | 5.2 | 0.00 | 0.00 | 0.00 | 59 | 1022.6 |
| 20260906185437 | 64 | 122 | 1.7 | 5.2 | 0.00 | 0.00 | 0.00 | 58 | 1022.6 |
| 20260906185401 | 64 | 122 | 1.7 | 5.2 | 0.00 | 0.00 | 0.00 | 57 | 1022.6 |
| 20260906185337 | 64 | 112 | 1.7 | 5.2 | 0.00 | 0.00 | 0.00 | 57 | 1022.6 |
| 20260906185236 | 64 | 112 | 1.7 | 5.2 | 0.00 | 0.00 | 0.00 | 57 | 1022.6 |
| 20260906185134 | 64 | 107 | 1.7 | 5.2 | 0.00 | 0.00 | 0.00 | 57 | 1022.6 |
| 20260906185034 | 64 | 115 | 1.7 | 3.5 | 0.00 | 0.00 | 0.00 | 57 | 1022.6 |
| 20260906184932 | 64 | 123 | 1.7 | 2.6 | 0.00 | 0.00 | 0.00 | 57 | 1022.6 |
| 20260906184901 | 65 | 123 | 1.7 | 2.6 | 0.00 | 0.00 | 0.00 | 57 | 1022.6 |
| 20260906184832 | 65 | 123 | 1.7 | 2.6 | 0.00 | 0.00 | 0.00 | 57 | 1022.6 |
| 20260906184731 | 65 | 122 | 1.7 | 2.6 | 0.00 | 0.00 | 0.00 | 57 | 1022.6 |
| 20260906184631 | 65 | 123 | 1.7 | 2.6 | 0.00 | 0.00 | 0.00 | 57 | 1022.6 |
| 20260906184531 | 65 | 123 | 1.7 | 2.6 | 0.00 | 0.00 | 0.00 | 57 | 1022.6 |
| 20260906184432 | 65 | 123 | 1.7 | 2.6 | 0.00 | 0.00 | 0.00 | 57 | 1022.7 |
| 20260906184400 | 65 | 117 | 1.7 | 2.6 | 0.00 | 0.00 | 0.00 | 57 | 1022.6 |
| 20260906184331 | 65 | 113 | 1.7 | 2.6 | 0.00 | 0.00 | 0.00 | 57 | 1022.6 |
| 20260906184230 | 65 | 114 | 1.7 | 2.6 | 0.00 | 0.00 | 0.00 | 57 | 1022.7 |
| 20260906184130 | 65 | 111 | 1.7 | 2.6 | 0.00 | 0.00 | 0.00 | 57 | 1022.7 |
| 20260906184029 | 65 | 111 | 1.7 | 2.6 | 0.00 | 0.00 | 0.00 | 57 | 1022.7 |
| 20260906183901 | 65 | 111 | 1.7 | 2.6 | 0.00 | 0.00 | 0.00 | 57 | 1022.6 |
| 20260906183837 | 65 | 107 | 0.9 | 2.6 | 0.00 | 0.00 | 0.00 | 57 | 1022.6 |
| 20260906183832 | 65 | 111 | 1.7 | 2.6 | 0.00 | 0.00 | 0.00 | 57 | 1022.6 |
| 20260906183829 | 65 | 111 | 1.7 | 2.6 | 0.00 | 0.00 | 0.00 | 57 | 1022.6 |
| 20260906183824 | 65 | 111 | 1.7 | 2.6 | 0.00 | 0.00 | 0.00 | 56 | 1022.6 |
| 20260906183624 | 65 | 109 | 0.9 | 2.6 | 0.00 | 0.00 | 0.00 | 57 | 1022.7 |
| 20260906183614 | 65 | 108 | 0.9 | 2.6 | 0.00 | 0.00 | 0.00 | 57 | 1022.6 |
| 20260906183329 | 65 | 107 | 0.9 | 2.6 | 0.00 | 0.00 | 0.00 | 57 | 1022.6 |
| 20260906183229 | 65 | 107 | 0.9 | 2.6 | 0.00 | 0.00 | 0.00 | 57 | 1022.6 |
| 20260906183130 | 66 | 107 | 0.9 | 2.6 | 0.00 | 0.00 | 0.00 | 56 | 1022.7 |
| 20260906183029 | 66 | 107 | 0.9 | 2.6 | 0.00 | 0.00 | 0.00 | 56 | 1022.6 |
| 20260906182901 | 66 | 107 | 0.9 | 2.6 | 0.00 | 0.00 | 0.00 | 56 | 1022.6 |
| 20260906182829 | 66 | 106 | 0.9 | 5.2 | 0.00 | 0.00 | 0.00 | 56 | 1022.6 |
| 20260906182729 | 66 | 105 | 0.9 | 5.2 | 0.00 | 0.00 | 0.00 | 56 | 1022.6 |
| 20260906182628 | 66 | 106 | 0.9 | 5.2 | 0.00 | 0.00 | 0.00 | 56 | 1022.6 |
| 20260906182528 | 66 | 106 | 0.9 | 5.2 | 0.00 | 0.00 | 0.00 | 56 | 1022.6 |
| 20260906182429 | 66 | 106 | 0.9 | 5.2 | 0.00 | 0.00 | 0.00 | 55 | 1022.6 |
| 20260906182401 | 66 | 107 | 0.9 | 5.2 | 0.00 | 0.00 | 0.00 | 55 | 1022.6 |
| 20260906182335 | 66 | 107 | 0.9 | 5.2 | 0.00 | 0.00 | 0.00 | 55 | 1022.6 |
| 20260906182229 | 66 | 107 | 0.9 | 5.2 | 0.00 | 0.00 | 0.00 | 56 | 1022.6 |
| 20260906182129 | 67 | 107 | 0.9 | 5.2 | 0.00 | 0.00 | 0.00 | 56 | 1022.6 |
| 20260906182029 | 67 | 107 | 0.9 | 5.2 | 0.00 | 0.00 | 0.00 | 55 | 1022.5 |
| 20260906181901 | 67 | 107 | 0.9 | 5.2 | 0.00 | 0.00 | 0.00 | 56 | 1022.5 |
| 20260906181828 | 67 | 104 | 0.9 | 2.6 | 0.00 | 0.00 | 0.00 | 56 | 1022.5 |
| 20260906181728 | 67 | 104 | 0.9 | 2.6 | 0.00 | 0.00 | 0.00 | 55 | 1022.5 |
| 20260906181628 | 67 | 103 | 0.9 | 2.6 | 0.00 | 0.00 | 0.00 | 56 | 1022.4 |
| 20260906181528 | 67 | 103 | 0.9 | 2.6 | 0.00 | 0.00 | 0.00 | 56 | 1022.5 |
| 20260906181401 | 67 | 103 | 0.9 | 2.6 | 0.00 | 0.00 | 0.00 | 54 | 1022.5 |
| 20260906181329 | 67 | 102 | 0.9 | 2.6 | 0.00 | 0.00 | 0.00 | 55 | 1022.5 |
| 20260906181229 | 67 | 102 | 0.9 | 2.6 | 0.00 | 0.00 | 0.00 | 55 | 1022.4 |
| 20260906181129 | 67 | 102 | 0.9 | 1.7 | 0.00 | 0.00 | 0.00 | 55 | 1022.4 |
| 20260906181029 | 68 | 102 | 0.9 | 1.7 | 0.00 | 0.00 | 0.00 | 54 | 1022.4 |
| 20260906180929 | 68 | 102 | 0.9 | 1.7 | 0.00 | 0.00 | 0.00 | 54 | 1022.5 |
| 20260906180901 | 68 | 102 | 0.9 | 1.7 | 0.00 | 0.00 | 0.00 | 55 | 1022.5 |
| 20260906180829 | 68 | 103 | 0.9 | 1.7 | 0.00 | 0.00 | 0.00 | 55 | 1022.5 |
| 20260906180730 | 68 | 103 | 0.9 | 1.7 | 0.00 | 0.00 | 0.00 | 56 | 1022.4 |
| 20260906180629 | 68 | 103 | 0.9 | 1.7 | 0.00 | 0.00 | 0.00 | 56 | 1022.4 |
| 20260906180529 | 68 | 103 | 0.9 | 1.7 | 0.00 | 0.00 | 0.00 | 55 | 1022.4 |
| 20260906180429 | 68 | 103 | 0.9 | 1.7 | 0.00 | 0.00 | 0.00 | 54 | 1022.4 |
| 20260906180401 | 68 | 102 | 0.9 | 1.7 | 0.00 | 0.00 | 0.00 | 56 | 1022.4 |
| 20260906180329 | 68 | 101 | 0.9 | 1.7 | 0.00 | 0.00 | 0.00 | 56 | 1022.4 |
| 20260906180228 | 68 | 103 | 0.9 | 1.7 | 0.00 | 0.00 | 0.00 | 56 | 1022.4 |
| 20260906180129 | 68 | 103 | 0.9 | 1.7 | 0.00 | 0.00 | 0.00 | 56 | 1022.4 |
| 20260906180029 | 69 | 103 | 0.9 | 1.7 | 0.00 | 0.00 | 0.00 | 56 | 1022.4 |
| 20260906175900 | 69 | 103 | 0.9 | 1.7 | 0.00 | 0.00 | 0.00 | 55 | 1022.4 |
| 20260906175829 | 69 | 103 | 0.9 | 1.7 | 0.00 | 0.00 | 0.00 | 55 | 1022.4 |
| 20260906175729 | 69 | 103 | 0.0 | 1.7 | 0.00 | 0.00 | 0.00 | 55 | 1022.4 |
| 20260906175629 | 69 | 103 | 0.0 | 1.7 | 0.00 | 0.00 | 0.00 | 53 | 1022.4 |
| 20260906175529 | 69 | 88 | 0.0 | 1.7 | 0.00 | 0.00 | 0.00 | 54 | 1022.4 |
| 20260906175429 | 69 | 89 | 0.0 | 1.7 | 0.00 | 0.00 | 0.00 | 53 | 1022.3 |
| 20260906175400 | 69 | 89 | 0.0 | 0.9 | 0.00 | 0.00 | 0.00 | 53 | 1022.4 |
| 20260906175329 | 69 | 88 | 0.0 | 0.9 | 0.00 | 0.00 | 0.00 | 53 | 1022.4 |
| 20260906175229 | 69 | 88 | 0.0 | 0.9 | 0.00 | 0.00 | 0.00 | 53 | 1022.3 |
| 20260906175129 | 69 | 88 | 0.0 | 0.9 | 0.00 | 0.00 | 0.00 | 53 | 1022.4 |
| 20260906175029 | 69 | 88 | 0.0 | 0.9 | 0.00 | 0.00 | 0.00 | 53 | 1022.4 |
| 20260906174900 | 69 | 88 | 0.0 | 0.9 | 0.00 | 0.00 | 0.00 | 53 | 1022.3 |
| 20260906174829 | 69 | 88 | 0.0 | 0.9 | 0.00 | 0.00 | 0.00 | 53 | 1022.3 |
| 20260906174729 | 69 | 88 | 0.0 | 0.9 | 0.00 | 0.00 | 0.00 | 53 | 1022.3 |
| 20260906174629 | 69 | 88 | 0.0 | 0.0 | 0.00 | 0.00 | 0.00 | 53 | 1022.4 |
| 20260906174525 | 70 | 88 | 0.0 | 0.0 | 0.00 | 0.00 | 0.00 | 53 | 1022.4 |
| 20260906174400 | 70 | 88 | 0.0 | 0.0 | 0.00 | 0.00 | 0.00 | 53 | 1022.4 |
| 20260906174325 | 70 | 88 | 0.0 | 0.0 | 0.00 | 0.00 | 0.00 | 53 | 1022.4 |
| 20260906174225 | 70 | 88 | 0.0 | 0.0 | 0.00 | 0.00 | 0.00 | 53 | 1022.4 |
| 20260906174125 | 70 | 88 | 0.0 | 0.0 | 0.00 | 0.00 | 0.00 | 52 | 1022.4 |
| 20260906174025 | 70 | 88 | 0.0 | 0.0 | 0.00 | 0.00 | 0.00 | 53 | 1022.4 |
| 20260906173901 | 70 | 88 | 0.0 | 0.9 | 0.00 | 0.00 | 0.00 | 52 | 1022.4 |
| 20260906173825 | 70 | 88 | 0.0 | 0.9 | 0.00 | 0.00 | 0.00 | 53 | 1022.4 |
| 20260906173723 | 70 | 88 | 0.0 | 0.9 | 0.00 | 0.00 | 0.00 | 52 | 1022.4 |
| 20260906173621 | 70 | 88 | 0.0 | 0.9 | 0.00 | 0.00 | 0.00 | 53 | 1022.4 |
| 20260906173522 | 70 | 88 | 0.0 | 1.7 | 0.00 | 0.00 | 0.00 | 53 | 1022.4 |
| 20260906173419 | 70 | 88 | 0.0 | 1.7 | 0.00 | 0.00 | 0.00 | 52 | 1022.4 |
| 20260906173401 | 70 | 88 | 0.0 | 1.7 | 0.00 | 0.00 | 0.00 | 53 | 1022.4 |
| 20260906173318 | 70 | 88 | 0.0 | 1.7 | 0.00 | 0.00 | 0.00 | 52 | 1022.4 |
| 20260906173217 | 70 | 88 | 0.0 | 1.7 | 0.00 | 0.00 | 0.00 | 51 | 1022.4 |
| 20260906173117 | 70 | 88 | 0.0 | 1.7 | 0.00 | 0.00 | 0.00 | 52 | 1022.4 |
| 20260906173017 | 70 | 88 | 0.0 | 1.7 | 0.00 | 0.00 | 0.00 | 52 | 1022.4 |
| 20260906172917 | 70 | 88 | 0.0 | 1.7 | 0.00 | 0.00 | 0.00 | 51 | 1022.4 |
| 20260906172901 | 71 | 87 | 0.0 | 1.7 | 0.00 | 0.00 | 0.00 | 50 | 1022.4 |
| 20260906172815 | 71 | 87 | 0.0 | 1.7 | 0.00 | 0.00 | 0.00 | 50 | 1022.4 |
| 20260906172715 | 71 | 88 | 0.0 | 2.6 | 0.00 | 0.00 | 0.00 | 51 | 1022.4 |
| 20260906172615 | 71 | 88 | 0.0 | 2.6 | 0.00 | 0.00 | 0.00 | 51 | 1022.4 |
| 20260906172514 | 71 | 87 | 0.0 | 2.6 | 0.00 | 0.00 | 0.00 | 50 | 1022.4 |
| 20260906172411 | 71 | 87 | 0.0 | 3.5 | 0.00 | 0.00 | 0.00 | 50 | 1022.4 |
| 20260906172401 | 71 | 87 | 0.0 | 3.5 | 0.00 | 0.00 | 0.00 | 49 | 1022.4 |
| 20260906172311 | 71 | 87 | 0.0 | 3.5 | 0.00 | 0.00 | 0.00 | 49 | 1022.4 |
| 20260906172209 | 71 | 87 | 0.9 | 3.5 | 0.00 | 0.00 | 0.00 | 50 | 1022.4 |
| 20260906172109 | 71 | 86 | 0.9 | 3.5 | 0.00 | 0.00 | 0.00 | 50 | 1022.4 |
| 20260906172006 | 71 | 87 | 0.9 | 3.5 | 0.00 | 0.00 | 0.00 | 50 | 1022.5 |
| 20260906171901 | 71 | 87 | 0.9 | 3.5 | 0.00 | 0.00 | 0.00 | 50 | 1022.4 |
| 20260906171803 | 71 | 87 | 0.9 | 3.5 | 0.00 | 0.00 | 0.00 | 51 | 1022.5 |
| 20260906171703 | 71 | 86 | 0.9 | 3.5 | 0.00 | 0.00 | 0.00 | 51 | 1022.4 |
| 20260906171603 | 71 | 86 | 0.9 | 3.5 | 0.00 | 0.00 | 0.00 | 51 | 1022.5 |
| 20260906171503 | 71 | 60 | 0.9 | 2.6 | 0.00 | 0.00 | 0.00 | 51 | 1022.4 |
| 20260906171400 | 71 | 93 | 0.9 | 2.6 | 0.00 | 0.00 | 0.00 | 51 | 1022.4 |
| 20260906171303 | 71 | 94 | 0.9 | 2.6 | 0.00 | 0.00 | 0.00 | 50 | 1022.5 |
| 20260906171201 | 71 | 72 | 0.9 | 2.6 | 0.00 | 0.00 | 0.00 | 50 | 1022.4 |
| 20260906171126 | 71 | 98 | 0.9 | 2.6 | 0.00 | 0.00 | 0.00 | 50 | 1022.4 |
| 20260906171122 | 71 | 100 | 0.9 | 2.6 | 0.00 | 0.00 | 0.00 | 49 | 1022.4 |
| 20260906171112 | 71 | 98 | 0.9 | 2.6 | 0.00 | 0.00 | 0.00 | 50 | 1022.4 |
| 20260906170801 | 71 | 103 | 0.9 | 2.6 | 0.00 | 0.00 | 0.00 | 49 | 1022.4 |
| 20260906170701 | 71 | 103 | 0.9 | 2.6 | 0.00 | 0.00 | 0.00 | 49 | 1022.4 |
| 20260906170631 | 71 | 103 | 0.9 | 4.3 | 0.00 | 0.00 | 0.00 | 48 | 1022.4 |
| 20260906170627 | 71 | 103 | 0.9 | 2.6 | 0.00 | 0.00 | 0.00 | 49 | 1022.4 |
| 20260906170623 | 71 | 103 | 0.9 | 4.3 | 0.00 | 0.00 | 0.00 | 49 | 1022.4 |
| 20260906170611 | 71 | 103 | 0.9 | 4.3 | 0.00 | 0.00 | 0.00 | 48 | 1022.4 |
| 20260906170301 | 71 | 84 | 0.9 | 4.3 | 0.00 | 0.00 | 0.00 | 48 | 1022.4 |
| 20260906170201 | 71 | 83 | 0.9 | 6.1 | 0.00 | 0.00 | 0.00 | 48 | 1022.4 |
| 20260906170122 | 71 | 86 | 0.9 | 6.1 | 0.00 | 0.00 | 0.00 | 49 | 1022.5 |
| 20260906170117 | 71 | 82 | 0.9 | 6.1 | 0.00 | 0.00 | 0.00 | 49 | 1022.5 |
| 20260906170113 | 71 | 79 | 0.9 | 6.1 | 0.00 | 0.00 | 0.00 | 49 | 1022.5 |
| 20260906170106 | 71 | 81 | 0.9 | 6.1 | 0.00 | 0.00 | 0.00 | 49 | 1022.5 |
| 20260906165801 | 71 | 91 | 0.9 | 6.1 | 0.00 | 0.00 | 0.00 | 49 | 1022.4 |
| 20260906165701 | 71 | 97 | 0.9 | 6.1 | 0.00 | 0.00 | 0.00 | 49 | 1022.5 |
| 20260906165609 | 71 | 80 | 0.9 | 6.1 | 0.00 | 0.00 | 0.00 | 49 | 1022.5 |
| 20260906165605 | 71 | 82 | 0.9 | 6.1 | 0.00 | 0.00 | 0.00 | 48 | 1022.4 |
| 20260906165401 | 71 | 82 | 0.9 | 6.1 | 0.00 | 0.00 | 0.00 | 49 | 1022.4 |
| 20260906165351 | 71 | 83 | 0.9 | 6.1 | 0.00 | 0.00 | 0.00 | 49 | 1022.4 |
| 20260906165306 | 72 | 71 | 0.9 | 6.1 | 0.00 | 0.00 | 0.00 | 49 | 1022.5 |
| 20260906165201 | 72 | 91 | 0.9 | 5.2 | 0.00 | 0.00 | 0.00 | 48 | 1022.5 |
| 20260906165101 | 72 | 91 | 0.9 | 5.2 | 0.00 | 0.00 | 0.00 | 49 | 1022.5 |
| 20260906165004 | 72 | 108 | 0.9 | 5.2 | 0.00 | 0.00 | 0.00 | 48 | 1022.4 |
| 20260906164900 | 72 | 103 | 0.9 | 2.6 | 0.00 | 0.00 | 0.00 | 49 | 1022.5 |
| 20260906164851 | 72 | 103 | 0.9 | 2.6 | 0.00 | 0.00 | 0.00 | 49 | 1022.5 |
| 20260906164801 | 72 | 103 | 0.9 | 3.5 | 0.00 | 0.00 | 0.00 | 49 | 1022.4 |
| 20260906164701 | 72 | 103 | 0.9 | 3.5 | 0.00 | 0.00 | 0.00 | 49 | 1022.4 |
| 20260906164601 | 72 | 105 | 0.9 | 3.5 | 0.00 | 0.00 | 0.00 | 48 | 1022.4 |
| 20260906164501 | 72 | 105 | 0.9 | 3.5 | 0.00 | 0.00 | 0.00 | 47 | 1022.4 |
| 20260906164401 | 72 | 103 | 1.7 | 4.3 | 0.00 | 0.00 | 0.00 | 48 | 1022.4 |
| 20260906164350 | 72 | 113 | 1.7 | 4.3 | 0.00 | 0.00 | 0.00 | 48 | 1022.4 |
| 20260906164302 | 72 | 114 | 1.7 | 4.3 | 0.00 | 0.00 | 0.00 | 48 | 1022.4 |
| 20260906164200 | 72 | 96 | 1.7 | 4.3 | 0.00 | 0.00 | 0.00 | 47 | 1022.4 |
| 20260906164118 | 72 | 95 | 1.7 | 4.3 | 0.00 | 0.00 | 0.00 | 46 | 1022.4 |
| 20260906164113 | 72 | 96 | 1.7 | 4.3 | 0.00 | 0.00 | 0.00 | 47 | 1022.4 |
| 20260906164109 | 72 | 92 | 1.7 | 4.3 | 0.00 | 0.00 | 0.00 | 47 | 1022.4 |
| 20260906164102 | 72 | 96 | 1.7 | 4.3 | 0.00 | 0.00 | 0.00 | 46 | 1022.4 |
| 20260906163802 | 72 | 92 | 1.7 | 4.3 | 0.00 | 0.00 | 0.00 | 47 | 1022.3 |
| 20260906163701 | 72 | 95 | 1.7 | 6.1 | 0.00 | 0.00 | 0.00 | 47 | 1022.3 |
| 20260906163601 | 72 | 95 | 1.7 | 6.1 | 0.00 | 0.00 | 0.00 | 47 | 1022.3 |
| 20260906163502 | 72 | 88 | 1.7 | 6.1 | 0.00 | 0.00 | 0.00 | 46 | 1022.3 |
| 20260906163401 | 72 | 112 | 1.7 | 6.1 | 0.00 | 0.00 | 0.00 | 46 | 1022.4 |
| 20260906163351 | 72 | 92 | 1.7 | 6.1 | 0.00 | 0.00 | 0.00 | 46 | 1022.4 |
| 20260906163301 | 72 | 86 | 1.7 | 6.1 | 0.00 | 0.00 | 0.00 | 46 | 1022.4 |
| 20260906163202 | 72 | 87 | 1.7 | 6.1 | 0.00 | 0.00 | 0.00 | 47 | 1022.4 |
| 20260906163117 | 72 | 84 | 1.7 | 6.1 | 0.00 | 0.00 | 0.00 | 47 | 1022.5 |
| 20260906163113 | 72 | 86 | 1.7 | 6.1 | 0.00 | 0.00 | 0.00 | 47 | 1022.5 |
| 20260906163109 | 72 | 101 | 1.7 | 6.1 | 0.00 | 0.00 | 0.00 | 46 | 1022.5 |
| 20260906163101 | 72 | 84 | 1.7 | 6.1 | 0.00 | 0.00 | 0.00 | 47 | 1022.5 |
| 20260906162801 | 72 | 82 | 1.7 | 6.1 | 0.00 | 0.00 | 0.00 | 46 | 1022.4 |
| 20260906162701 | 73 | 82 | 1.7 | 6.1 | 0.00 | 0.00 | 0.00 | 47 | 1022.5 |
| 20260906162617 | 73 | 94 | 1.7 | 6.1 | 0.00 | 0.00 | 0.00 | 46 | 1022.5 |
| 20260906162613 | 73 | 71 | 1.7 | 6.1 | 0.00 | 0.00 | 0.00 | 47 | 1022.5 |
| 20260906162609 | 73 | 98 | 1.7 | 6.1 | 0.00 | 0.00 | 0.00 | 46 | 1022.5 |
| 20260906162601 | 73 | 98 | 1.7 | 6.1 | 0.00 | 0.00 | 0.00 | 46 | 1022.5 |
| 20260906162300 | 73 | 114 | 1.7 | 6.1 | 0.00 | 0.00 | 0.00 | 46 | 1022.5 |
| 20260906162200 | 73 | 113 | 1.7 | 6.1 | 0.00 | 0.00 | 0.00 | 46 | 1022.5 |
| 20260906162101 | 73 | 105 | 1.7 | 6.1 | 0.00 | 0.00 | 0.00 | 46 | 1022.5 |
| 20260906162001 | 73 | 63 | 1.7 | 6.1 | 0.00 | 0.00 | 0.00 | 49 | 1022.5 |
| 20260906161901 | 73 | 85 | 1.7 | 6.1 | 0.00 | 0.00 | 0.00 | 47 | 1022.5 |
| 20260906161849 | 73 | 107 | 1.7 | 6.1 | 0.00 | 0.00 | 0.00 | 47 | 1022.5 |
| 20260906161801 | 73 | 79 | 1.7 | 6.1 | 0.00 | 0.00 | 0.00 | 48 | 1022.5 |
| 20260906161701 | 73 | 5 | 1.7 | 6.1 | 0.00 | 0.00 | 0.00 | 47 | 1022.5 |
| 20260906161600 | 73 | 111 | 1.7 | 6.1 | 0.00 | 0.00 | 0.00 | 48 | 1022.6 |
| 20260906161500 | 73 | 100 | 1.7 | 6.1 | 0.00 | 0.00 | 0.00 | 47 | 1022.5 |
| 20260906161401 | 73 | 103 | 1.7 | 6.1 | 0.00 | 0.00 | 0.00 | 45 | 1022.5 |
| 20260906161349 | 73 | 102 | 1.7 | 6.1 | 0.00 | 0.00 | 0.00 | 45 | 1022.5 |
| 20260906161259 | 73 | 67 | 0.9 | 6.1 | 0.00 | 0.00 | 0.00 | 46 | 1022.5 |
| 20260906161153 | 73 | 86 | 0.9 | 6.1 | 0.00 | 0.00 | 0.00 | 46 | 1022.5 |
| 20260906161053 | 73 | 105 | 0.9 | 6.1 | 0.00 | 0.00 | 0.00 | 47 | 1022.5 |
| 20260906160953 | 73 | 91 | 0.9 | 6.1 | 0.00 | 0.00 | 0.00 | 47 | 1022.6 |
| 20260906160853 | 73 | 103 | 0.9 | 3.5 | 0.00 | 0.00 | 0.00 | 47 | 1022.5 |
| 20260906160849 | 73 | 97 | 0.9 | 3.5 | 0.00 | 0.00 | 0.00 | 47 | 1022.5 |
| 20260906160753 | 73 | 92 | 0.9 | 3.5 | 0.00 | 0.00 | 0.00 | 47 | 1022.6 |
| 20260906160647 | 73 | 93 | 0.9 | 3.5 | 0.00 | 0.00 | 0.00 | 48 | 1022.6 |
| 20260906160547 | 73 | 93 | 0.9 | 3.5 | 0.00 | 0.00 | 0.00 | 47 | 1022.6 |
| 20260906160447 | 73 | 119 | 0.9 | 3.5 | 0.00 | 0.00 | 0.00 | 47 | 1022.6 |
| 20260906160347 | 73 | 113 | 0.9 | 3.5 | 0.00 | 0.00 | 0.00 | 47 | 1022.7 |
| 20260906160247 | 73 | 86 | 0.9 | 3.5 | 0.00 | 0.00 | 0.00 | 47 | 1022.6 |
| 20260906160140 | 73 | 90 | 0.9 | 3.5 | 0.00 | 0.00 | 0.00 | 47 | 1022.6 |
| 20260906160040 | 73 | 91 | 0.9 | 3.5 | 0.00 | 0.00 | 0.00 | 46 | 1022.6 |
| 20260906155941 | 73 | 109 | 1.7 | 6.1 | 0.00 | 0.00 | 0.00 | 46 | 1022.6 |
| 20260906155840 | 73 | 83 | 1.7 | 6.1 | 0.00 | 0.00 | 0.00 | 45 | 1022.6 |
| 20260906155740 | 73 | 81 | 1.7 | 6.1 | 0.00 | 0.00 | 0.00 | 46 | 1022.6 |
| 20260906155635 | 74 | 94 | 1.7 | 6.1 | 0.00 | 0.00 | 0.00 | 46 | 1022.6 |
| 20260906155535 | 74 | 117 | 1.7 | 6.1 | 0.00 | 0.00 | 0.00 | 45 | 1022.6 |
| 20260906155435 | 74 | 119 | 1.7 | 6.1 | 0.00 | 0.00 | 0.00 | 45 | 1022.6 |
| 20260906155349 | 74 | 119 | 1.7 | 6.1 | 0.00 | 0.00 | 0.00 | 45 | 1022.7 |
| 20260906155335 | 74 | 120 | 1.7 | 6.1 | 0.00 | 0.00 | 0.00 | 45 | 1022.7 |
| 20260906155235 | 74 | 83 | 1.7 | 7.0 | 0.00 | 0.00 | 0.00 | 46 | 1022.6 |
| 20260906155133 | 74 | 79 | 1.7 | 7.0 | 0.00 | 0.00 | 0.00 | 45 | 1022.7 |
| 20260906155033 | 74 | 79 | 2.6 | 7.0 | 0.00 | 0.00 | 0.00 | 45 | 1022.6 |
| 20260906154933 | 74 | 96 | 1.7 | 7.0 | 0.00 | 0.00 | 0.00 | 45 | 1022.5 |
| 20260906154848 | 74 | 82 | 1.7 | 7.0 | 0.00 | 0.00 | 0.00 | 44 | 1022.6 |
| 20260906154833 | 74 | 103 | 1.7 | 7.0 | 0.00 | 0.00 | 0.00 | 44 | 1022.6 |
| 20260906154733 | 74 | 74 | 1.7 | 7.0 | 0.00 | 0.00 | 0.00 | 45 | 1022.6 |
| 20260906154633 | 74 | 75 | 1.7 | 7.0 | 0.00 | 0.00 | 0.00 | 45 | 1022.6 |
| 20260906154616 | 74 | 90 | 1.7 | 7.0 | 0.00 | 0.00 | 0.00 | 45 | 1022.6 |
| 20260906154608 | 74 | 74 | 2.6 | 7.0 | 0.00 | 0.00 | 0.00 | 46 | 1022.6 |
| 20260906154605 | 74 | 74 | 2.6 | 7.0 | 0.00 | 0.00 | 0.00 | 46 | 1022.6 |
| 20260906154328 | 74 | 100 | 1.7 | 6.1 | 0.00 | 0.00 | 0.00 | 45 | 1022.6 |
| 20260906154229 | 74 | 100 | 1.7 | 6.1 | 0.00 | 0.00 | 0.00 | 44 | 1022.6 |
| 20260906154129 | 74 | 78 | 1.7 | 6.1 | 0.00 | 0.00 | 0.00 | 44 | 1022.6 |
| 20260906154030 | 74 | 67 | 1.7 | 6.1 | 0.00 | 0.00 | 0.00 | 44 | 1022.6 |
| 20260906153929 | 74 | 92 | 1.7 | 6.1 | 0.00 | 0.00 | 0.00 | 44 | 1022.6 |
| 20260906153848 | 74 | 84 | 1.7 | 6.1 | 0.00 | 0.00 | 0.00 | 45 | 1022.5 |
| 20260906153829 | 74 | 88 | 1.7 | 6.1 | 0.00 | 0.00 | 0.00 | 45 | 1022.5 |
| 20260906153729 | 74 | 89 | 1.7 | 6.1 | 0.00 | 0.00 | 0.00 | 45 | 1022.5 |
| 20260906153629 | 74 | 101 | 1.7 | 6.1 | 0.00 | 0.00 | 0.00 | 46 | 1022.5 |
| 20260906153529 | 74 | 52 | 1.7 | 6.1 | 0.00 | 0.00 | 0.00 | 45 | 1022.5 |
| 20260906153429 | 74 | 63 | 1.7 | 6.1 | 0.00 | 0.00 | 0.00 | 46 | 1022.5 |
| 20260906153353 | 74 | 84 | 1.7 | 6.1 | 0.00 | 0.00 | 0.00 | 45 | 1022.5 |
| 20260906153332 | 74 | 98 | 2.6 | 7.0 | 0.00 | 0.00 | 0.00 | 45 | 1022.6 |
| 20260906153328 | 74 | 110 | 1.7 | 6.1 | 0.00 | 0.00 | 0.00 | 45 | 1022.5 |
| 20260906153324 | 74 | 82 | 1.7 | 6.1 | 0.00 | 0.00 | 0.00 | 45 | 1022.5 |
| 20260906153320 | 74 | 101 | 1.7 | 6.1 | 0.00 | 0.00 | 0.00 | 45 | 1022.5 |
| 20260906153103 | 74 | 101 | 1.7 | 7.0 | 0.00 | 0.00 | 0.00 | 44 | 1022.6 |
| 20260906153059 | 74 | 100 | 2.6 | 7.0 | 0.00 | 0.00 | 0.00 | 44 | 1022.6 |
| 20260906152829 | 74 | 80 | 2.6 | 7.0 | 0.00 | 0.00 | 0.00 | 45 | 1022.6 |
| 20260906152728 | 74 | 92 | 2.6 | 7.0 | 0.00 | 0.00 | 0.00 | 45 | 1022.6 |
| 20260906152628 | 74 | 98 | 2.6 | 7.0 | 0.00 | 0.00 | 0.00 | 44 | 1022.6 |
| 20260906152528 | 74 | 90 | 2.6 | 7.0 | 0.00 | 0.00 | 0.00 | 44 | 1022.6 |
| 20260906152430 | 74 | 76 | 2.6 | 7.0 | 0.00 | 0.00 | 0.00 | 44 | 1022.6 |
| 20260906152340 | 74 | 78 | 2.6 | 7.0 | 0.00 | 0.00 | 0.00 | 43 | 1022.6 |
| 20260906152329 | 74 | 90 | 2.6 | 7.0 | 0.00 | 0.00 | 0.00 | 42 | 1022.6 |
| 20260906152325 | 74 | 78 | 2.6 | 6.1 | 0.00 | 0.00 | 0.00 | 45 | 1022.6 |
| 20260906152318 | 74 | 89 | 2.6 | 7.0 | 0.00 | 0.00 | 0.00 | 45 | 1022.6 |
| 20260906152314 | 74 | 103 | 2.6 | 7.0 | 0.00 | 0.00 | 0.00 | 45 | 1022.6 |
| 20260906152053 | 74 | 88 | 2.6 | 7.0 | 0.00 | 0.00 | 0.00 | 46 | 1022.6 |
| 20260906152049 | 74 | 98 | 1.7 | 6.1 | 0.00 | 0.00 | 0.00 | 44 | 1022.6 |
| 20260906151833 | 74 | 75 | 2.6 | 6.1 | 0.00 | 0.00 | 0.00 | 45 | 1022.6 |
| 20260906151728 | 74 | 93 | 1.7 | 6.1 | 0.00 | 0.00 | 0.00 | 45 | 1022.6 |
| 20260906151629 | 74 | 103 | 1.7 | 6.1 | 0.00 | 0.00 | 0.00 | 44 | 1022.6 |
| 20260906151528 | 74 | 82 | 1.7 | 6.1 | 0.00 | 0.00 | 0.00 | 44 | 1022.6 |
| 20260906151428 | 74 | 117 | 1.7 | 6.1 | 0.00 | 0.00 | 0.00 | 46 | 1022.6 |
| 20260906151337 | 74 | 110 | 1.7 | 6.1 | 0.00 | 0.00 | 0.00 | 45 | 1022.6 |
| 20260906151329 | 74 | 106 | 1.7 | 6.1 | 0.00 | 0.00 | 0.00 | 45 | 1022.6 |
| 20260906151230 | 74 | 130 | 1.7 | 6.1 | 0.00 | 0.00 | 0.00 | 44 | 1022.6 |
| 20260906151128 | 75 | 96 | 1.7 | 6.1 | 0.00 | 0.00 | 0.00 | 45 | 1022.7 |
| 20260906151029 | 75 | 111 | 1.7 | 7.0 | 0.00 | 0.00 | 0.00 | 46 | 1022.7 |
| 20260906150929 | 75 | 159 | 1.7 | 7.0 | 0.00 | 0.00 | 0.00 | 45 | 1022.8 |
| 20260906150835 | 75 | 95 | 1.7 | 7.0 | 0.00 | 0.00 | 0.00 | 45 | 1022.7 |
| 20260906150829 | 75 | 109 | 1.7 | 7.0 | 0.00 | 0.00 | 0.00 | 45 | 1022.7 |
| 20260906150729 | 75 | 82 | 1.7 | 7.0 | 0.00 | 0.00 | 0.00 | 44 | 1022.6 |
| 20260906150653 | 75 | 71 | 1.7 | 7.0 | 0.00 | 0.00 | 0.00 | 44 | 1022.7 |
| 20260906150649 | 75 | 97 | 1.7 | 7.0 | 0.00 | 0.00 | 0.00 | 44 | 1022.7 |
| 20260906150549 | 75 | 89 | 1.7 | 7.0 | 0.00 | 0.00 | 0.00 | 44 | 1022.7 |
| 20260906150546 | 75 | 92 | 1.7 | 7.0 | 0.00 | 0.00 | 0.00 | 43 | 1022.7 |
| 20260906150326 | 75 | 71 | 1.7 | 7.0 | 0.00 | 0.00 | 0.00 | 44 | 1022.7 |
| 20260906150226 | 75 | 78 | 1.7 | 7.0 | 0.00 | 0.00 | 0.00 | 45 | 1022.7 |
| 20260906150124 | 75 | 68 | 1.7 | 7.0 | 0.00 | 0.00 | 0.00 | 45 | 1022.8 |
| 20260906150019 | 75 | 98 | 1.7 | 7.0 | 0.00 | 0.00 | 0.00 | 45 | 1022.7 |
| 20260906145919 | 75 | 99 | 1.7 | 7.0 | 0.00 | 0.00 | 0.00 | 44 | 1022.7 |
| 20260906145835 | 75 | 92 | 1.7 | 7.0 | 0.00 | 0.00 | 0.00 | 45 | 1022.7 |
| 20260906145818 | 75 | 92 | 1.7 | 7.0 | 0.00 | 0.00 | 0.00 | 45 | 1022.8 |
| 20260906145717 | 75 | 110 | 2.6 | 7.0 | 0.00 | 0.00 | 0.00 | 45 | 1022.8 |
| 20260906145616 | 75 | 105 | 2.6 | 7.0 | 0.00 | 0.00 | 0.00 | 44 | 1022.8 |
| 20260906145510 | 75 | 102 | 2.6 | 7.0 | 0.00 | 0.00 | 0.00 | 44 | 1022.8 |
| 20260906145410 | 75 | 126 | 2.6 | 7.0 | 0.00 | 0.00 | 0.00 | 44 | 1022.8 |
| 20260906145335 | 75 | 113 | 2.6 | 7.0 | 0.00 | 0.00 | 0.00 | 45 | 1022.8 |
| 20260906145308 | 75 | 84 | 2.6 | 7.0 | 0.00 | 0.00 | 0.00 | 45 | 1022.9 |
| 20260906145208 | 76 | 115 | 2.6 | 7.0 | 0.00 | 0.00 | 0.00 | 45 | 1022.8 |
| 20260906145109 | 76 | 94 | 2.6 | 7.0 | 0.00 | 0.00 | 0.00 | 45 | 1022.9 |
| 20260906145003 | 76 | 95 | 2.6 | 7.0 | 0.00 | 0.00 | 0.00 | 44 | 1022.8 |
| 20260906144903 | 76 | 104 | 1.7 | 7.0 | 0.00 | 0.00 | 0.00 | 44 | 1022.8 |
| 20260906144834 | 76 | 104 | 1.7 | 7.0 | 0.00 | 0.00 | 0.00 | 45 | 1022.8 |
| 20260906144803 | 76 | 62 | 1.7 | 7.0 | 0.00 | 0.00 | 0.00 | 45 | 1022.9 |
| 20260906144706 | 76 | 102 | 1.7 | 7.0 | 0.00 | 0.00 | 0.00 | 44 | 1022.9 |
| 20260906144602 | 76 | 102 | 1.7 | 7.0 | 0.00 | 0.00 | 0.00 | 44 | 1022.8 |
| 20260906144502 | 76 | 91 | 1.7 | 7.0 | 0.00 | 0.00 | 0.00 | 45 | 1022.9 |
| 20260906144400 | 76 | 66 | 1.7 | 6.1 | 0.00 | 0.00 | 0.00 | 45 | 1022.9 |
| 20260906144333 | 76 | 94 | 1.7 | 6.1 | 0.00 | 0.00 | 0.00 | 45 | 1022.9 |
| 20260906144326 | 76 | 92 | 1.7 | 7.0 | 0.00 | 0.00 | 0.00 | 46 | 1022.8 |
| 20260906144318 | 76 | 80 | 1.7 | 6.1 | 0.00 | 0.00 | 0.00 | 45 | 1022.9 |
| 20260906144312 | 76 | 89 | 1.7 | 6.1 | 0.00 | 0.00 | 0.00 | 46 | 1022.9 |
| 20260906144308 | 76 | 69 | 1.7 | 7.0 | 0.00 | 0.00 | 0.00 | 46 | 1022.9 |
| 20260906144048 | 76 | 92 | 1.7 | 7.0 | 0.00 | 0.00 | 0.00 | 46 | 1022.9 |
| 20260906144045 | 76 | 92 | 1.7 | 7.0 | 0.00 | 0.00 | 0.00 | 46 | 1022.8 |
| 20260906143800 | 76 | 78 | 1.7 | 7.0 | 0.00 | 0.00 | 0.00 | 45 | 1022.9 |
| 20260906143701 | 76 | 101 | 1.7 | 7.0 | 0.00 | 0.00 | 0.00 | 45 | 1022.9 |
| 20260906143601 | 76 | 100 | 1.7 | 7.0 | 0.00 | 0.00 | 0.00 | 44 | 1022.9 |
| 20260906143501 | 76 | 88 | 1.7 | 7.0 | 0.00 | 0.00 | 0.00 | 44 | 1022.9 |
| 20260906143401 | 76 | 132 | 1.7 | 7.0 | 0.00 | 0.00 | 0.00 | 44 | 1022.9 |
| 20260906143332 | 76 | 88 | 1.7 | 7.0 | 0.00 | 0.00 | 0.00 | 44 | 1022.9 |
| 20260906143305 | 76 | 99 | 1.7 | 7.0 | 0.00 | 0.00 | 0.00 | 44 | 1023.0 |
| 20260906143201 | 76 | 93 | 1.7 | 7.8 | 0.00 | 0.00 | 0.00 | 44 | 1022.9 |
| 20260906143101 | 76 | 101 | 1.7 | 7.8 | 0.00 | 0.00 | 0.00 | 43 | 1022.9 |
| 20260906143001 | 76 | 150 | 1.7 | 7.8 | 0.00 | 0.00 | 0.00 | 44 | 1023.0 |
| 20260906142901 | 76 | 77 | 1.7 | 7.8 | 0.00 | 0.00 | 0.00 | 43 | 1022.9 |
| 20260906142833 | 76 | 97 | 1.7 | 7.8 | 0.00 | 0.00 | 0.00 | 44 | 1022.9 |
| 20260906142801 | 76 | 113 | 1.7 | 7.8 | 0.00 | 0.00 | 0.00 | 44 | 1023.0 |
| 20260906142701 | 76 | 118 | 1.7 | 7.8 | 0.00 | 0.00 | 0.00 | 44 | 1023.0 |
| 20260906142601 | 76 | 89 | 1.7 | 7.8 | 0.00 | 0.00 | 0.00 | 46 | 1023.0 |
| 20260906142501 | 76 | 88 | 1.7 | 7.8 | 0.00 | 0.00 | 0.00 | 46 | 1023.0 |
| 20260906142401 | 76 | 67 | 1.7 | 7.8 | 0.00 | 0.00 | 0.00 | 45 | 1023.0 |
| 20260906142333 | 76 | 113 | 1.7 | 7.8 | 0.00 | 0.00 | 0.00 | 44 | 1023.0 |
| 20260906142301 | 76 | 113 | 1.7 | 7.8 | 0.00 | 0.00 | 0.00 | 44 | 1023.0 |
| 20260906142201 | 76 | 74 | 1.7 | 7.0 | 0.00 | 0.00 | 0.00 | 44 | 1023.0 |
| 20260906142101 | 76 | 129 | 1.7 | 6.1 | 0.00 | 0.00 | 0.00 | 45 | 1023.0 |
| 20260906142001 | 76 | 102 | 1.7 | 6.1 | 0.00 | 0.00 | 0.00 | 45 | 1023.0 |
| 20260906141900 | 76 | 101 | 1.7 | 6.1 | 0.00 | 0.00 | 0.00 | 45 | 1023.0 |
| 20260906141833 | 76 | 96 | 1.7 | 6.1 | 0.00 | 0.00 | 0.00 | 46 | 1023.0 |
| 20260906141800 | 76 | 88 | 1.7 | 6.1 | 0.00 | 0.00 | 0.00 | 46 | 1023.1 |
| 20260906141700 | 76 | 83 | 1.7 | 6.1 | 0.00 | 0.00 | 0.00 | 46 | 1023.1 |
| 20260906141600 | 76 | 83 | 1.7 | 6.1 | 0.00 | 0.00 | 0.00 | 45 | 1023.1 |
| 20260906141500 | 76 | 79 | 1.7 | 6.1 | 0.00 | 0.00 | 0.00 | 44 | 1023.1 |
| 20260906141400 | 76 | 71 | 1.7 | 7.0 | 0.00 | 0.00 | 0.00 | 44 | 1023.1 |
| 20260906141332 | 76 | 68 | 1.7 | 7.0 | 0.00 | 0.00 | 0.00 | 44 | 1023.1 |
| 20260906141301 | 76 | 66 | 1.7 | 7.0 | 0.00 | 0.00 | 0.00 | 44 | 1023.1 |
| 20260906141201 | 76 | 109 | 1.7 | 7.0 | 0.00 | 0.00 | 0.00 | 45 | 1023.0 |
| 20260906141140 | 76 | 86 | 1.7 | 7.8 | 0.00 | 0.00 | 0.00 | 45 | 1023.2 |
| 20260906141133 | 75 | 80 | 1.7 | 7.0 | 0.00 | 0.00 | 0.00 | 45 | 1023.1 |
| 20260906141129 | 75 | 92 | 1.7 | 7.0 | 0.00 | 0.00 | 0.00 | 45 | 1023.1 |
| 20260906140915 | 75 | 89 | 1.7 | 7.0 | 0.00 | 0.00 | 0.00 | 46 | 1023.1 |
| 20260906140910 | 75 | 105 | 1.7 | 7.0 | 0.00 | 0.00 | 0.00 | 46 | 1023.1 |
| 20260906140906 | 75 | 86 | 1.7 | 7.0 | 0.00 | 0.00 | 0.00 | 48 | 1023.1 |
| 20260906140858 | 75 | 91 | 1.7 | 7.8 | 0.00 | 0.00 | 0.00 | 46 | 1023.2 |
| 20260906140638 | 75 | 90 | 2.6 | 7.8 | 0.00 | 0.00 | 0.00 | 45 | 1023.1 |
| 20260906140634 | 75 | 103 | 1.7 | 7.8 | 0.00 | 0.00 | 0.00 | 44 | 1023.1 |
| 20260906140419 | 76 | 90 | 1.7 | 7.8 | 0.00 | 0.00 | 0.00 | 45 | 1023.1 |
| 20260906140415 | 76 | 111 | 1.7 | 7.8 | 0.00 | 0.00 | 0.00 | 45 | 1023.1 |
| 20260906140411 | 76 | 115 | 1.7 | 7.8 | 0.00 | 0.00 | 0.00 | 45 | 1023.1 |
| 20260906140403 | 76 | 112 | 1.7 | 7.8 | 0.00 | 0.00 | 0.00 | 45 | 1023.1 |
| 20260906140147 | 76 | 100 | 1.7 | 7.8 | 0.00 | 0.00 | 0.00 | 45 | 1023.1 |
| 20260906140048 | 76 | 80 | 1.7 | 7.8 | 0.00 | 0.00 | 0.00 | 45 | 1023.1 |
| 20260906140044 | 76 | 96 | 1.7 | 7.8 | 0.00 | 0.00 | 0.00 | 45 | 1023.2 |
| 20260906135800 | 76 | 71 | 1.7 | 7.8 | 0.00 | 0.00 | 0.00 | 44 | 1023.2 |
| 20260906135701 | 76 | 93 | 1.7 | 7.0 | 0.00 | 0.00 | 0.00 | 44 | 1023.2 |
| 20260906135601 | 76 | 79 | 1.7 | 7.0 | 0.00 | 0.00 | 0.00 | 46 | 1023.2 |
| 20260906135555 | 75 | 80 | 1.7 | 7.0 | 0.00 | 0.00 | 0.00 | 46 | 1023.2 |
| 20260906135547 | 76 | 67 | 1.7 | 7.0 | 0.00 | 0.00 | 0.00 | 46 | 1023.2 |
| 20260906135543 | 75 | 90 | 1.7 | 7.0 | 0.00 | 0.00 | 0.00 | 44 | 1023.2 |
| 20260906135301 | 75 | 78 | 1.7 | 7.0 | 0.00 | 0.00 | 0.00 | 46 | 1023.2 |
| 20260906135201 | 75 | 94 | 1.7 | 7.0 | 0.00 | 0.00 | 0.00 | 46 | 1023.2 |
| 20260906135101 | 75 | 90 | 1.7 | 7.0 | 0.00 | 0.00 | 0.00 | 45 | 1023.2 |
| 20260906135001 | 75 | 107 | 1.7 | 7.0 | 0.00 | 0.00 | 0.00 | 47 | 1023.1 |
| 20260906134900 | 75 | 84 | 2.6 | 7.0 | 0.00 | 0.00 | 0.00 | 46 | 1023.2 |
| 20260906134833 | 75 | 84 | 2.6 | 7.0 | 0.00 | 0.00 | 0.00 | 46 | 1023.2 |
| 20260906134800 | 75 | 87 | 2.6 | 7.0 | 0.00 | 0.00 | 0.00 | 46 | 1023.2 |
| 20260906134700 | 75 | 72 | 2.6 | 7.0 | 0.00 | 0.00 | 0.00 | 46 | 1023.2 |
| 20260906134601 | 75 | 101 | 2.6 | 7.0 | 0.00 | 0.00 | 0.00 | 46 | 1023.2 |
| 20260906134501 | 75 | 92 | 2.6 | 7.0 | 0.00 | 0.00 | 0.00 | 45 | 1023.2 |
| 20260906134401 | 75 | 83 | 2.6 | 7.0 | 0.00 | 0.00 | 0.00 | 45 | 1023.4 |
| 20260906134332 | 75 | 94 | 2.6 | 7.0 | 0.00 | 0.00 | 0.00 | 46 | 1023.4 |
| 20260906134300 | 75 | 103 | 2.6 | 7.0 | 0.00 | 0.00 | 0.00 | 46 | 1023.2 |
| 20260906134201 | 75 | 123 | 2.6 | 7.0 | 0.00 | 0.00 | 0.00 | 46 | 1023.4 |
| 20260906134101 | 75 | 103 | 2.6 | 7.0 | 0.00 | 0.00 | 0.00 | 44 | 1023.4 |
| 20260906134001 | 75 | 134 | 2.6 | 7.0 | 0.00 | 0.00 | 0.00 | 44 | 1023.4 |
| 20260906133901 | 75 | 138 | 1.7 | 7.0 | 0.00 | 0.00 | 0.00 | 44 | 1023.2 |
| 20260906133832 | 75 | 169 | 1.7 | 7.0 | 0.00 | 0.00 | 0.00 | 45 | 1023.2 |
| 20260906133800 | 75 | 155 | 1.7 | 7.0 | 0.00 | 0.00 | 0.00 | 45 | 1023.2 |
| 20260906133755 | 75 | 77 | 1.7 | 5.2 | 0.00 | 0.00 | 0.00 | 47 | 1023.5 |
| 20260906133748 | 75 | 112 | 1.7 | 7.0 | 0.00 | 0.00 | 0.00 | 46 | 1023.4 |
| 20260906133743 | 75 | 99 | 1.7 | 7.0 | 0.00 | 0.00 | 0.00 | 45 | 1023.4 |
| 20260906133547 | 75 | 111 | 1.7 | 7.0 | 0.00 | 0.00 | 0.00 | 46 | 1023.4 |
| 20260906133543 | 75 | 164 | 1.7 | 5.2 | 0.00 | 0.00 | 0.00 | 47 | 1023.5 |
| 20260906133301 | 75 | 74 | 1.7 | 5.2 | 0.00 | 0.00 | 0.00 | 46 | 1023.5 |
| 20260906133234 | 75 | 97 | 1.7 | 5.2 | 0.00 | 0.00 | 0.00 | 45 | 1023.5 |
| 20260906133201 | 75 | 97 | 1.7 | 5.2 | 0.00 | 0.00 | 0.00 | 45 | 1023.5 |
| 20260906133101 | 75 | 92 | 1.7 | 5.2 | 0.00 | 0.00 | 0.00 | 46 | 1023.4 |
| 20260906133001 | 75 | 193 | 1.7 | 6.1 | 0.00 | 0.00 | 0.00 | 46 | 1023.5 |
| 20260906132900 | 75 | 107 | 1.7 | 6.1 | 0.00 | 0.00 | 0.00 | 47 | 1023.5 |
| 20260906132833 | 75 | 74 | 1.7 | 6.1 | 0.00 | 0.00 | 0.00 | 47 | 1023.5 |
| 20260906132801 | 75 | 127 | 1.7 | 6.1 | 0.00 | 0.00 | 0.00 | 46 | 1023.5 |
| 20260906132700 | 75 | 54 | 1.7 | 6.1 | 0.00 | 0.00 | 0.00 | 47 | 1023.5 |
| 20260906132600 | 75 | 108 | 1.7 | 6.1 | 0.00 | 0.00 | 0.00 | 47 | 1023.5 |
| 20260906132500 | 74 | 107 | 1.7 | 6.1 | 0.00 | 0.00 | 0.00 | 48 | 1023.5 |
| 20260906132400 | 74 | 90 | 1.7 | 7.0 | 0.00 | 0.00 | 0.00 | 46 | 1023.5 |
| 20260906132332 | 74 | 89 | 1.7 | 7.0 | 0.00 | 0.00 | 0.00 | 46 | 1023.5 |
| 20260906132301 | 74 | 88 | 1.7 | 7.0 | 0.00 | 0.00 | 0.00 | 48 | 1023.6 |
| 20260906132200 | 74 | 90 | 1.7 | 7.0 | 0.00 | 0.00 | 0.00 | 48 | 1023.5 |
| 20260906132100 | 74 | 90 | 1.7 | 7.0 | 0.00 | 0.00 | 0.00 | 50 | 1023.6 |
| 20260906132001 | 74 | 75 | 0.9 | 7.0 | 0.00 | 0.00 | 0.00 | 48 | 1023.6 |
| 20260906131901 | 74 | 71 | 0.9 | 7.0 | 0.00 | 0.00 | 0.00 | 48 | 1023.6 |
| 20260906131832 | 74 | 96 | 0.9 | 7.0 | 0.00 | 0.00 | 0.00 | 46 | 1023.6 |
| 20260906131801 | 74 | 97 | 1.7 | 7.0 | 0.00 | 0.00 | 0.00 | 46 | 1023.6 |
| 20260906131702 | 74 | 98 | 1.7 | 7.0 | 0.00 | 0.00 | 0.00 | 46 | 1023.6 |
| 20260906131601 | 74 | 98 | 1.7 | 7.0 | 0.00 | 0.00 | 0.00 | 47 | 1023.6 |
| 20260906131501 | 74 | 72 | 0.9 | 7.0 | 0.00 | 0.00 | 0.00 | 47 | 1023.6 |
| 20260906131401 | 74 | 92 | 0.9 | 5.2 | 0.00 | 0.00 | 0.00 | 48 | 1023.6 |
| 20260906131332 | 75 | 91 | 0.9 | 5.2 | 0.00 | 0.00 | 0.00 | 47 | 1023.6 |
| 20260906131300 | 75 | 91 | 1.7 | 5.2 | 0.00 | 0.00 | 0.00 | 47 | 1023.6 |
| 20260906131200 | 75 | 91 | 1.7 | 5.2 | 0.00 | 0.00 | 0.00 | 46 | 1023.6 |
| 20260906131100 | 75 | 115 | 1.7 | 6.1 | 0.00 | 0.00 | 0.00 | 47 | 1023.6 |
| 20260906131001 | 75 | 71 | 1.7 | 6.1 | 0.00 | 0.00 | 0.00 | 46 | 1023.6 |
| 20260906130901 | 75 | 68 | 2.6 | 8.7 | 0.00 | 0.00 | 0.00 | 45 | 1023.7 |
| 20260906130832 | 75 | 68 | 2.6 | 8.7 | 0.00 | 0.00 | 0.00 | 47 | 1023.7 |
| 20260906130801 | 75 | 44 | 1.7 | 8.7 | 0.00 | 0.00 | 0.00 | 47 | 1023.7 |
| 20260906130701 | 75 | 93 | 1.7 | 8.7 | 0.00 | 0.00 | 0.00 | 47 | 1023.6 |
| 20260906130601 | 75 | 92 | 1.7 | 8.7 | 0.00 | 0.00 | 0.00 | 46 | 1023.6 |
| 20260906130501 | 75 | 96 | 1.7 | 8.7 | 0.00 | 0.00 | 0.00 | 45 | 1023.6 |
| 20260906130400 | 75 | 42 | 1.7 | 8.7 | 0.00 | 0.00 | 0.00 | 46 | 1023.6 |
| 20260906130333 | 75 | 126 | 1.7 | 8.7 | 0.00 | 0.00 | 0.00 | 45 | 1023.6 |
| 20260906130301 | 75 | 130 | 1.7 | 8.7 | 0.00 | 0.00 | 0.00 | 45 | 1023.6 |
| 20260906130200 | 75 | 138 | 1.7 | 8.7 | 0.00 | 0.00 | 0.00 | 45 | 1023.6 |
| 20260906130100 | 75 | 108 | 1.7 | 8.7 | 0.00 | 0.00 | 0.00 | 46 | 1023.6 |
| 20260906130000 | 75 | 146 | 0.9 | 8.7 | 0.00 | 0.00 | 0.00 | 46 | 1023.6 |
| 20260906125900 | 75 | 142 | 0.9 | 7.0 | 0.00 | 0.00 | 0.00 | 46 | 1023.7 |
| 20260906125831 | 75 | 71 | 0.9 | 2.6 | 0.00 | 0.00 | 0.00 | 46 | 1023.7 |
| 20260906125801 | 75 | 70 | 0.9 | 2.6 | 0.00 | 0.00 | 0.00 | 47 | 1023.7 |
| 20260906125701 | 75 | 69 | 0.9 | 2.6 | 0.00 | 0.00 | 0.00 | 46 | 1023.7 |
| 20260906125603 | 75 | 69 | 0.9 | 2.6 | 0.00 | 0.00 | 0.00 | 47 | 1023.8 |
| 20260906125559 | 75 | 69 | 0.9 | 2.6 | 0.00 | 0.00 | 0.00 | 46 | 1023.9 |
| 20260906125547 | 75 | 71 | 0.9 | 2.6 | 0.00 | 0.00 | 0.00 | 45 | 1023.8 |
| 20260906125543 | 75 | 71 | 0.9 | 2.6 | 0.00 | 0.00 | 0.00 | 46 | 1023.9 |
| 20260906125306 | 74 | 69 | 0.9 | 2.6 | 0.00 | 0.00 | 0.00 | 48 | 1023.8 |
| 20260906125058 | 74 | 67 | 0.9 | 2.6 | 0.00 | 0.00 | 0.00 | 47 | 1023.8 |
| 20260906124957 | 74 | 68 | 0.9 | 3.5 | 0.00 | 0.00 | 0.00 | 46 | 1023.8 |
| 20260906124857 | 74 | 90 | 0.9 | 3.5 | 0.00 | 0.00 | 0.00 | 46 | 1023.8 |
| 20260906124830 | 74 | 318 | 0.9 | 3.5 | 0.00 | 0.00 | 0.00 | 46 | 1023.8 |
| 20260906124756 | 74 | 318 | 0.9 | 3.5 | 0.00 | 0.00 | 0.00 | 47 | 1023.8 |
| 20260906124659 | 74 | 318 | 0.9 | 3.5 | 0.00 | 0.00 | 0.00 | 48 | 1023.8 |
| 20260906124553 | 74 | 319 | 0.9 | 3.5 | 0.00 | 0.00 | 0.00 | 47 | 1023.8 |
| 20260906124545 | 74 | 319 | 0.9 | 3.5 | 0.00 | 0.00 | 0.00 | 46 | 1023.8 |
| 20260906124541 | 74 | 319 | 0.9 | 3.5 | 0.00 | 0.00 | 0.00 | 46 | 1023.8 |
| 20260906124251 | 74 | 319 | 0.9 | 3.5 | 0.00 | 0.00 | 0.00 | 47 | 1023.8 |
| 20260906124150 | 73 | 319 | 0.9 | 3.5 | 0.00 | 0.00 | 0.00 | 47 | 1023.9 |
| 20260906124048 | 73 | 43 | 0.9 | 2.6 | 0.00 | 0.00 | 0.00 | 47 | 1023.8 |
| 20260906123948 | 73 | 74 | 0.9 | 2.6 | 0.00 | 0.00 | 0.00 | 49 | 1023.8 |
| 20260906123847 | 73 | 74 | 0.9 | 2.6 | 0.00 | 0.00 | 0.00 | 50 | 1023.9 |
| 20260906123825 | 73 | 74 | 0.9 | 2.6 | 0.00 | 0.00 | 0.00 | 48 | 1023.9 |
| 20260906123746 | 73 | 73 | 0.9 | 6.1 | 0.00 | 0.00 | 0.00 | 47 | 1023.9 |
| 20260906123644 | 73 | 85 | 0.9 | 6.1 | 0.00 | 0.00 | 0.00 | 48 | 1023.9 |
| 20260906123541 | 73 | 72 | 1.7 | 6.1 | 0.00 | 0.00 | 0.00 | 47 | 1023.9 |
| 20260906123440 | 73 | 71 | 1.7 | 6.1 | 0.00 | 0.00 | 0.00 | 49 | 1023.9 |
| 20260906123340 | 73 | 63 | 1.7 | 6.1 | 0.00 | 0.00 | 0.00 | 47 | 1023.9 |
| 20260906123320 | 73 | 62 | 1.7 | 6.1 | 0.00 | 0.00 | 0.00 | 48 | 1023.9 |
| 20260906123240 | 73 | 80 | 1.7 | 6.1 | 0.00 | 0.00 | 0.00 | 48 | 1023.9 |
| 20260906123137 | 73 | 81 | 1.7 | 6.1 | 0.00 | 0.00 | 0.00 | 49 | 1023.9 |
| 20260906123038 | 72 | 80 | 1.7 | 6.1 | 0.00 | 0.00 | 0.00 | 48 | 1024.0 |
| 20260906123034 | 73 | 79 | 1.7 | 6.1 | 0.00 | 0.00 | 0.00 | 49 | 1023.9 |
| 20260906123029 | 72 | 81 | 1.7 | 6.1 | 0.00 | 0.00 | 0.00 | 47 | 1023.9 |
| 20260906123025 | 72 | 82 | 1.7 | 6.1 | 0.00 | 0.00 | 0.00 | 46 | 1023.9 |
| 20260906122734 | 72 | 97 | 1.7 | 5.2 | 0.00 | 0.00 | 0.00 | 48 | 1024.0 |
| 20260906122631 | 72 | 96 | 1.7 | 5.2 | 0.00 | 0.00 | 0.00 | 48 | 1024.0 |
| 20260906122534 | 72 | 96 | 1.7 | 5.2 | 0.00 | 0.00 | 0.00 | 49 | 1024.0 |
| 20260906122531 | 72 | 61 | 1.7 | 5.2 | 0.00 | 0.00 | 0.00 | 51 | 1024.0 |
| 20260906122522 | 72 | 97 | 1.7 | 5.2 | 0.00 | 0.00 | 0.00 | 51 | 1024.0 |
| 20260906122518 | 72 | 110 | 1.7 | 5.2 | 0.00 | 0.00 | 0.00 | 50 | 1024.0 |
| 20260906122234 | 72 | 86 | 1.7 | 5.2 | 0.00 | 0.00 | 0.00 | 49 | 1024.0 |
| 20260906122130 | 72 | 136 | 1.7 | 5.2 | 0.00 | 0.00 | 0.00 | 49 | 1024.0 |
| 20260906122030 | 72 | 84 | 0.9 | 5.2 | 0.00 | 0.00 | 0.00 | 49 | 1023.9 |
| 20260906121929 | 72 | 144 | 0.9 | 5.2 | 0.00 | 0.00 | 0.00 | 48 | 1024.0 |
| 20260906121829 | 72 | 154 | 0.9 | 5.2 | 0.00 | 0.00 | 0.00 | 49 | 1024.0 |
| 20260906121803 | 72 | 153 | 0.9 | 5.2 | 0.00 | 0.00 | 0.00 | 47 | 1024.0 |
| 20260906121759 | 72 | 147 | 0.9 | 2.6 | 0.00 | 0.00 | 0.00 | 49 | 1024.1 |
| 20260906121753 | 72 | 153 | 0.9 | 5.2 | 0.00 | 0.00 | 0.00 | 47 | 1024.0 |
| 20260906121745 | 72 | 153 | 0.9 | 5.2 | 0.00 | 0.00 | 0.00 | 48 | 1024.1 |
| 20260906121529 | 72 | 133 | 0.9 | 5.2 | 0.00 | 0.00 | 0.00 | 47 | 1024.1 |
| 20260906121520 | 72 | 115 | 0.9 | 5.2 | 0.00 | 0.00 | 0.00 | 49 | 1024.1 |
| 20260906121516 | 72 | 98 | 0.9 | 2.6 | 0.00 | 0.00 | 0.00 | 49 | 1024.1 |
| 20260906121301 | 72 | 134 | 0.9 | 2.6 | 0.00 | 0.00 | 0.00 | 49 | 1024.1 |
| 20260906121129 | 72 | 78 | 0.9 | 3.5 | 0.00 | 0.00 | 0.00 | 49 | 1024.1 |
| 20260906121030 | 72 | 78 | 1.7 | 6.1 | 0.00 | 0.00 | 0.00 | 49 | 1024.1 |
| 20260906120929 | 72 | 78 | 1.7 | 6.1 | 0.00 | 0.00 | 0.00 | 50 | 1024.1 |
| 20260906120829 | 71 | 78 | 1.7 | 6.1 | 0.00 | 0.00 | 0.00 | 49 | 1024.1 |
| 20260906120803 | 71 | 81 | 1.7 | 6.1 | 0.00 | 0.00 | 0.00 | 49 | 1024.0 |
| 20260906120729 | 71 | 81 | 1.7 | 6.1 | 0.00 | 0.00 | 0.00 | 50 | 1024.0 |
| 20260906120629 | 71 | 81 | 1.7 | 6.1 | 0.00 | 0.00 | 0.00 | 49 | 1024.1 |
| 20260906120529 | 71 | 81 | 1.7 | 6.1 | 0.00 | 0.00 | 0.00 | 50 | 1024.1 |
| 20260906120429 | 71 | 81 | 1.7 | 6.1 | 0.00 | 0.00 | 0.00 | 50 | 1024.0 |
| 20260906120329 | 71 | 81 | 1.7 | 6.1 | 0.00 | 0.00 | 0.00 | 49 | 1024.1 |
| 20260906120301 | 71 | 96 | 1.7 | 6.1 | 0.00 | 0.00 | 0.00 | 49 | 1024.1 |
| 20260906120228 | 71 | 81 | 1.7 | 6.1 | 0.00 | 0.00 | 0.00 | 48 | 1024.1 |
| 20260906120130 | 72 | 94 | 1.7 | 6.1 | 0.00 | 0.00 | 0.00 | 49 | 1024.1 |
| 20260906120029 | 71 | 107 | 1.7 | 5.2 | 0.00 | 0.00 | 0.00 | 49 | 1024.1 |
| 20260906120025 | 71 | 64 | 1.7 | 3.5 | 0.00 | 0.00 | 0.00 | 51 | 1024.1 |
| 20260906120017 | 71 | 101 | 1.7 | 4.3 | 0.00 | 0.00 | 0.00 | 51 | 1024.1 |
| 20260906120013 | 71 | 113 | 1.7 | 3.5 | 0.00 | 0.00 | 0.00 | 51 | 1024.1 |
| 20260906115729 | 71 | 76 | 1.7 | 3.5 | 0.00 | 0.00 | 0.00 | 51 | 1024.1 |
| 20260906115633 | 71 | 355 | 1.7 | 6.1 | 0.00 | 0.00 | 0.00 | 51 | 1024.1 |
| 20260906115528 | 71 | 97 | 1.7 | 6.1 | 0.00 | 0.00 | 0.00 | 51 | 1024.1 |
| 20260906115522 | 71 | 96 | 1.7 | 6.1 | 0.00 | 0.00 | 0.00 | 51 | 1024.1 |
| 20260906115517 | 71 | 92 | 1.7 | 6.1 | 0.00 | 0.00 | 0.00 | 51 | 1024.1 |
| 20260906115513 | 71 | 110 | 1.7 | 6.1 | 0.00 | 0.00 | 0.00 | 51 | 1024.1 |
| 20260906115227 | 71 | 98 | 1.7 | 6.1 | 0.00 | 0.00 | 0.00 | 51 | 1024.2 |
| 20260906115122 | 71 | 90 | 1.7 | 6.1 | 0.00 | 0.00 | 0.00 | 51 | 1024.1 |
| 20260906115022 | 71 | 87 | 1.7 | 6.1 | 0.00 | 0.00 | 0.00 | 51 | 1024.1 |
| 20260906114924 | 71 | 90 | 1.7 | 6.1 | 0.00 | 0.00 | 0.00 | 49 | 1024.1 |
| 20260906114823 | 71 | 86 | 0.9 | 6.1 | 0.00 | 0.00 | 0.00 | 50 | 1024.1 |
| 20260906114801 | 71 | 86 | 0.9 | 6.1 | 0.00 | 0.00 | 0.00 | 51 | 1024.1 |
| 20260906114751 | 71 | 96 | 0.9 | 3.5 | 0.00 | 0.00 | 0.00 | 54 | 1024.1 |
| 20260906114747 | 71 | 59 | 0.9 | 6.1 | 0.00 | 0.00 | 0.00 | 52 | 1024.1 |
| 20260906114739 | 71 | 103 | 0.9 | 6.1 | 0.00 | 0.00 | 0.00 | 53 | 1024.1 |
| 20260906114522 | 71 | 107 | 0.9 | 5.2 | 0.00 | 0.00 | 0.00 | 52 | 1024.1 |
| 20260906114518 | 71 | 107 | 0.9 | 5.2 | 0.00 | 0.00 | 0.00 | 53 | 1024.1 |
| 20260906114514 | 71 | 96 | 0.9 | 3.5 | 0.00 | 0.00 | 0.00 | 52 | 1024.1 |
| 20260906114215 | 71 | 94 | 0.9 | 3.5 | 0.00 | 0.00 | 0.00 | 53 | 1024.1 |
| 20260906114113 | 71 | 90 | 0.9 | 5.2 | 0.00 | 0.00 | 0.00 | 52 | 1024.1 |
| 20260906114010 | 71 | 90 | 1.7 | 5.2 | 0.00 | 0.00 | 0.00 | 53 | 1024.1 |
| 20260906113910 | 71 | 90 | 1.7 | 5.2 | 0.00 | 0.00 | 0.00 | 56 | 1024.1 |
| 20260906113810 | 71 | 90 | 1.7 | 5.2 | 0.00 | 0.00 | 0.00 | 53 | 1024.2 |
| 20260906113801 | 71 | 90 | 1.7 | 5.2 | 0.00 | 0.00 | 0.00 | 56 | 1024.2 |
| 20260906113709 | 71 | 90 | 1.7 | 6.1 | 0.00 | 0.00 | 0.00 | 53 | 1024.2 |
| 20260906113611 | 71 | 90 | 2.6 | 6.1 | 0.00 | 0.00 | 0.00 | 53 | 1024.2 |
| 20260906113508 | 71 | 89 | 1.7 | 6.1 | 0.00 | 0.00 | 0.00 | 54 | 1024.2 |
| 20260906113408 | 71 | 89 | 1.7 | 6.1 | 0.00 | 0.00 | 0.00 | 53 | 1024.2 |
| 20260906113301 | 71 | 67 | 1.7 | 6.1 | 0.00 | 0.00 | 0.00 | 53 | 1024.2 |
| 20260906113208 | 71 | 67 | 1.7 | 6.1 | 0.00 | 0.00 | 0.00 | 53 | 1024.2 |
| 20260906113108 | 71 | 78 | 1.7 | 6.1 | 0.00 | 0.00 | 0.00 | 54 | 1024.2 |
| 20260906113006 | 71 | 78 | 1.7 | 6.1 | 0.00 | 0.00 | 0.00 | 55 | 1024.2 |
| 20260906112906 | 71 | 76 | 1.7 | 6.1 | 0.00 | 0.00 | 0.00 | 55 | 1024.3 |
| 20260906112807 | 71 | 71 | 1.7 | 6.1 | 0.00 | 0.00 | 0.00 | 55 | 1024.3 |
| 20260906112800 | 71 | 61 | 1.7 | 6.1 | 0.00 | 0.00 | 0.00 | 55 | 1024.3 |
| 20260906112707 | 71 | 33 | 0.9 | 5.2 | 0.00 | 0.00 | 0.00 | 57 | 1024.3 |
| 20260906112606 | 71 | 92 | 0.9 | 5.2 | 0.00 | 0.00 | 0.00 | 56 | 1024.3 |
| 20260906112505 | 70 | 10 | 0.9 | 5.2 | 0.00 | 0.00 | 0.00 | 55 | 1024.3 |
| 20260906112404 | 71 | 82 | 0.9 | 5.2 | 0.00 | 0.00 | 0.00 | 56 | 1024.3 |
| 20260906112306 | 70 | 99 | 0.9 | 5.2 | 0.00 | 0.00 | 0.00 | 56 | 1024.3 |
| 20260906112300 | 70 | 105 | 0.9 | 5.2 | 0.00 | 0.00 | 0.00 | 56 | 1024.3 |
| 20260906112202 | 70 | 93 | 0.9 | 3.5 | 0.00 | 0.00 | 0.00 | 57 | 1024.3 |
| 20260906112103 | 70 | 82 | 0.9 | 3.5 | 0.00 | 0.00 | 0.00 | 56 | 1024.3 |
| 20260906112020 | 70 | 82 | 0.9 | 3.5 | 0.00 | 0.00 | 0.00 | 55 | 1024.3 |
| 20260906112016 | 70 | 82 | 1.7 | 3.5 | 0.00 | 0.00 | 0.00 | 58 | 1024.3 |
| 20260906112012 | 70 | 61 | 1.7 | 6.1 | 0.00 | 0.00 | 0.00 | 58 | 1024.3 |
| 20260906111754 | 70 | 111 | 1.7 | 6.1 | 0.00 | 0.00 | 0.00 | 56 | 1024.4 |
| 20260906111749 | 70 | 82 | 1.7 | 6.1 | 0.00 | 0.00 | 0.00 | 58 | 1024.3 |
| 20260906111741 | 70 | 111 | 1.7 | 6.1 | 0.00 | 0.00 | 0.00 | 58 | 1024.4 |
| 20260906111523 | 70 | 111 | 1.7 | 6.1 | 0.00 | 0.00 | 0.00 | 57 | 1024.3 |
| 20260906111518 | 70 | 111 | 1.7 | 6.1 | 0.00 | 0.00 | 0.00 | 56 | 1024.3 |
| 20260906111514 | 70 | 111 | 1.7 | 6.1 | 0.00 | 0.00 | 0.00 | 56 | 1024.4 |
| 20260906111201 | 70 | 117 | 1.7 | 6.1 | 0.00 | 0.00 | 0.00 | 56 | 1024.3 |
| 20260906111101 | 70 | 159 | 1.7 | 6.1 | 0.00 | 0.00 | 0.00 | 56 | 1024.3 |
| 20260906111001 | 70 | 103 | 1.7 | 6.1 | 0.00 | 0.00 | 0.00 | 56 | 1024.4 |
| 20260906110900 | 70 | 76 | 1.7 | 6.1 | 0.00 | 0.00 | 0.00 | 57 | 1024.3 |
| 20260906110801 | 70 | 123 | 1.7 | 5.2 | 0.00 | 0.00 | 0.00 | 58 | 1024.3 |
| 20260906110701 | 70 | 51 | 1.7 | 5.2 | 0.00 | 0.00 | 0.00 | 56 | 1024.4 |
| 20260906110601 | 70 | 88 | 1.7 | 5.2 | 0.00 | 0.00 | 0.00 | 56 | 1024.4 |
| 20260906110503 | 70 | 87 | 1.7 | 5.2 | 0.00 | 0.00 | 0.00 | 56 | 1024.4 |
| 20260906110401 | 70 | 93 | 1.7 | 5.2 | 0.00 | 0.00 | 0.00 | 55 | 1024.4 |
| 20260906110301 | 70 | 90 | 1.7 | 5.2 | 0.00 | 0.00 | 0.00 | 57 | 1024.4 |
| 20260906110252 | 70 | 92 | 1.7 | 5.2 | 0.00 | 0.00 | 0.00 | 59 | 1024.5 |
| 20260906110245 | 70 | 75 | 1.7 | 5.2 | 0.00 | 0.00 | 0.00 | 57 | 1024.3 |
| 20260906110238 | 70 | 105 | 1.7 | 5.2 | 0.00 | 0.00 | 0.00 | 56 | 1024.4 |
| 20260906110021 | 70 | 107 | 1.7 | 5.2 | 0.00 | 0.00 | 0.00 | 57 | 1024.4 |
| 20260906110016 | 70 | 91 | 1.7 | 5.2 | 0.00 | 0.00 | 0.00 | 58 | 1024.4 |
| 20260906110012 | 70 | 92 | 1.7 | 5.2 | 0.00 | 0.00 | 0.00 | 59 | 1024.5 |
| 20260906105700 | 70 | 88 | 1.7 | 5.2 | 0.00 | 0.00 | 0.00 | 59 | 1024.5 |
| 20260906105558 | 70 | 100 | 1.7 | 5.2 | 0.00 | 0.00 | 0.00 | 59 | 1024.5 |
| 20260906105458 | 70 | 86 | 1.7 | 5.2 | 0.00 | 0.00 | 0.00 | 57 | 1024.5 |
| 20260906105358 | 70 | 90 | 1.7 | 5.2 | 0.00 | 0.00 | 0.00 | 58 | 1024.5 |
| 20260906105305 | 70 | 98 | 1.7 | 5.2 | 0.00 | 0.00 | 0.00 | 57 | 1024.5 |
| 20260906105258 | 70 | 99 | 1.7 | 5.2 | 0.00 | 0.00 | 0.00 | 57 | 1024.5 |
| 20260906105152 | 70 | 100 | 1.7 | 5.2 | 0.00 | 0.00 | 0.00 | 58 | 1024.5 |
| 20260906105052 | 69 | 134 | 1.7 | 6.1 | 0.00 | 0.00 | 0.00 | 59 | 1024.6 |
| 20260906105027 | 69 | 105 | 3.5 | 9.6 | 0.00 | 0.00 | 0.00 | 60 | 1024.6 |
| 20260906105018 | 69 | 101 | 2.6 | 8.7 | 0.00 | 0.00 | 0.00 | 60 | 1024.6 |
| 20260906105014 | 69 | 103 | 2.6 | 9.6 | 0.00 | 0.00 | 0.00 | 59 | 1024.6 |
| 20260906104751 | 69 | 105 | 3.5 | 9.6 | 0.00 | 0.00 | 0.00 | 60 | 1024.6 |
| 20260906104648 | 69 | 105 | 3.5 | 9.6 | 0.00 | 0.00 | 0.00 | 60 | 1024.6 |
| 20260906104548 | 69 | 90 | 2.6 | 9.6 | 0.00 | 0.00 | 0.00 | 60 | 1024.6 |
| 20260906104448 | 69 | 98 | 2.6 | 9.6 | 0.00 | 0.00 | 0.00 | 60 | 1024.6 |
| 20260906104348 | 69 | 147 | 2.6 | 9.6 | 0.00 | 0.00 | 0.00 | 58 | 1024.6 |
| 20260906104301 | 69 | 146 | 2.6 | 9.6 | 0.00 | 0.00 | 0.00 | 59 | 1024.7 |
| 20260906104246 | 69 | 82 | 2.6 | 9.6 | 0.00 | 0.00 | 0.00 | 59 | 1024.7 |
| 20260906104140 | 69 | 136 | 2.6 | 9.6 | 0.00 | 0.00 | 0.00 | 61 | 1024.7 |
| 20260906104040 | 69 | 84 | 2.6 | 9.6 | 0.00 | 0.00 | 0.00 | 58 | 1024.8 |
| 20260906104021 | 69 | 111 | 0.9 | 7.0 | 0.00 | 0.00 | 0.00 | 60 | 1024.7 |
| 20260906104016 | 69 | 130 | 1.7 | 8.7 | 0.00 | 0.00 | 0.00 | 59 | 1024.7 |
| 20260906104012 | 69 | 132 | 1.7 | 7.0 | 0.00 | 0.00 | 0.00 | 60 | 1024.7 |
| 20260906103739 | 69 | 130 | 0.9 | 3.5 | 0.00 | 0.00 | 0.00 | 60 | 1024.7 |
| 20260906103638 | 69 | 91 | 1.7 | 4.3 | 0.00 | 0.00 | 0.00 | 58 | 1024.8 |
| 20260906103538 | 69 | 90 | 1.7 | 7.0 | 0.00 | 0.00 | 0.00 | 61 | 1024.8 |
| 20260906103436 | 69 | 90 | 1.7 | 7.0 | 0.00 | 0.00 | 0.00 | 60 | 1024.8 |
| 20260906103336 | 69 | 84 | 1.7 | 7.0 | 0.00 | 0.00 | 0.00 | 60 | 1024.8 |
| 20260906103301 | 69 | 101 | 1.7 | 7.0 | 0.00 | 0.00 | 0.00 | 60 | 1024.8 |
| 20260906103233 | 68 | 107 | 1.7 | 7.0 | 0.00 | 0.00 | 0.00 | 60 | 1024.8 |
| 20260906103134 | 68 | 110 | 1.7 | 7.0 | 0.00 | 0.00 | 0.00 | 60 | 1024.9 |
| 20260906103034 | 68 | 111 | 1.7 | 7.0 | 0.00 | 0.00 | 0.00 | 62 | 1024.9 |
| 20260906102934 | 68 | 79 | 1.7 | 7.0 | 0.00 | 0.00 | 0.00 | 61 | 1024.8 |
| 20260906102834 | 68 | 103 | 1.7 | 7.0 | 0.00 | 0.00 | 0.00 | 61 | 1024.9 |
| 20260906102803 | 68 | 88 | 1.7 | 7.0 | 0.00 | 0.00 | 0.00 | 60 | 1024.9 |
| 20260906102735 | 68 | 88 | 1.7 | 7.0 | 0.00 | 0.00 | 0.00 | 60 | 1024.9 |
| 20260906102632 | 68 | 92 | 1.7 | 7.0 | 0.00 | 0.00 | 0.00 | 60 | 1024.9 |
| 20260906102532 | 68 | 132 | 0.9 | 5.2 | 0.00 | 0.00 | 0.00 | 62 | 1024.9 |
| 20260906102431 | 68 | 80 | 0.9 | 5.2 | 0.00 | 0.00 | 0.00 | 61 | 1024.9 |
| 20260906102333 | 68 | 80 | 1.7 | 5.2 | 0.00 | 0.00 | 0.00 | 61 | 1024.9 |
| 20260906102301 | 68 | 80 | 1.7 | 5.2 | 0.00 | 0.00 | 0.00 | 61 | 1024.9 |
| 20260906102232 | 68 | 109 | 1.7 | 5.2 | 0.00 | 0.00 | 0.00 | 62 | 1024.9 |
| 20260906102129 | 68 | 86 | 0.9 | 5.2 | 0.00 | 0.00 | 0.00 | 62 | 1024.9 |
| 20260906102029 | 68 | 104 | 0.9 | 5.2 | 0.00 | 0.00 | 0.00 | 62 | 1024.9 |
| 20260906102016 | 68 | 104 | 0.9 | 4.3 | 0.00 | 0.00 | 0.00 | 63 | 1024.9 |
| 20260906102012 | 68 | 103 | 0.9 | 5.2 | 0.00 | 0.00 | 0.00 | 62 | 1024.9 |
| 20260906101729 | 67 | 103 | 0.9 | 5.2 | 0.00 | 0.00 | 0.00 | 63 | 1024.9 |
| 20260906101629 | 67 | 103 | 0.9 | 5.2 | 0.00 | 0.01 | 0.00 | 63 | 1024.9 |
| 20260906101531 | 67 | 86 | 0.9 | 5.2 | 0.00 | 0.01 | 0.00 | 64 | 1024.9 |
| 20260906101527 | 67 | 57 | 1.7 | 5.2 | 0.00 | 0.01 | 0.00 | 63 | 1024.8 |
| 20260906101517 | 67 | 60 | 1.7 | 5.2 | 0.00 | 0.01 | 0.00 | 64 | 1024.9 |
| 20260906101513 | 67 | 59 | 1.7 | 5.2 | 0.00 | 0.01 | 0.00 | 63 | 1024.8 |
| 20260906101229 | 67 | 36 | 1.7 | 5.2 | 0.00 | 0.01 | 0.00 | 62 | 1024.8 |
| 20260906101129 | 67 | 90 | 1.7 | 5.2 | 0.00 | 0.01 | 0.00 | 62 | 1024.8 |
| 20260906101029 | 67 | 90 | 1.7 | 5.2 | 0.00 | 0.01 | 0.00 | 62 | 1024.8 |
| 20260906100929 | 67 | 78 | 1.7 | 5.2 | 0.00 | 0.01 | 0.00 | 63 | 1024.8 |
| 20260906100829 | 67 | 75 | 1.7 | 5.2 | 0.00 | 0.01 | 0.00 | 62 | 1024.9 |
| 20260906100801 | 67 | 75 | 1.7 | 5.2 | 0.00 | 0.01 | 0.00 | 64 | 1024.9 |
| 20260906100729 | 67 | 71 | 1.7 | 5.2 | 0.00 | 0.01 | 0.00 | 64 | 1024.9 |
| 20260906100629 | 67 | 86 | 1.7 | 5.2 | 0.00 | 0.01 | 0.00 | 64 | 1024.9 |
| 20260906100533 | 67 | 92 | 1.7 | 5.2 | 0.00 | 0.01 | 0.00 | 62 | 1025.0 |
| 20260906100529 | 67 | 94 | 1.7 | 5.2 | 0.00 | 0.01 | 0.00 | 63 | 1024.9 |
| 20260906100517 | 67 | 86 | 1.7 | 5.2 | 0.00 | 0.01 | 0.00 | 62 | 1024.9 |
| 20260906100513 | 67 | 93 | 1.7 | 5.2 | 0.00 | 0.01 | 0.00 | 62 | 1025.0 |
| 20260906100229 | 67 | 88 | 1.7 | 6.1 | 0.00 | 0.01 | 0.00 | 62 | 1025.0 |
| 20260906100129 | 67 | 94 | 1.7 | 6.1 | 0.00 | 0.01 | 0.00 | 63 | 1025.0 |
| 20260906100028 | 67 | 136 | 1.7 | 6.1 | 0.00 | 0.01 | 0.00 | 62 | 1025.0 |
| 20260906095928 | 67 | 76 | 1.7 | 6.1 | 0.00 | 0.01 | 0.00 | 62 | 1025.0 |
| 20260906095828 | 67 | 60 | 1.7 | 6.1 | 0.00 | 0.01 | 0.00 | 63 | 1025.0 |
| 20260906095801 | 67 | 81 | 1.7 | 6.1 | 0.00 | 0.01 | 0.00 | 65 | 1025.0 |
| 20260906095724 | 67 | 81 | 1.7 | 6.1 | 0.00 | 0.01 | 0.00 | 65 | 1025.0 |
| 20260906095624 | 67 | 96 | 0.9 | 6.1 | 0.00 | 0.01 | 0.00 | 63 | 1025.0 |
| 20260906095528 | 67 | 98 | 0.9 | 6.1 | 0.00 | 0.01 | 0.00 | 63 | 1025.2 |
| 20260906095524 | 67 | 86 | 0.9 | 6.1 | 0.00 | 0.01 | 0.00 | 65 | 1025.2 |
| 20260906095515 | 67 | 97 | 0.9 | 6.1 | 0.00 | 0.01 | 0.00 | 63 | 1025.2 |
| 20260906095511 | 67 | 115 | 0.9 | 6.1 | 0.00 | 0.01 | 0.00 | 63 | 1025.2 |
| 20260906095218 | 67 | 108 | 0.9 | 5.2 | 0.00 | 0.01 | 0.00 | 63 | 1025.2 |
| 20260906095118 | 67 | 80 | 0.9 | 3.5 | 0.00 | 0.01 | 0.00 | 63 | 1025.2 |
| 20260906095017 | 67 | 79 | 0.9 | 3.5 | 0.00 | 0.01 | 0.00 | 64 | 1025.2 |
| 20260906094918 | 67 | 86 | 0.9 | 2.6 | 0.00 | 0.01 | 0.00 | 63 | 1025.2 |
| 20260906094817 | 67 | 124 | 0.9 | 2.6 | 0.00 | 0.01 | 0.00 | 63 | 1025.2 |
| 20260906094802 | 67 | 122 | 0.9 | 2.6 | 0.00 | 0.01 | 0.00 | 63 | 1025.2 |
| 20260906094711 | 67 | 103 | 0.9 | 2.6 | 0.00 | 0.01 | 0.00 | 63 | 1025.2 |
| 20260906094611 | 67 | 105 | 0.9 | 2.6 | 0.00 | 0.01 | 0.00 | 66 | 1025.2 |
| 20260906094525 | 67 | 77 | 0.9 | 6.1 | 0.00 | 0.02 | 0.00 | 64 | 1025.3 |
| 20260906094521 | 67 | 105 | 0.9 | 6.1 | 0.00 | 0.02 | 0.00 | 65 | 1025.2 |
| 20260906094517 | 67 | 109 | 0.9 | 6.1 | 0.00 | 0.02 | 0.00 | 65 | 1025.2 |
| 20260906094513 | 67 | 78 | 0.9 | 6.1 | 0.00 | 0.02 | 0.00 | 64 | 1025.3 |
| 20260906094212 | 66 | 101 | 0.9 | 6.1 | 0.00 | 0.02 | 0.00 | 65 | 1025.3 |
| 20260906094112 | 66 | 101 | 0.9 | 6.1 | 0.00 | 0.02 | 0.00 | 64 | 1025.3 |
| 20260906094026 | 66 | 103 | 1.7 | 7.0 | 0.00 | 0.02 | 0.00 | 66 | 1025.3 |
| 20260906094020 | 66 | 103 | 1.7 | 6.1 | 0.00 | 0.02 | 0.00 | 65 | 1025.3 |
| 20260906094016 | 66 | 103 | 1.7 | 7.0 | 0.00 | 0.02 | 0.00 | 64 | 1025.3 |
| 20260906094012 | 66 | 104 | 1.7 | 7.0 | 0.00 | 0.02 | 0.00 | 66 | 1025.3 |
| 20260906093712 | 66 | 103 | 2.6 | 7.0 | 0.00 | 0.02 | 0.00 | 64 | 1025.3 |
| 20260906093612 | 66 | 108 | 2.6 | 7.0 | 0.00 | 0.02 | 0.00 | 65 | 1025.3 |
| 20260906093510 | 66 | 80 | 2.6 | 7.0 | 0.00 | 0.02 | 0.00 | 65 | 1025.4 |
| 20260906093410 | 66 | 92 | 2.6 | 7.0 | 0.00 | 0.02 | 0.00 | 65 | 1025.4 |
| 20260906093311 | 66 | 68 | 1.7 | 7.0 | 0.00 | 0.02 | 0.00 | 65 | 1025.4 |
| 20260906093259 | 66 | 97 | 1.7 | 7.0 | 0.00 | 0.02 | 0.00 | 65 | 1025.4 |
| 20260906093210 | 66 | 109 | 2.6 | 7.0 | 0.00 | 0.02 | 0.00 | 65 | 1025.4 |
| 20260906093110 | 66 | 111 | 2.6 | 7.0 | 0.00 | 0.02 | 0.00 | 66 | 1025.4 |
| 20260906093010 | 66 | 120 | 2.6 | 7.0 | 0.00 | 0.02 | 0.00 | 65 | 1025.4 |
| 20260906092908 | 66 | 142 | 2.6 | 6.1 | 0.00 | 0.02 | 0.00 | 66 | 1025.4 |
| 20260906092808 | 66 | 119 | 1.7 | 6.1 | 0.00 | 0.02 | 0.00 | 66 | 1025.4 |
| 20260906092758 | 66 | 120 | 1.7 | 6.1 | 0.00 | 0.02 | 0.00 | 66 | 1025.4 |
| 20260906092706 | 65 | 90 | 1.7 | 6.1 | 0.00 | 0.02 | 0.00 | 67 | 1025.4 |
| 20260906092604 | 65 | 122 | 1.7 | 6.1 | 0.00 | 0.02 | 0.00 | 67 | 1025.4 |
| 20260906092504 | 65 | 72 | 1.7 | 6.1 | 0.00 | 0.02 | 0.00 | 66 | 1025.4 |
| 20260906092403 | 65 | 72 | 1.7 | 6.1 | 0.00 | 0.02 | 0.00 | 67 | 1025.4 |
| 20260906092305 | 65 | 104 | 1.7 | 6.1 | 0.00 | 0.02 | 0.00 | 66 | 1025.4 |
| 20260906092257 | 65 | 104 | 1.7 | 6.1 | 0.00 | 0.02 | 0.00 | 66 | 1025.4 |
| 20260906092202 | 65 | 84 | 1.7 | 6.1 | 0.00 | 0.02 | 0.00 | 67 | 1025.3 |
| 20260906092101 | 65 | 110 | 1.7 | 6.1 | 0.00 | 0.02 | 0.00 | 67 | 1025.4 |
| 20260906092001 | 65 | 107 | 1.7 | 6.1 | 0.00 | 0.02 | 0.00 | 66 | 1025.4 |
| 20260906091901 | 65 | 112 | 1.7 | 6.1 | 0.00 | 0.03 | 0.00 | 67 | 1025.3 |
| 20260906091801 | 65 | 78 | 1.7 | 6.1 | 0.00 | 0.03 | 0.00 | 66 | 1025.4 |
| 20260906091756 | 65 | 77 | 1.7 | 6.1 | 0.00 | 0.03 | 0.00 | 66 | 1025.4 |
| 20260906091701 | 65 | 75 | 1.7 | 6.1 | 0.00 | 0.03 | 0.00 | 66 | 1025.4 |
| 20260906091600 | 65 | 65 | 1.7 | 6.1 | 0.00 | 0.04 | 0.00 | 67 | 1025.4 |
| 20260906091456 | 65 | 135 | 1.7 | 6.1 | 0.00 | 0.04 | 0.00 | 67 | 1025.4 |
| 20260906091356 | 65 | 98 | 1.7 | 6.1 | 0.00 | 0.05 | 0.00 | 67 | 1025.4 |
| 20260906091256 | 65 | 98 | 1.7 | 6.1 | 0.00 | 0.05 | 0.00 | 67 | 1025.4 |
| 20260906091156 | 65 | 100 | 1.7 | 6.1 | 0.00 | 0.06 | 0.00 | 68 | 1025.5 |
| 20260906091054 | 65 | 112 | 1.7 | 6.1 | 0.00 | 0.06 | 0.00 | 69 | 1025.5 |
| 20260906090948 | 65 | 110 | 1.7 | 6.1 | 0.00 | 0.06 | 0.00 | 67 | 1025.4 |
| 20260906090848 | 64 | 96 | 1.7 | 6.1 | 0.00 | 0.06 | 0.00 | 67 | 1025.4 |
| 20260906090748 | 64 | 96 | 1.7 | 6.1 | 0.00 | 0.06 | 0.00 | 66 | 1025.4 |
| 20260906090647 | 64 | 96 | 1.7 | 6.1 | 0.00 | 0.06 | 0.00 | 68 | 1025.5 |
| 20260906090547 | 64 | 84 | 1.7 | 7.0 | 0.00 | 0.06 | 0.00 | 66 | 1025.5 |
| 20260906090442 | 64 | 119 | 1.7 | 7.0 | 0.00 | 0.06 | 0.00 | 66 | 1025.5 |
| 20260906090342 | 64 | 118 | 1.7 | 7.0 | 0.00 | 0.06 | 0.00 | 67 | 1025.5 |
| 20260906090256 | 64 | 106 | 1.7 | 7.0 | 0.00 | 0.06 | 0.00 | 68 | 1025.5 |
| 20260906090242 | 64 | 105 | 1.7 | 7.0 | 0.00 | 0.06 | 0.00 | 68 | 1025.5 |
| 20260906090142 | 64 | 85 | 1.7 | 7.0 | 0.00 | 0.06 | 0.00 | 67 | 1025.5 |
| 20260906090042 | 64 | 94 | 1.7 | 7.0 | 0.00 | 0.06 | 0.00 | 69 | 1025.6 |
| 20260906085938 | 64 | 123 | 1.7 | 7.0 | 0.00 | 0.06 | 0.00 | 67 | 1025.6 |
| 20260906085836 | 64 | 82 | 1.7 | 7.0 | 0.00 | 0.06 | 0.00 | 69 | 1025.5 |
| 20260906085756 | 64 | 117 | 1.7 | 7.8 | 0.00 | 0.06 | 0.00 | 69 | 1025.5 |
| 20260906085736 | 64 | 116 | 1.7 | 7.8 | 0.00 | 0.06 | 0.00 | 69 | 1025.5 |
| 20260906085636 | 64 | 136 | 1.7 | 7.8 | 0.00 | 0.06 | 0.00 | 70 | 1025.5 |
| 20260906085535 | 63 | 76 | 1.7 | 7.8 | 0.00 | 0.06 | 0.00 | 71 | 1025.5 |
| 20260906085429 | 63 | 109 | 1.7 | 7.8 | 0.00 | 0.06 | 0.00 | 69 | 1025.5 |
| 20260906085329 | 63 | 78 | 1.7 | 7.8 | 0.00 | 0.06 | 0.00 | 69 | 1025.5 |
| 20260906085255 | 63 | 80 | 1.7 | 7.8 | 0.00 | 0.06 | 0.00 | 70 | 1025.5 |
| 20260906085229 | 63 | 110 | 1.7 | 7.8 | 0.00 | 0.06 | 0.00 | 70 | 1025.5 |
| 20260906085130 | 63 | 114 | 1.7 | 7.8 | 0.00 | 0.06 | 0.00 | 68 | 1025.5 |
| 20260906085030 | 63 | 110 | 1.7 | 7.8 | 0.00 | 0.06 | 0.00 | 69 | 1025.5 |
| 20260906084926 | 63 | 121 | 1.7 | 7.8 | 0.00 | 0.06 | 0.00 | 70 | 1025.5 |
| 20260906084824 | 63 | 135 | 1.7 | 7.8 | 0.00 | 0.06 | 0.00 | 71 | 1025.5 |
| 20260906084756 | 63 | 109 | 1.7 | 6.1 | 0.00 | 0.06 | 0.00 | 70 | 1025.5 |
| 20260906084724 | 63 | 95 | 1.7 | 6.1 | 0.00 | 0.06 | 0.00 | 70 | 1025.6 |
| 20260906084625 | 63 | 93 | 1.7 | 6.1 | 0.00 | 0.06 | 0.00 | 70 | 1025.6 |
| 20260906084523 | 63 | 84 | 2.6 | 8.7 | 0.00 | 0.06 | 0.00 | 70 | 1025.6 |
| 20260906084518 | 63 | 85 | 2.6 | 8.7 | 0.00 | 0.06 | 0.00 | 69 | 1025.5 |
| 20260906084510 | 63 | 100 | 2.6 | 8.7 | 0.00 | 0.06 | 0.00 | 70 | 1025.6 |
| 20260906084506 | 63 | 81 | 2.6 | 8.7 | 0.00 | 0.06 | 0.00 | 70 | 1025.5 |
| 20260906084218 | 63 | 71 | 2.6 | 8.7 | 0.00 | 0.06 | 0.00 | 69 | 1025.5 |
| 20260906084118 | 63 | 87 | 2.6 | 8.7 | 0.00 | 0.06 | 0.00 | 71 | 1025.6 |
| 20260906084018 | 62 | 80 | 2.6 | 8.7 | 0.00 | 0.06 | 0.00 | 71 | 1025.5 |
| 20260906083912 | 62 | 112 | 2.6 | 8.7 | 0.00 | 0.06 | 0.00 | 71 | 1025.5 |
| 20260906083812 | 62 | 92 | 2.6 | 8.7 | 0.00 | 0.06 | 0.00 | 71 | 1025.6 |
| 20260906083755 | 62 | 155 | 2.6 | 8.7 | 0.00 | 0.06 | 0.00 | 71 | 1025.6 |
| 20260906083712 | 62 | 103 | 2.6 | 8.7 | 0.00 | 0.06 | 0.00 | 71 | 1025.6 |
| 20260906083612 | 62 | 112 | 2.6 | 8.7 | 0.00 | 0.06 | 0.00 | 71 | 1025.6 |
| 20260906083512 | 62 | 117 | 2.6 | 7.0 | 0.00 | 0.06 | 0.00 | 73 | 1025.6 |
| 20260906083406 | 62 | 76 | 1.7 | 7.0 | 0.00 | 0.06 | 0.00 | 73 | 1025.6 |
| 20260906083306 | 62 | 86 | 2.6 | 7.0 | 0.00 | 0.06 | 0.00 | 74 | 1025.6 |
| 20260906083255 | 62 | 85 | 2.6 | 7.8 | 0.00 | 0.06 | 0.00 | 74 | 1025.6 |
| 20260906083206 | 62 | 76 | 1.7 | 7.8 | 0.00 | 0.06 | 0.00 | 74 | 1025.6 |
| 20260906083105 | 62 | 82 | 1.7 | 7.8 | 0.00 | 0.06 | 0.00 | 74 | 1025.5 |
| 20260906083005 | 62 | 34 | 1.7 | 7.8 | 0.00 | 0.06 | 0.00 | 74 | 1025.6 |
| 20260906082902 | 62 | 100 | 1.7 | 7.8 | 0.00 | 0.06 | 0.00 | 73 | 1025.6 |
| 20260906082802 | 62 | 68 | 1.7 | 7.8 | 0.00 | 0.06 | 0.00 | 74 | 1025.5 |
| 20260906082755 | 61 | 68 | 1.7 | 7.8 | 0.00 | 0.06 | 0.00 | 74 | 1025.5 |
| 20260906082701 | 61 | 74 | 1.7 | 7.8 | 0.00 | 0.06 | 0.00 | 73 | 1025.6 |
| 20260906082602 | 61 | 74 | 1.7 | 7.8 | 0.00 | 0.06 | 0.00 | 72 | 1025.6 |
| 20260906082504 | 61 | 85 | 1.7 | 7.8 | 0.00 | 0.06 | 0.00 | 73 | 1025.6 |
| 20260906082402 | 61 | 111 | 1.7 | 7.8 | 0.00 | 0.06 | 0.00 | 73 | 1025.6 |
| 20260906082305 | 61 | 67 | 1.7 | 5.2 | 0.00 | 0.06 | 0.00 | 72 | 1025.6 |
| 20260906082255 | 61 | 83 | 1.7 | 5.2 | 0.00 | 0.06 | 0.00 | 72 | 1025.6 |
| 20260906082201 | 61 | 130 | 1.7 | 5.2 | 0.00 | 0.06 | 0.00 | 73 | 1025.5 |
| 20260906082101 | 61 | 99 | 1.7 | 5.2 | 0.00 | 0.06 | 0.00 | 74 | 1025.5 |
| 20260906082001 | 61 | 80 | 1.7 | 5.2 | 0.00 | 0.07 | 0.00 | 74 | 1025.6 |
| 20260906081902 | 61 | 77 | 1.7 | 5.2 | 0.00 | 0.07 | 0.00 | 73 | 1025.5 |
| 20260906081801 | 61 | 74 | 1.7 | 5.2 | 0.00 | 0.08 | 0.00 | 74 | 1025.5 |
| 20260906081756 | 61 | 61 | 1.7 | 5.2 | 0.00 | 0.08 | 0.00 | 74 | 1025.5 |
| 20260906081701 | 61 | 98 | 1.7 | 6.1 | 0.00 | 0.09 | 0.00 | 74 | 1025.5 |
| 20260906081601 | 61 | 144 | 1.7 | 6.1 | 0.00 | 0.09 | 0.00 | 75 | 1025.6 |
| 20260906081501 | 61 | 112 | 1.7 | 6.1 | 0.00 | 0.09 | 0.00 | 74 | 1025.6 |
| 20260906081401 | 60 | 84 | 1.7 | 6.1 | 0.00 | 0.10 | 0.00 | 76 | 1025.5 |
| 20260906081301 | 60 | 126 | 1.7 | 6.1 | 0.00 | 0.11 | 0.00 | 73 | 1025.5 |
| 20260906081254 | 60 | 126 | 1.7 | 6.1 | 0.00 | 0.11 | 0.00 | 73 | 1025.5 |
| 20260906081202 | 60 | 68 | 1.7 | 6.1 | 0.00 | 0.12 | 0.00 | 74 | 1025.5 |
| 20260906081101 | 60 | 102 | 1.7 | 6.1 | 0.00 | 0.12 | 0.00 | 74 | 1025.5 |
| 20260906081001 | 60 | 96 | 1.7 | 6.1 | 0.00 | 0.13 | 0.00 | 75 | 1025.4 |
| 20260906080901 | 60 | 101 | 1.7 | 6.1 | 0.00 | 0.13 | 0.00 | 75 | 1025.4 |
| 20260906080801 | 60 | 86 | 1.7 | 6.1 | 0.00 | 0.13 | 0.00 | 75 | 1025.4 |
| 20260906080752 | 60 | 86 | 1.7 | 6.1 | 0.00 | 0.13 | 0.00 | 75 | 1025.4 |
| 20260906080701 | 60 | 94 | 1.7 | 6.1 | 0.00 | 0.13 | 0.00 | 76 | 1025.4 |
| 20260906080600 | 60 | 127 | 1.7 | 6.1 | 0.00 | 0.13 | 0.00 | 75 | 1025.4 |
| 20260906080500 | 60 | 85 | 1.7 | 6.1 | 0.00 | 0.13 | 0.00 | 74 | 1025.4 |
| 20260906080401 | 60 | 108 | 2.6 | 7.0 | 0.00 | 0.13 | 0.00 | 75 | 1025.4 |
| 20260906080300 | 60 | 103 | 2.6 | 7.0 | 0.00 | 0.13 | 0.00 | 75 | 1025.4 |
| 20260906080251 | 60 | 103 | 2.6 | 7.0 | 0.00 | 0.13 | 0.00 | 75 | 1025.4 |
| 20260906080200 | 60 | 127 | 2.6 | 7.0 | 0.00 | 0.13 | 0.00 | 75 | 1025.4 |
| 20260906080001 | 60 | 98 | 1.7 | 7.0 | 0.00 | 0.13 | 0.00 | 74 | 1025.3 |
| 20260906075901 | 60 | 121 | 1.7 | 7.0 | 0.00 | 0.13 | 0.00 | 74 | 1025.3 |
| 20260906075801 | 59 | 100 | 1.7 | 7.0 | 0.00 | 0.13 | 0.00 | 74 | 1025.3 |
| 20260906075746 | 59 | 123 | 1.7 | 7.0 | 0.00 | 0.13 | 0.00 | 74 | 1025.3 |
| 20260906075700 | 59 | 92 | 1.7 | 7.0 | 0.00 | 0.13 | 0.00 | 75 | 1025.3 |
| 20260906075601 | 59 | 104 | 1.7 | 7.0 | 0.00 | 0.13 | 0.00 | 75 | 1025.4 |
| 20260906075500 | 59 | 70 | 0.9 | 7.0 | 0.00 | 0.13 | 0.00 | 76 | 1025.3 |
| 20260906075402 | 59 | 84 | 0.9 | 5.2 | 0.00 | 0.13 | 0.00 | 76 | 1025.3 |
| 20260906075305 | 59 | 110 | 0.9 | 5.2 | 0.00 | 0.13 | 0.00 | 77 | 1025.3 |
| 20260906075242 | 59 | 111 | 0.9 | 5.2 | 0.00 | 0.13 | 0.00 | 77 | 1025.3 |
| 20260906075202 | 59 | 113 | 0.9 | 5.2 | 0.00 | 0.13 | 0.00 | 78 | 1025.3 |
| 20260906075101 | 58 | 97 | 0.9 | 3.5 | 0.00 | 0.13 | 0.00 | 80 | 1025.4 |
| 20260906075001 | 58 | 109 | 0.9 | 3.5 | 0.00 | 0.13 | 0.00 | 81 | 1025.4 |
| 20260906074902 | 58 | 108 | 0.9 | 3.5 | 0.00 | 0.13 | 0.00 | 81 | 1025.4 |
| 20260906074801 | 58 | 109 | 0.9 | 3.5 | 0.00 | 0.13 | 0.00 | 81 | 1025.4 |
| 20260906074742 | 58 | 98 | 0.9 | 3.5 | 0.00 | 0.13 | 0.00 | 81 | 1025.4 |
| 20260906074701 | 58 | 106 | 0.9 | 3.5 | 0.00 | 0.13 | 0.00 | 81 | 1025.4 |
| 20260906074602 | 58 | 108 | 0.9 | 3.5 | 0.00 | 0.13 | 0.00 | 81 | 1025.4 |
| 20260906074501 | 58 | 84 | 0.9 | 3.5 | 0.00 | 0.13 | 0.00 | 82 | 1025.4 |
| 20260906074401 | 58 | 83 | 0.9 | 3.5 | 0.00 | 0.13 | 0.00 | 82 | 1025.4 |
| 20260906074300 | 57 | 86 | 1.7 | 3.5 | 0.00 | 0.13 | 0.00 | 82 | 1025.4 |
| 20260906074240 | 57 | 102 | 1.7 | 3.5 | 0.00 | 0.13 | 0.00 | 82 | 1025.4 |
| 20260906074200 | 57 | 101 | 1.7 | 6.1 | 0.00 | 0.13 | 0.00 | 82 | 1025.4 |
| 20260906074100 | 57 | 101 | 1.7 | 6.1 | 0.00 | 0.13 | 0.00 | 84 | 1025.3 |
| 20260906074010 | 57 | 87 | 1.7 | 6.1 | 0.00 | 0.13 | 0.00 | 84 | 1025.4 |
| 20260906074003 | 57 | 113 | 1.7 | 6.1 | 0.00 | 0.13 | 0.00 | 84 | 1025.4 |
| 20260906073955 | 57 | 89 | 1.7 | 6.1 | 0.00 | 0.13 | 0.00 | 83 | 1025.4 |
| 20260906073951 | 57 | 88 | 1.7 | 6.1 | 0.00 | 0.13 | 0.00 | 84 | 1025.4 |
| 20260906073655 | 57 | 89 | 1.7 | 6.1 | 0.00 | 0.13 | 0.00 | 84 | 1025.4 |
| 20260906073555 | 57 | 111 | 1.7 | 6.1 | 0.00 | 0.13 | 0.00 | 85 | 1025.4 |
| 20260906073508 | 57 | 97 | 0.9 | 6.1 | 0.00 | 0.13 | 0.00 | 85 | 1025.4 |
| 20260906073501 | 57 | 109 | 1.7 | 6.1 | 0.00 | 0.13 | 0.00 | 85 | 1025.4 |
| 20260906073453 | 57 | 106 | 1.7 | 6.1 | 0.00 | 0.13 | 0.00 | 86 | 1025.4 |
| 20260906073449 | 57 | 113 | 0.9 | 6.1 | 0.00 | 0.13 | 0.00 | 85 | 1025.4 |
| 20260906073154 | 56 | 106 | 0.9 | 5.2 | 0.00 | 0.13 | 0.00 | 85 | 1025.4 |
| 20260906073054 | 56 | 88 | 0.9 | 3.5 | 0.00 | 0.13 | 0.00 | 87 | 1025.4 |
| 20260906072953 | 56 | 86 | 0.9 | 3.5 | 0.00 | 0.13 | 0.00 | 87 | 1025.4 |
| 20260906072854 | 56 | 76 | 0.9 | 3.5 | 0.00 | 0.13 | 0.00 | 87 | 1025.4 |
| 20260906072754 | 56 | 108 | 0.9 | 3.5 | 0.00 | 0.13 | 0.00 | 87 | 1025.4 |
| 20260906072738 | 56 | 90 | 0.9 | 3.5 | 0.00 | 0.13 | 0.00 | 87 | 1025.4 |
| 20260906072653 | 56 | 90 | 0.9 | 3.5 | 0.00 | 0.13 | 0.00 | 89 | 1025.4 |
| 20260906072554 | 56 | 80 | 0.9 | 3.5 | 0.00 | 0.13 | 0.00 | 90 | 1025.4 |
| 20260906072453 | 56 | 82 | 0.9 | 3.5 | 0.00 | 0.13 | 0.00 | 93 | 1025.4 |
| 20260906072353 | 56 | 88 | 0.9 | 3.5 | 0.00 | 0.13 | 0.00 | 93 | 1025.4 |
| 20260906072254 | 56 | 115 | 0.9 | 3.5 | 0.00 | 0.13 | 0.00 | 94 | 1025.4 |
| 20260906072238 | 56 | 124 | 0.9 | 3.5 | 0.00 | 0.13 | 0.00 | 94 | 1025.4 |
| 20260906072154 | 56 | 123 | 0.9 | 3.5 | 0.00 | 0.13 | 0.00 | 94 | 1025.4 |
| 20260906072050 | 56 | 134 | 0.9 | 3.5 | 0.00 | 0.13 | 0.00 | 94 | 1025.4 |
| 20260906071949 | 56 | 134 | 0.9 | 3.5 | 0.00 | 0.13 | 0.00 | 94 | 1025.4 |
| 20260906071850 | 56 | 134 | 0.9 | 3.5 | 0.00 | 0.13 | 0.00 | 94 | 1025.4 |
| 20260906071737 | 56 | 134 | 0.9 | 3.5 | 0.00 | 0.13 | 0.00 | 95 | 1025.4 |
| 20260906071645 | 56 | 134 | 0.9 | 3.5 | 0.00 | 0.13 | 0.00 | 95 | 1025.5 |
| 20260906071542 | 56 | 132 | 0.9 | 2.6 | 0.00 | 0.13 | 0.00 | 96 | 1025.5 |
| 20260906071506 | 56 | 126 | 0.9 | 3.5 | 0.00 | 0.13 | 0.00 | 96 | 1025.6 |
| 20260906071501 | 56 | 128 | 0.9 | 2.6 | 0.00 | 0.13 | 0.00 | 96 | 1025.5 |
| 20260906071453 | 56 | 127 | 0.9 | 3.5 | 0.00 | 0.13 | 0.00 | 96 | 1025.5 |
| 20260906071449 | 56 | 127 | 0.9 | 3.5 | 0.00 | 0.13 | 0.00 | 96 | 1025.6 |
| 20260906071141 | 55 | 127 | 0.9 | 3.5 | 0.00 | 0.13 | 0.00 | 96 | 1025.5 |
| 20260906071041 | 55 | 127 | 0.9 | 3.5 | 0.00 | 0.13 | 0.00 | 96 | 1025.5 |
| 20260906070941 | 55 | 126 | 0.9 | 3.5 | 0.00 | 0.13 | 0.00 | 96 | 1025.5 |
| 20260906070841 | 55 | 126 | 1.7 | 4.3 | 0.00 | 0.13 | 0.00 | 96 | 1025.5 |
| 20260906070738 | 55 | 122 | 1.7 | 4.3 | 0.00 | 0.13 | 0.00 | 96 | 1025.4 |
| 20260906070640 | 55 | 122 | 1.7 | 4.3 | 0.00 | 0.13 | 0.00 | 96 | 1025.5 |
| 20260906070540 | 55 | 122 | 1.7 | 4.3 | 0.00 | 0.13 | 0.00 | 96 | 1025.4 |
| 20260906070439 | 55 | 123 | 1.7 | 4.3 | 0.00 | 0.13 | 0.00 | 96 | 1025.4 |
| 20260906070336 | 55 | 127 | 1.7 | 4.3 | 0.00 | 0.13 | 0.00 | 96 | 1025.4 |
| 20260906070236 | 55 | 127 | 1.7 | 4.3 | 0.00 | 0.13 | 0.00 | 96 | 1025.4 |
| 20260906070135 | 55 | 130 | 2.6 | 4.3 | 0.00 | 0.13 | 0.00 | 96 | 1025.4 |
| 20260906070035 | 55 | 130 | 2.6 | 4.3 | 0.00 | 0.13 | 0.00 | 96 | 1025.4 |
| 20260906065935 | 55 | 130 | 2.6 | 4.3 | 0.00 | 0.13 | 0.00 | 96 | 1025.4 |
| 20260906065836 | 55 | 142 | 2.6 | 4.3 | 0.00 | 0.13 | 0.00 | 96 | 1025.4 |
| 20260906065736 | 55 | 136 | 1.7 | 4.3 | 0.00 | 0.13 | 0.00 | 96 | 1025.4 |
| 20260906065636 | 55 | 136 | 1.7 | 4.3 | 0.00 | 0.13 | 0.00 | 96 | 1025.4 |
| 20260906065533 | 55 | 140 | 1.7 | 4.3 | 0.00 | 0.13 | 0.00 | 96 | 1025.4 |
| 20260906065434 | 54 | 139 | 1.7 | 4.3 | 0.00 | 0.13 | 0.00 | 96 | 1025.3 |
| 20260906065333 | 54 | 138 | 1.7 | 4.3 | 0.00 | 0.13 | 0.00 | 96 | 1025.4 |
| 20260906065233 | 54 | 146 | 1.7 | 4.3 | 0.00 | 0.13 | 0.00 | 96 | 1025.3 |
| 20260906065130 | 54 | 141 | 1.7 | 4.3 | 0.00 | 0.13 | 0.00 | 96 | 1025.3 |
| 20260906065030 | 54 | 138 | 1.7 | 3.5 | 0.00 | 0.13 | 0.00 | 96 | 1025.3 |
| 20260906064930 | 54 | 140 | 1.7 | 3.5 | 0.00 | 0.13 | 0.00 | 96 | 1025.3 |
| 20260906064830 | 53 | 139 | 1.7 | 3.5 | 0.00 | 0.13 | 0.00 | 96 | 1025.3 |
| 20260906064730 | 53 | 139 | 1.7 | 3.5 | 0.00 | 0.13 | 0.00 | 96 | 1025.3 |
| 20260906064629 | 53 | 139 | 1.7 | 3.5 | 0.00 | 0.13 | 0.00 | 96 | 1025.3 |
| 20260906064529 | 53 | 139 | 1.7 | 3.5 | 0.00 | 0.13 | 0.00 | 96 | 1025.3 |
| 20260906064453 | 53 | 138 | 1.7 | 3.5 | 0.00 | 0.13 | 0.00 | 96 | 1025.4 |
| 20260906064445 | 53 | 138 | 1.7 | 3.5 | 0.00 | 0.13 | 0.00 | 96 | 1025.3 |
| 20260906064441 | 53 | 136 | 1.7 | 3.5 | 0.00 | 0.13 | 0.00 | 96 | 1025.3 |
| 20260906064129 | 52 | 134 | 1.7 | 3.5 | 0.00 | 0.13 | 0.00 | 96 | 1025.3 |
| 20260906064030 | 52 | 134 | 1.7 | 3.5 | 0.00 | 0.13 | 0.00 | 96 | 1025.3 |
| 20260906063930 | 52 | 135 | 1.7 | 3.5 | 0.00 | 0.13 | 0.00 | 96 | 1025.3 |
| 20260906063829 | 52 | 135 | 1.7 | 3.5 | 0.00 | 0.13 | 0.00 | 96 | 1025.4 |
| 20260906063730 | 52 | 134 | 0.9 | 2.6 | 0.00 | 0.13 | 0.00 | 96 | 1025.4 |
| 20260906063630 | 52 | 134 | 0.9 | 2.6 | 0.00 | 0.13 | 0.00 | 96 | 1025.3 |
| 20260906063530 | 51 | 134 | 0.9 | 2.6 | 0.00 | 0.13 | 0.00 | 96 | 1025.4 |
| 20260906063430 | 51 | 134 | 0.9 | 2.6 | 0.00 | 0.13 | 0.00 | 95 | 1025.3 |
| 20260906063330 | 51 | 134 | 0.9 | 2.6 | 0.00 | 0.13 | 0.00 | 95 | 1025.3 |
| 20260906063229 | 51 | 134 | 0.9 | 2.6 | 0.00 | 0.13 | 0.00 | 96 | 1025.3 |
| 20260906063129 | 51 | 134 | 0.9 | 2.6 | 0.00 | 0.13 | 0.00 | 96 | 1025.3 |
| 20260906063029 | 51 | 134 | 0.9 | 2.6 | 0.00 | 0.13 | 0.00 | 95 | 1025.3 |
| 20260906062929 | 51 | 133 | 0.9 | 2.6 | 0.00 | 0.13 | 0.00 | 95 | 1025.3 |
| 20260906062829 | 51 | 133 | 0.9 | 2.6 | 0.00 | 0.13 | 0.00 | 95 | 1025.3 |
| 20260906062729 | 51 | 133 | 0.9 | 2.6 | 0.00 | 0.13 | 0.00 | 95 | 1025.2 |
| 20260906062629 | 51 | 133 | 0.9 | 2.6 | 0.00 | 0.13 | 0.00 | 95 | 1025.2 |
| 20260906062529 | 51 | 133 | 0.9 | 2.6 | 0.00 | 0.13 | 0.00 | 95 | 1025.2 |
| 20260906062429 | 50 | 133 | 0.9 | 2.6 | 0.00 | 0.13 | 0.00 | 95 | 1025.3 |
| 20260906062329 | 50 | 133 | 0.9 | 2.6 | 0.00 | 0.13 | 0.00 | 95 | 1025.2 |
| 20260906062229 | 50 | 133 | 0.9 | 2.6 | 0.00 | 0.13 | 0.00 | 95 | 1025.2 |
| 20260906062129 | 50 | 132 | 0.9 | 1.7 | 0.00 | 0.13 | 0.00 | 95 | 1025.3 |
| 20260906062029 | 50 | 132 | 0.9 | 1.7 | 0.00 | 0.13 | 0.00 | 95 | 1025.3 |
| 20260906061929 | 50 | 132 | 0.9 | 1.7 | 0.00 | 0.13 | 0.00 | 95 | 1025.3 |
| 20260906061829 | 50 | 132 | 0.9 | 1.7 | 0.00 | 0.13 | 0.00 | 95 | 1025.2 |
| 20260906061729 | 50 | 132 | 0.9 | 2.6 | 0.00 | 0.13 | 0.00 | 95 | 1025.2 |
| 20260906061629 | 50 | 132 | 0.9 | 2.6 | 0.00 | 0.13 | 0.00 | 95 | 1025.3 |
| 20260906061528 | 50 | 132 | 0.9 | 2.6 | 0.00 | 0.13 | 0.00 | 95 | 1025.2 |
| 20260906061429 | 50 | 132 | 0.9 | 2.6 | 0.00 | 0.13 | 0.00 | 95 | 1025.2 |
| 20260906061329 | 50 | 132 | 0.9 | 2.6 | 0.00 | 0.13 | 0.00 | 95 | 1025.2 |
| 20260906061228 | 50 | 132 | 0.9 | 2.6 | 0.00 | 0.13 | 0.00 | 95 | 1025.2 |
| 20260906061129 | 50 | 132 | 0.9 | 2.6 | 0.00 | 0.13 | 0.00 | 95 | 1025.2 |
| 20260906061029 | 50 | 132 | 0.9 | 2.6 | 0.00 | 0.13 | 0.00 | 95 | 1025.2 |
| 20260906060929 | 50 | 132 | 0.9 | 2.6 | 0.00 | 0.13 | 0.00 | 95 | 1025.2 |
| 20260906060829 | 49 | 131 | 0.9 | 2.6 | 0.00 | 0.13 | 0.00 | 95 | 1025.2 |
| 20260906060733 | 49 | 131 | 0.9 | 2.6 | 0.00 | 0.13 | 0.00 | 95 | 1025.2 |
| 20260906060729 | 49 | 131 | 0.9 | 2.6 | 0.00 | 0.13 | 0.00 | 95 | 1025.0 |
| 20260906060626 | 49 | 131 | 0.9 | 2.6 | 0.00 | 0.13 | 0.00 | 95 | 1025.0 |
| 20260906060526 | 49 | 131 | 0.9 | 2.6 | 0.00 | 0.13 | 0.00 | 95 | 1025.0 |
| 20260906060426 | 49 | 131 | 0.9 | 2.6 | 0.00 | 0.13 | 0.00 | 95 | 1025.0 |
| 20260906060326 | 49 | 131 | 0.9 | 2.6 | 0.00 | 0.13 | 0.00 | 95 | 1025.0 |
| 20260906060226 | 49 | 131 | 0.9 | 2.6 | 0.00 | 0.13 | 0.00 | 95 | 1025.0 |
| 20260906060126 | 49 | 131 | 0.9 | 2.6 | 0.00 | 0.13 | 0.00 | 95 | 1025.0 |
| 20260906060025 | 49 | 131 | 0.9 | 2.6 | 0.00 | 0.13 | 0.00 | 95 | 1025.0 |
| 20260906055954 | 49 | 130 | 0.9 | 2.6 | 0.00 | 0.13 | 0.00 | 95 | 1025.0 |
| 20260906055948 | 49 | 130 | 0.9 | 2.6 | 0.00 | 0.13 | 0.00 | 95 | 1025.0 |
| 20260906055939 | 49 | 130 | 0.9 | 2.6 | 0.00 | 0.13 | 0.00 | 95 | 1025.0 |
| 20260906055725 | 49 | 130 | 0.9 | 2.6 | 0.00 | 0.13 | 0.00 | 95 | 1025.0 |
| 20260906055625 | 49 | 130 | 0.9 | 2.6 | 0.00 | 0.13 | 0.00 | 94 | 1025.0 |
| 20260906055525 | 49 | 130 | 0.9 | 2.6 | 0.00 | 0.13 | 0.00 | 94 | 1025.0 |
| 20260906055426 | 49 | 130 | 0.9 | 2.6 | 0.00 | 0.13 | 0.00 | 94 | 1025.0 |
| 20260906055325 | 49 | 130 | 0.9 | 2.6 | 0.00 | 0.13 | 0.00 | 94 | 1025.0 |
| 20260906055225 | 49 | 130 | 0.9 | 2.6 | 0.00 | 0.13 | 0.00 | 94 | 1025.2 |
| 20260906055126 | 49 | 131 | 0.0 | 2.6 | 0.00 | 0.13 | 0.00 | 94 | 1025.2 |
| 20260906055026 | 49 | 130 | 0.0 | 2.6 | 0.00 | 0.13 | 0.00 | 94 | 1025.3 |
| 20260906054926 | 49 | 130 | 0.0 | 1.7 | 0.00 | 0.13 | 0.00 | 94 | 1025.3 |
| 20260906054829 | 49 | 130 | 0.0 | 1.7 | 0.00 | 0.13 | 0.00 | 95 | 1025.3 |
| 20260906054729 | 49 | 130 | 0.0 | 1.7 | 0.00 | 0.13 | 0.00 | 95 | 1025.3 |
| 20260906054722 | 49 | 130 | 0.0 | 1.7 | 0.00 | 0.13 | 0.00 | 95 | 1025.2 |
| 20260906054621 | 49 | 130 | 0.0 | 1.7 | 0.00 | 0.13 | 0.00 | 95 | 1025.2 |
| 20260906054521 | 49 | 130 | 0.0 | 0.9 | 0.00 | 0.13 | 0.00 | 95 | 1025.2 |
| 20260906054421 | 49 | 130 | 0.0 | 0.9 | 0.00 | 0.13 | 0.00 | 94 | 1025.3 |
| 20260906054321 | 49 | 130 | 0.0 | 0.0 | 0.00 | 0.13 | 0.00 | 94 | 1025.2 |
| 20260906054221 | 49 | 130 | 0.0 | 0.0 | 0.00 | 0.13 | 0.00 | 94 | 1025.2 |
| 20260906054121 | 49 | 130 | 0.0 | 0.0 | 0.00 | 0.13 | 0.00 | 94 | 1025.2 |
| 20260906054021 | 49 | 130 | 0.0 | 0.9 | 0.00 | 0.13 | 0.00 | 94 | 1025.2 |
| 20260906053952 | 49 | 130 | 0.0 | 1.7 | 0.00 | 0.13 | 0.00 | 94 | 1025.2 |
| 20260906053947 | 49 | 130 | 0.0 | 1.7 | 0.00 | 0.13 | 0.00 | 94 | 1025.2 |
| 20260906053943 | 49 | 130 | 0.0 | 1.7 | 0.00 | 0.13 | 0.00 | 94 | 1025.2 |
| 20260906053719 | 49 | 130 | 0.0 | 1.7 | 0.00 | 0.13 | 0.00 | 94 | 1025.2 |
| 20260906053618 | 49 | 130 | 0.0 | 1.7 | 0.00 | 0.13 | 0.00 | 94 | 1025.3 |
| 20260906053519 | 49 | 130 | 0.0 | 1.7 | 0.00 | 0.13 | 0.00 | 94 | 1025.2 |
| 20260906053419 | 49 | 130 | 0.0 | 1.7 | 0.00 | 0.13 | 0.00 | 94 | 1025.2 |
| 20260906053317 | 49 | 130 | 0.0 | 1.7 | 0.00 | 0.13 | 0.00 | 94 | 1025.2 |
| 20260906053228 | 49 | 130 | 0.0 | 1.7 | 0.00 | 0.13 | 0.00 | 94 | 1025.2 |
| 20260906053215 | 49 | 130 | 0.0 | 1.7 | 0.00 | 0.13 | 0.00 | 94 | 1025.0 |
| 20260906053112 | 49 | 130 | 0.9 | 1.7 | 0.00 | 0.13 | 0.00 | 94 | 1025.2 |
| 20260906053008 | 49 | 130 | 0.9 | 1.7 | 0.00 | 0.13 | 0.00 | 94 | 1025.2 |
| 20260906052905 | 49 | 130 | 0.9 | 1.7 | 0.00 | 0.13 | 0.00 | 94 | 1025.2 |
| 20260906052802 | 49 | 130 | 0.9 | 1.7 | 0.00 | 0.13 | 0.00 | 94 | 1025.2 |
| 20260906052729 | 49 | 130 | 0.9 | 1.7 | 0.00 | 0.13 | 0.00 | 94 | 1025.2 |
| 20260906052701 | 49 | 130 | 0.9 | 1.7 | 0.00 | 0.13 | 0.00 | 94 | 1025.0 |
| 20260906052601 | 49 | 130 | 0.9 | 1.7 | 0.00 | 0.13 | 0.00 | 94 | 1025.0 |
| 20260906052501 | 49 | 130 | 0.9 | 1.7 | 0.00 | 0.13 | 0.00 | 93 | 1025.0 |
| 20260906052401 | 49 | 130 | 0.9 | 1.7 | 0.00 | 0.13 | 0.00 | 93 | 1025.0 |
| 20260906052305 | 49 | 130 | 0.9 | 1.7 | 0.00 | 0.13 | 0.00 | 93 | 1025.2 |
| 20260906052230 | 49 | 130 | 0.9 | 1.7 | 0.00 | 0.13 | 0.00 | 93 | 1025.2 |
| 20260906052201 | 49 | 130 | 0.9 | 1.7 | 0.00 | 0.13 | 0.00 | 94 | 1025.0 |
| 20260906052101 | 49 | 130 | 0.9 | 1.7 | 0.00 | 0.13 | 0.00 | 94 | 1025.2 |
| 20260906052001 | 49 | 130 | 0.9 | 1.7 | 0.00 | 0.13 | 0.00 | 94 | 1025.2 |
| 20260906051901 | 49 | 130 | 0.9 | 1.7 | 0.00 | 0.13 | 0.00 | 94 | 1025.2 |
| 20260906051801 | 49 | 130 | 0.9 | 1.7 | 0.00 | 0.13 | 0.00 | 94 | 1025.2 |
| 20260906051729 | 49 | 130 | 0.9 | 1.7 | 0.00 | 0.13 | 0.00 | 94 | 1025.2 |
| 20260906051701 | 49 | 130 | 0.0 | 1.7 | 0.00 | 0.13 | 0.00 | 94 | 1025.0 |
| 20260906051600 | 49 | 130 | 0.0 | 1.7 | 0.00 | 0.13 | 0.00 | 94 | 1025.0 |
| 20260906051501 | 49 | 130 | 0.0 | 1.7 | 0.00 | 0.13 | 0.00 | 94 | 1025.0 |
| 20260906051453 | 49 | 130 | 0.0 | 0.9 | 0.00 | 0.13 | 0.00 | 94 | 1025.0 |
| 20260906051448 | 49 | 130 | 0.0 | 1.7 | 0.00 | 0.13 | 0.00 | 94 | 1025.0 |
| 20260906051440 | 49 | 130 | 0.0 | 1.7 | 0.00 | 0.13 | 0.00 | 94 | 1025.0 |
| 20260906051200 | 49 | 130 | 0.0 | 0.0 | 0.00 | 0.13 | 0.00 | 94 | 1025.0 |
| 20260906051100 | 49 | 130 | 0.0 | 0.0 | 0.00 | 0.13 | 0.00 | 94 | 1025.0 |
| 20260906051000 | 49 | 130 | 0.0 | 0.0 | 0.00 | 0.13 | 0.00 | 93 | 1025.0 |
| 20260906050900 | 49 | 130 | 0.0 | 0.0 | 0.00 | 0.13 | 0.00 | 93 | 1025.0 |
| 20260906050804 | 49 | 130 | 0.0 | 0.0 | 0.00 | 0.13 | 0.00 | 93 | 1025.0 |
| 20260906050701 | 49 | 130 | 0.0 | 0.0 | 0.00 | 0.13 | 0.00 | 93 | 1025.0 |
| 20260906050602 | 49 | 130 | 0.0 | 0.0 | 0.00 | 0.13 | 0.00 | 93 | 1025.0 |
| 20260906050501 | 49 | 130 | 0.0 | 0.0 | 0.00 | 0.13 | 0.00 | 93 | 1025.0 |
| 20260906050401 | 49 | 130 | 0.0 | 0.0 | 0.00 | 0.13 | 0.00 | 93 | 1025.0 |
| 20260906050303 | 49 | 130 | 0.0 | 0.0 | 0.00 | 0.13 | 0.00 | 93 | 1025.0 |
| 20260906050201 | 49 | 130 | 0.0 | 0.0 | 0.00 | 0.13 | 0.00 | 93 | 1025.0 |
| 20260906050101 | 50 | 130 | 0.0 | 0.0 | 0.00 | 0.13 | 0.00 | 93 | 1025.0 |
| 20260906050000 | 50 | 130 | 0.0 | 0.0 | 0.00 | 0.13 | 0.00 | 93 | 1025.0 |
| 20260906045900 | 50 | 130 | 0.0 | 0.0 | 0.00 | 0.13 | 0.00 | 93 | 1025.0 |
| 20260906045800 | 50 | 130 | 0.0 | 0.0 | 0.00 | 0.13 | 0.00 | 93 | 1025.2 |
| 20260906045729 | 50 | 130 | 0.0 | 0.0 | 0.00 | 0.13 | 0.00 | 94 | 1025.2 |
| 20260906045700 | 50 | 130 | 0.0 | 0.0 | 0.00 | 0.13 | 0.00 | 94 | 1025.2 |
| 20260906045600 | 50 | 130 | 0.0 | 0.0 | 0.00 | 0.13 | 0.00 | 94 | 1025.2 |
| 20260906045458 | 50 | 130 | 0.0 | 0.0 | 0.00 | 0.13 | 0.00 | 94 | 1025.2 |
| 20260906045357 | 50 | 130 | 0.0 | 0.0 | 0.00 | 0.13 | 0.00 | 94 | 1025.2 |
| 20260906045259 | 50 | 130 | 0.0 | 0.0 | 0.00 | 0.13 | 0.00 | 94 | 1025.2 |
| 20260906045229 | 50 | 130 | 0.0 | 0.0 | 0.00 | 0.13 | 0.00 | 94 | 1025.2 |
| 20260906045153 | 50 | 130 | 0.0 | 0.0 | 0.00 | 0.13 | 0.00 | 94 | 1025.2 |
| 20260906045053 | 50 | 130 | 0.0 | 0.0 | 0.00 | 0.13 | 0.00 | 94 | 1025.2 |
| 20260906044951 | 50 | 130 | 0.0 | 0.0 | 0.00 | 0.13 | 0.00 | 94 | 1025.2 |
| 20260906044947 | 50 | 130 | 0.0 | 0.0 | 0.00 | 0.13 | 0.00 | 94 | 1025.2 |
| 20260906044939 | 50 | 130 | 0.0 | 0.0 | 0.00 | 0.13 | 0.00 | 94 | 1025.2 |
| 20260906044651 | 50 | 130 | 0.0 | 0.0 | 0.00 | 0.13 | 0.00 | 94 | 1025.2 |
| 20260906044552 | 50 | 130 | 0.0 | 0.0 | 0.00 | 0.13 | 0.00 | 94 | 1025.2 |
| 20260906044450 | 50 | 130 | 0.0 | 0.0 | 0.00 | 0.13 | 0.00 | 94 | 1025.2 |
| 20260906044349 | 50 | 130 | 0.0 | 0.0 | 0.00 | 0.13 | 0.00 | 94 | 1025.0 |
| 20260906044228 | 50 | 130 | 0.0 | 0.0 | 0.00 | 0.13 | 0.00 | 94 | 1025.0 |
| 20260906044146 | 50 | 130 | 0.0 | 0.0 | 0.00 | 0.13 | 0.00 | 94 | 1025.0 |
| 20260906044046 | 50 | 130 | 0.0 | 0.0 | 0.00 | 0.13 | 0.00 | 94 | 1025.0 |
| 20260906043943 | 50 | 130 | 0.0 | 0.0 | 0.00 | 0.13 | 0.00 | 94 | 1025.0 |
| 20260906043843 | 50 | 130 | 0.0 | 0.0 | 0.00 | 0.13 | 0.00 | 94 | 1025.0 |
| 20260906043729 | 50 | 130 | 0.0 | 0.0 | 0.00 | 0.13 | 0.00 | 94 | 1025.0 |
| 20260906043712 | 51 | 130 | 0.0 | 0.0 | 0.00 | 0.13 | 0.00 | 94 | 1024.9 |
| 20260906043703 | 50 | 130 | 0.0 | 0.0 | 0.00 | 0.13 | 0.00 | 94 | 1025.0 |
| 20260906043659 | 50 | 130 | 0.0 | 0.0 | 0.00 | 0.13 | 0.00 | 94 | 1025.0 |
| 20260906043655 | 50 | 130 | 0.0 | 0.0 | 0.00 | 0.13 | 0.00 | 94 | 1025.0 |
| 20260906043651 | 50 | 130 | 0.0 | 0.0 | 0.00 | 0.13 | 0.00 | 94 | 1025.0 |
| 20260906043643 | 50 | 130 | 0.0 | 0.0 | 0.00 | 0.13 | 0.00 | 94 | 1025.0 |
| 20260906043213 | 50 | 130 | 0.0 | 0.0 | 0.00 | 0.13 | 0.00 | 94 | 1025.0 |
| 20260906043208 | 50 | 130 | 0.0 | 0.0 | 0.00 | 0.13 | 0.00 | 94 | 1025.0 |
| 20260906042953 | 50 | 130 | 0.0 | 0.0 | 0.00 | 0.13 | 0.00 | 94 | 1025.0 |
| 20260906042949 | 50 | 130 | 0.0 | 0.0 | 0.00 | 0.13 | 0.00 | 94 | 1024.9 |
| 20260906042941 | 51 | 130 | 0.0 | 0.0 | 0.00 | 0.13 | 0.00 | 94 | 1024.9 |
| 20260906042629 | 51 | 130 | 0.0 | 0.0 | 0.00 | 0.13 | 0.00 | 94 | 1024.9 |
| 20260906042529 | 51 | 130 | 0.0 | 0.0 | 0.00 | 0.13 | 0.00 | 93 | 1024.9 |
| 20260906042452 | 51 | 130 | 0.0 | 0.0 | 0.00 | 0.13 | 0.00 | 93 | 1024.9 |
| 20260906042448 | 51 | 130 | 0.0 | 0.9 | 0.00 | 0.13 | 0.00 | 94 | 1024.9 |
| 20260906042440 | 51 | 130 | 0.0 | 0.9 | 0.00 | 0.13 | 0.00 | 93 | 1024.9 |
| 20260906042129 | 51 | 130 | 0.0 | 0.9 | 0.00 | 0.13 | 0.00 | 94 | 1024.9 |
| 20260906042029 | 51 | 130 | 0.0 | 0.9 | 0.00 | 0.13 | 0.00 | 94 | 1025.0 |
| 20260906041929 | 51 | 130 | 0.0 | 0.9 | 0.00 | 0.13 | 0.00 | 94 | 1025.0 |
| 20260906041829 | 51 | 130 | 0.0 | 0.9 | 0.00 | 0.13 | 0.00 | 94 | 1025.0 |
| 20260906041729 | 51 | 130 | 0.0 | 0.9 | 0.00 | 0.13 | 0.00 | 94 | 1025.0 |
| 20260906041629 | 51 | 130 | 0.0 | 0.9 | 0.00 | 0.13 | 0.00 | 94 | 1025.0 |
| 20260906041529 | 51 | 130 | 0.0 | 0.9 | 0.00 | 0.13 | 0.00 | 94 | 1025.0 |
| 20260906041429 | 51 | 130 | 0.0 | 0.9 | 0.00 | 0.13 | 0.00 | 94 | 1025.0 |
| 20260906041329 | 51 | 130 | 0.0 | 0.9 | 0.00 | 0.13 | 0.00 | 94 | 1024.9 |
| 20260906041229 | 51 | 130 | 0.0 | 0.9 | 0.00 | 0.13 | 0.00 | 94 | 1024.9 |
| 20260906041129 | 51 | 130 | 0.0 | 0.9 | 0.00 | 0.13 | 0.00 | 94 | 1024.9 |
| 20260906041029 | 51 | 130 | 0.0 | 0.9 | 0.00 | 0.13 | 0.00 | 95 | 1025.0 |
| 20260906040929 | 51 | 130 | 0.0 | 0.9 | 0.00 | 0.13 | 0.00 | 95 | 1024.9 |
| 20260906040829 | 51 | 130 | 0.0 | 0.9 | 0.00 | 0.13 | 0.00 | 95 | 1024.9 |
| 20260906040729 | 51 | 130 | 0.0 | 0.9 | 0.00 | 0.13 | 0.00 | 95 | 1024.9 |
| 20260906040628 | 51 | 130 | 0.0 | 0.9 | 0.00 | 0.13 | 0.00 | 95 | 1024.9 |
| 20260906040528 | 51 | 130 | 0.0 | 0.9 | 0.00 | 0.13 | 0.00 | 95 | 1024.8 |
| 20260906040428 | 51 | 130 | 0.0 | 1.7 | 0.00 | 0.13 | 0.00 | 95 | 1024.8 |
| 20260906040328 | 51 | 130 | 0.0 | 1.7 | 0.00 | 0.13 | 0.00 | 95 | 1024.9 |
| 20260906040228 | 51 | 130 | 0.0 | 1.7 | 0.00 | 0.13 | 0.00 | 95 | 1024.9 |
| 20260906040128 | 51 | 130 | 0.0 | 1.7 | 0.00 | 0.13 | 0.00 | 95 | 1024.9 |
| 20260906040028 | 51 | 130 | 0.0 | 1.7 | 0.00 | 0.13 | 0.00 | 95 | 1024.8 |
| 20260906035953 | 51 | 130 | 0.0 | 1.7 | 0.00 | 0.13 | 0.00 | 95 | 1024.8 |
| 20260906035949 | 51 | 130 | 0.0 | 1.7 | 0.00 | 0.13 | 0.00 | 95 | 1024.8 |
| 20260906035941 | 51 | 130 | 0.0 | 1.7 | 0.00 | 0.13 | 0.00 | 94 | 1024.8 |
| 20260906035630 | 51 | 130 | 0.0 | 1.7 | 0.00 | 0.13 | 0.00 | 95 | 1024.7 |
| 20260906035529 | 51 | 130 | 0.0 | 1.7 | 0.00 | 0.13 | 0.00 | 95 | 1024.7 |
| 20260906035430 | 51 | 130 | 0.0 | 1.7 | 0.00 | 0.13 | 0.00 | 95 | 1024.7 |
| 20260906035329 | 51 | 130 | 0.0 | 1.7 | 0.00 | 0.13 | 0.00 | 94 | 1024.7 |
| 20260906035234 | 51 | 130 | 0.0 | 1.7 | 0.00 | 0.13 | 0.00 | 94 | 1024.7 |
| 20260906035130 | 51 | 130 | 0.0 | 1.7 | 0.00 | 0.13 | 0.00 | 94 | 1024.7 |
| 20260906035030 | 51 | 130 | 0.0 | 1.7 | 0.00 | 0.13 | 0.00 | 94 | 1024.7 |
| 20260906034929 | 51 | 130 | 0.0 | 1.7 | 0.00 | 0.13 | 0.00 | 94 | 1024.7 |
| 20260906034829 | 51 | 130 | 0.0 | 1.7 | 0.00 | 0.13 | 0.00 | 94 | 1024.7 |
| 20260906034730 | 51 | 130 | 0.0 | 1.7 | 0.00 | 0.13 | 0.00 | 94 | 1024.7 |
| 20260906034629 | 51 | 130 | 0.0 | 1.7 | 0.00 | 0.13 | 0.00 | 94 | 1024.7 |
| 20260906034529 | 51 | 130 | 0.0 | 1.7 | 0.00 | 0.13 | 0.00 | 94 | 1024.7 |
| 20260906034429 | 51 | 130 | 0.0 | 1.7 | 0.00 | 0.13 | 0.00 | 94 | 1024.7 |
| 20260906034329 | 51 | 130 | 0.0 | 1.7 | 0.00 | 0.13 | 0.00 | 94 | 1024.7 |
| 20260906034229 | 51 | 130 | 0.0 | 1.7 | 0.00 | 0.13 | 0.00 | 94 | 1024.8 |
| 20260906034129 | 51 | 130 | 0.0 | 1.7 | 0.00 | 0.13 | 0.00 | 94 | 1024.8 |
| 20260906034029 | 51 | 130 | 0.0 | 1.7 | 0.00 | 0.13 | 0.00 | 94 | 1024.8 |
| 20260906033929 | 51 | 130 | 0.0 | 1.7 | 0.00 | 0.13 | 0.00 | 94 | 1024.8 |
| 20260906033829 | 51 | 130 | 0.0 | 1.7 | 0.00 | 0.13 | 0.00 | 94 | 1024.8 |
| 20260906033729 | 51 | 130 | 0.0 | 1.7 | 0.00 | 0.13 | 0.00 | 94 | 1024.8 |
| 20260906033629 | 51 | 130 | 0.0 | 1.7 | 0.00 | 0.13 | 0.00 | 94 | 1024.7 |
| 20260906033529 | 51 | 130 | 0.0 | 1.7 | 0.00 | 0.13 | 0.00 | 94 | 1024.8 |
| 20260906033428 | 51 | 130 | 0.0 | 1.7 | 0.00 | 0.13 | 0.00 | 94 | 1024.8 |
| 20260906033328 | 51 | 130 | 0.0 | 0.0 | 0.00 | 0.13 | 0.00 | 94 | 1024.8 |
| 20260906033228 | 51 | 130 | 0.0 | 0.0 | 0.00 | 0.13 | 0.00 | 94 | 1024.7 |
| 20260906033131 | 51 | 130 | 0.0 | 0.0 | 0.00 | 0.13 | 0.00 | 94 | 1024.8 |
| 20260906033027 | 51 | 130 | 0.0 | 0.0 | 0.00 | 0.13 | 0.00 | 94 | 1024.9 |
| 20260906032925 | 51 | 130 | 0.0 | 0.0 | 0.00 | 0.13 | 0.00 | 94 | 1024.8 |
| 20260906032825 | 51 | 130 | 0.0 | 0.0 | 0.00 | 0.13 | 0.00 | 94 | 1024.8 |
| 20260906032723 | 51 | 130 | 0.0 | 0.0 | 0.00 | 0.13 | 0.00 | 94 | 1024.8 |
| 20260906032623 | 51 | 130 | 0.0 | 0.0 | 0.00 | 0.13 | 0.00 | 94 | 1024.8 |
| 20260906032523 | 51 | 130 | 0.0 | 0.0 | 0.00 | 0.13 | 0.00 | 94 | 1024.8 |
| 20260906032423 | 51 | 130 | 0.0 | 0.0 | 0.00 | 0.13 | 0.00 | 94 | 1024.8 |
| 20260906032323 | 51 | 130 | 0.0 | 0.0 | 0.00 | 0.13 | 0.00 | 94 | 1024.8 |
| 20260906032221 | 51 | 130 | 0.0 | 0.0 | 0.00 | 0.13 | 0.00 | 94 | 1024.8 |
| 20260906032121 | 51 | 130 | 0.0 | 0.0 | 0.00 | 0.13 | 0.00 | 94 | 1024.8 |
| 20260906032019 | 51 | 130 | 0.0 | 0.0 | 0.00 | 0.13 | 0.00 | 94 | 1024.8 |
| 20260906031919 | 51 | 130 | 0.0 | 0.0 | 0.00 | 0.13 | 0.00 | 94 | 1024.8 |
| 20260906031819 | 51 | 130 | 0.0 | 0.0 | 0.00 | 0.13 | 0.00 | 94 | 1024.7 |
| 20260906031729 | 51 | 130 | 0.0 | 0.0 | 0.00 | 0.13 | 0.00 | 94 | 1024.7 |
| 20260906031719 | 51 | 130 | 0.0 | 0.0 | 0.00 | 0.13 | 0.00 | 94 | 1024.8 |
| 20260906031619 | 51 | 130 | 0.0 | 0.0 | 0.00 | 0.13 | 0.00 | 94 | 1024.8 |
| 20260906031519 | 51 | 130 | 0.0 | 0.0 | 0.00 | 0.13 | 0.00 | 93 | 1024.7 |
| 20260906031417 | 51 | 130 | 0.0 | 0.0 | 0.00 | 0.13 | 0.00 | 93 | 1024.8 |
| 20260906031317 | 51 | 130 | 0.0 | 0.0 | 0.00 | 0.13 | 0.00 | 93 | 1024.8 |
| 20260906031217 | 51 | 130 | 0.0 | 0.0 | 0.00 | 0.13 | 0.00 | 93 | 1024.8 |
| 20260906031117 | 51 | 130 | 0.0 | 0.0 | 0.00 | 0.13 | 0.00 | 93 | 1024.7 |
| 20260906031017 | 51 | 130 | 0.0 | 0.0 | 0.00 | 0.13 | 0.00 | 93 | 1024.7 |
| 20260906030915 | 51 | 130 | 0.0 | 0.0 | 0.00 | 0.13 | 0.00 | 93 | 1024.7 |
| 20260906030813 | 51 | 130 | 0.0 | 0.0 | 0.00 | 0.13 | 0.00 | 93 | 1024.7 |
| 20260906030728 | 51 | 130 | 0.0 | 0.0 | 0.00 | 0.13 | 0.00 | 93 | 1024.7 |
| 20260906030713 | 51 | 130 | 0.0 | 0.0 | 0.00 | 0.13 | 0.00 | 93 | 1024.6 |
| 20260906030611 | 51 | 130 | 0.0 | 0.0 | 0.00 | 0.13 | 0.00 | 93 | 1024.7 |
| 20260906030509 | 51 | 130 | 0.0 | 0.0 | 0.00 | 0.13 | 0.00 | 93 | 1024.6 |
| 20260906030409 | 51 | 130 | 0.0 | 0.0 | 0.00 | 0.13 | 0.00 | 93 | 1024.6 |
| 20260906030307 | 51 | 130 | 0.0 | 0.0 | 0.00 | 0.13 | 0.00 | 93 | 1024.6 |
| 20260906030208 | 51 | 130 | 0.0 | 0.0 | 0.00 | 0.13 | 0.00 | 93 | 1024.6 |
| 20260906030105 | 51 | 130 | 0.0 | 0.9 | 0.00 | 0.13 | 0.00 | 93 | 1024.6 |
| 20260906030005 | 51 | 130 | 0.0 | 0.9 | 0.00 | 0.13 | 0.00 | 93 | 1024.5 |
| 20260906025901 | 51 | 130 | 0.0 | 0.9 | 0.00 | 0.13 | 0.00 | 93 | 1024.5 |
| 20260906025801 | 51 | 130 | 0.0 | 0.9 | 0.00 | 0.13 | 0.00 | 93 | 1024.5 |
| 20260906025705 | 51 | 130 | 0.0 | 0.9 | 0.00 | 0.13 | 0.00 | 93 | 1024.5 |
| 20260906025602 | 51 | 130 | 0.0 | 0.9 | 0.00 | 0.13 | 0.00 | 93 | 1024.6 |
| 20260906025502 | 51 | 130 | 0.0 | 0.9 | 0.00 | 0.13 | 0.00 | 93 | 1024.5 |
| 20260906025402 | 51 | 130 | 0.0 | 0.9 | 0.00 | 0.13 | 0.00 | 93 | 1024.5 |
| 20260906025301 | 51 | 130 | 0.0 | 0.9 | 0.00 | 0.13 | 0.00 | 93 | 1024.5 |
| 20260906025229 | 51 | 130 | 0.0 | 0.9 | 0.00 | 0.13 | 0.00 | 93 | 1024.5 |
| 20260906025203 | 51 | 130 | 0.0 | 1.7 | 0.00 | 0.13 | 0.00 | 93 | 1024.6 |
| 20260906025102 | 51 | 130 | 0.0 | 1.7 | 0.00 | 0.13 | 0.00 | 93 | 1024.5 |
| 20260906025001 | 51 | 130 | 0.0 | 1.7 | 0.00 | 0.13 | 0.00 | 93 | 1024.5 |
| 20260906024901 | 51 | 130 | 0.0 | 1.7 | 0.00 | 0.13 | 0.00 | 93 | 1024.6 |
| 20260906024801 | 51 | 130 | 0.9 | 1.7 | 0.00 | 0.13 | 0.00 | 93 | 1024.5 |
| 20260906024701 | 51 | 130 | 0.9 | 1.7 | 0.00 | 0.13 | 0.00 | 93 | 1024.5 |
| 20260906024601 | 51 | 130 | 0.9 | 1.7 | 0.00 | 0.13 | 0.00 | 93 | 1024.5 |
| 20260906024501 | 51 | 130 | 0.9 | 1.7 | 0.00 | 0.13 | 0.00 | 93 | 1024.5 |
| 20260906024401 | 51 | 130 | 0.9 | 1.7 | 0.00 | 0.13 | 0.00 | 93 | 1024.5 |
| 20260906024301 | 51 | 130 | 0.9 | 1.7 | 0.00 | 0.13 | 0.00 | 93 | 1024.5 |
| 20260906024200 | 51 | 130 | 0.9 | 1.7 | 0.00 | 0.13 | 0.00 | 93 | 1024.5 |
| 20260906024100 | 51 | 130 | 0.9 | 1.7 | 0.00 | 0.13 | 0.00 | 93 | 1024.5 |
| 20260906024000 | 51 | 130 | 0.9 | 1.7 | 0.00 | 0.13 | 0.00 | 93 | 1024.5 |
| 20260906023900 | 51 | 130 | 0.9 | 2.6 | 0.00 | 0.13 | 0.00 | 93 | 1024.5 |
| 20260906023800 | 51 | 130 | 0.9 | 2.6 | 0.00 | 0.13 | 0.00 | 94 | 1024.5 |
| 20260906023701 | 51 | 130 | 0.9 | 2.6 | 0.00 | 0.13 | 0.00 | 94 | 1024.5 |
| 20260906023600 | 51 | 130 | 0.9 | 2.6 | 0.00 | 0.13 | 0.00 | 93 | 1024.5 |
| 20260906023500 | 51 | 130 | 0.9 | 2.6 | 0.00 | 0.13 | 0.00 | 94 | 1024.5 |
| 20260906023400 | 51 | 130 | 0.9 | 2.6 | 0.00 | 0.13 | 0.00 | 93 | 1024.5 |
| 20260906023300 | 51 | 130 | 0.9 | 2.6 | 0.00 | 0.13 | 0.00 | 93 | 1024.5 |
| 20260906023228 | 51 | 130 | 0.9 | 2.6 | 0.00 | 0.13 | 0.00 | 93 | 1024.5 |
| 20260906023201 | 51 | 130 | 0.9 | 2.6 | 0.00 | 0.13 | 0.00 | 93 | 1024.6 |
| 20260906023101 | 51 | 130 | 0.0 | 2.6 | 0.00 | 0.13 | 0.00 | 93 | 1024.5 |
| 20260906023001 | 51 | 128 | 0.0 | 2.6 | 0.00 | 0.13 | 0.00 | 93 | 1024.5 |
| 20260906022949 | 51 | 126 | 0.0 | 1.7 | 0.00 | 0.13 | 0.00 | 93 | 1024.5 |
| 20260906022944 | 51 | 127 | 0.0 | 0.9 | 0.00 | 0.13 | 0.00 | 93 | 1024.5 |
| 20260906022940 | 51 | 128 | 0.0 | 1.7 | 0.00 | 0.13 | 0.00 | 93 | 1024.5 |
| 20260906022701 | 51 | 126 | 0.0 | 1.7 | 0.00 | 0.13 | 0.00 | 93 | 1024.5 |
| 20260906022601 | 51 | 126 | 0.0 | 1.7 | 0.00 | 0.13 | 0.00 | 93 | 1024.6 |
| 20260906022501 | 51 | 126 | 0.9 | 1.7 | 0.00 | 0.13 | 0.00 | 93 | 1024.6 |
| 20260906022401 | 51 | 126 | 0.9 | 2.6 | 0.00 | 0.13 | 0.00 | 93 | 1024.6 |
| 20260906022301 | 51 | 126 | 0.9 | 2.6 | 0.00 | 0.13 | 0.00 | 92 | 1024.6 |
| 20260906022201 | 51 | 126 | 0.9 | 2.6 | 0.00 | 0.13 | 0.00 | 92 | 1024.6 |
| 20260906022101 | 51 | 126 | 0.9 | 2.6 | 0.00 | 0.13 | 0.00 | 92 | 1024.6 |
| 20260906022001 | 51 | 126 | 0.9 | 2.6 | 0.00 | 0.13 | 0.00 | 92 | 1024.5 |
| 20260906021901 | 51 | 126 | 0.9 | 2.6 | 0.00 | 0.13 | 0.00 | 92 | 1024.6 |
| 20260906021801 | 51 | 126 | 0.9 | 2.6 | 0.00 | 0.13 | 0.00 | 92 | 1024.5 |
| 20260906021729 | 51 | 126 | 0.9 | 2.6 | 0.00 | 0.13 | 0.00 | 92 | 1024.5 |
| 20260906021701 | 51 | 126 | 0.0 | 2.6 | 0.00 | 0.13 | 0.00 | 92 | 1024.6 |
| 20260906021600 | 51 | 126 | 0.0 | 2.6 | 0.00 | 0.13 | 0.00 | 92 | 1024.7 |
| 20260906021500 | 51 | 127 | 0.0 | 2.6 | 0.00 | 0.13 | 0.00 | 92 | 1024.6 |
| 20260906021401 | 51 | 134 | 0.0 | 1.7 | 0.00 | 0.13 | 0.00 | 92 | 1024.6 |
| 20260906021301 | 51 | 134 | 0.0 | 1.7 | 0.00 | 0.13 | 0.00 | 92 | 1024.7 |
| 20260906021228 | 51 | 134 | 0.0 | 1.7 | 0.00 | 0.13 | 0.00 | 92 | 1024.7 |
| 20260906021201 | 51 | 135 | 0.0 | 0.9 | 0.00 | 0.13 | 0.00 | 92 | 1024.6 |
| 20260906021101 | 51 | 135 | 0.0 | 0.9 | 0.00 | 0.13 | 0.00 | 92 | 1024.6 |
| 20260906021001 | 51 | 135 | 0.0 | 0.9 | 0.00 | 0.13 | 0.00 | 92 | 1024.6 |
| 20260906020901 | 51 | 135 | 0.0 | 0.9 | 0.00 | 0.13 | 0.00 | 92 | 1024.6 |
| 20260906020801 | 51 | 135 | 0.0 | 0.9 | 0.00 | 0.13 | 0.00 | 91 | 1024.6 |
| 20260906020700 | 51 | 135 | 0.0 | 0.9 | 0.00 | 0.13 | 0.00 | 91 | 1024.6 |
| 20260906020600 | 51 | 135 | 0.0 | 1.7 | 0.00 | 0.13 | 0.00 | 91 | 1024.7 |
| 20260906020500 | 51 | 135 | 0.0 | 1.7 | 0.00 | 0.13 | 0.00 | 91 | 1024.6 |
| 20260906020400 | 51 | 135 | 0.0 | 1.7 | 0.00 | 0.13 | 0.00 | 91 | 1024.6 |
| 20260906020300 | 51 | 135 | 0.0 | 1.7 | 0.00 | 0.13 | 0.00 | 91 | 1024.6 |
| 20260906020201 | 51 | 135 | 0.0 | 1.7 | 0.00 | 0.13 | 0.00 | 91 | 1024.6 |
| 20260906020059 | 51 | 135 | 0.0 | 1.7 | 0.00 | 0.13 | 0.00 | 91 | 1024.6 |
| 20260906015959 | 51 | 135 | 0.0 | 1.7 | 0.00 | 0.13 | 0.00 | 91 | 1024.6 |
| 20260906015859 | 51 | 135 | 0.0 | 1.7 | 0.00 | 0.13 | 0.00 | 91 | 1024.6 |
| 20260906015729 | 52 | 135 | 0.0 | 1.7 | 0.00 | 0.13 | 0.00 | 92 | 1024.6 |
| 20260906015659 | 52 | 135 | 0.0 | 1.7 | 0.00 | 0.13 | 0.00 | 92 | 1024.6 |
| 20260906015559 | 52 | 134 | 0.0 | 1.7 | 0.00 | 0.13 | 0.00 | 92 | 1024.6 |
| 20260906015458 | 52 | 135 | 0.0 | 0.0 | 0.00 | 0.13 | 0.00 | 92 | 1024.6 |
| 20260906015359 | 52 | 134 | 0.0 | 0.0 | 0.00 | 0.13 | 0.00 | 91 | 1024.6 |
| 20260906015229 | 52 | 134 | 0.0 | 0.0 | 0.00 | 0.13 | 0.00 | 91 | 1024.6 |
| 20260906015157 | 52 | 134 | 0.0 | 0.0 | 0.00 | 0.13 | 0.00 | 91 | 1024.6 |
| 20260906015055 | 52 | 134 | 0.0 | 0.0 | 0.00 | 0.13 | 0.00 | 91 | 1024.6 |
| 20260906014953 | 52 | 134 | 0.0 | 0.0 | 0.00 | 0.13 | 0.00 | 91 | 1024.6 |
| 20260906014853 | 52 | 134 | 0.0 | 0.0 | 0.00 | 0.13 | 0.00 | 91 | 1024.6 |
| 20260906014729 | 52 | 134 | 0.0 | 0.0 | 0.00 | 0.13 | 0.00 | 91 | 1024.6 |
| 20260906014651 | 52 | 134 | 0.0 | 0.0 | 0.00 | 0.13 | 0.00 | 91 | 1024.6 |
| 20260906014549 | 52 | 134 | 0.0 | 0.0 | 0.00 | 0.13 | 0.00 | 92 | 1024.6 |
| 20260906014447 | 52 | 134 | 0.0 | 0.0 | 0.00 | 0.13 | 0.00 | 92 | 1024.6 |
| 20260906014344 | 52 | 134 | 0.0 | 0.0 | 0.00 | 0.13 | 0.00 | 92 | 1024.6 |
| 20260906014229 | 52 | 134 | 0.0 | 0.0 | 0.00 | 0.13 | 0.00 | 92 | 1024.6 |
| 20260906014145 | 52 | 134 | 0.0 | 0.0 | 0.00 | 0.13 | 0.00 | 92 | 1024.6 |
| 20260906014043 | 52 | 134 | 0.0 | 0.0 | 0.00 | 0.13 | 0.00 | 92 | 1024.6 |
| 20260906013940 | 52 | 134 | 0.0 | 0.0 | 0.00 | 0.13 | 0.00 | 92 | 1024.5 |
| 20260906013841 | 52 | 134 | 0.0 | 0.0 | 0.00 | 0.13 | 0.00 | 92 | 1024.5 |
| 20260906013727 | 52 | 134 | 0.0 | 0.0 | 0.00 | 0.13 | 0.00 | 92 | 1024.4 |
| 20260906013639 | 52 | 134 | 0.0 | 0.0 | 0.00 | 0.13 | 0.00 | 92 | 1024.4 |
| 20260906013537 | 52 | 134 | 0.0 | 0.0 | 0.00 | 0.13 | 0.00 | 92 | 1024.4 |
| 20260906013435 | 52 | 134 | 0.0 | 0.0 | 0.00 | 0.13 | 0.00 | 92 | 1024.4 |
| 20260906013335 | 52 | 134 | 0.0 | 0.0 | 0.00 | 0.13 | 0.00 | 92 | 1024.4 |
| 20260906013226 | 52 | 134 | 0.0 | 0.0 | 0.00 | 0.13 | 0.00 | 92 | 1024.4 |
| 20260906013130 | 52 | 134 | 0.0 | 0.0 | 0.00 | 0.13 | 0.00 | 92 | 1024.4 |
| 20260906013030 | 52 | 134 | 0.0 | 0.0 | 0.00 | 0.13 | 0.00 | 92 | 1024.4 |
| 20260906012946 | 52 | 134 | 0.0 | 0.0 | 0.00 | 0.13 | 0.00 | 92 | 1024.4 |
| 20260906012942 | 52 | 134 | 0.0 | 0.0 | 0.00 | 0.13 | 0.00 | 92 | 1024.3 |
| 20260906012938 | 52 | 134 | 0.0 | 0.0 | 0.00 | 0.13 | 0.00 | 92 | 1024.4 |
| 20260906012629 | 52 | 134 | 0.0 | 0.0 | 0.00 | 0.13 | 0.00 | 92 | 1024.4 |
| 20260906012529 | 52 | 134 | 0.0 | 0.0 | 0.00 | 0.13 | 0.00 | 92 | 1024.4 |
| 20260906012429 | 52 | 134 | 0.0 | 0.0 | 0.00 | 0.13 | 0.00 | 92 | 1024.4 |
| 20260906012329 | 52 | 134 | 0.0 | 0.0 | 0.00 | 0.13 | 0.00 | 92 | 1024.4 |
| 20260906012225 | 52 | 134 | 0.0 | 0.0 | 0.00 | 0.13 | 0.00 | 92 | 1024.4 |
| 20260906012129 | 52 | 134 | 0.0 | 0.0 | 0.00 | 0.13 | 0.00 | 92 | 1024.4 |
| 20260906012029 | 52 | 134 | 0.0 | 0.0 | 0.00 | 0.13 | 0.00 | 92 | 1024.4 |
| 20260906011929 | 52 | 134 | 0.0 | 0.0 | 0.00 | 0.13 | 0.00 | 92 | 1024.4 |
| 20260906011829 | 52 | 134 | 0.0 | 0.0 | 0.00 | 0.13 | 0.00 | 92 | 1024.4 |
| 20260906011722 | 52 | 134 | 0.0 | 0.0 | 0.00 | 0.13 | 0.00 | 91 | 1024.4 |
| 20260906011628 | 52 | 134 | 0.0 | 0.0 | 0.00 | 0.13 | 0.00 | 92 | 1024.4 |
| 20260906011529 | 52 | 134 | 0.0 | 0.0 | 0.00 | 0.13 | 0.00 | 92 | 1024.4 |
| 20260906011429 | 52 | 134 | 0.0 | 0.0 | 0.00 | 0.13 | 0.00 | 91 | 1024.4 |
| 20260906011328 | 52 | 134 | 0.0 | 0.0 | 0.00 | 0.13 | 0.00 | 91 | 1024.4 |
| 20260906011221 | 52 | 134 | 0.0 | 0.0 | 0.00 | 0.13 | 0.00 | 91 | 1024.4 |
| 20260906011128 | 52 | 134 | 0.0 | 0.0 | 0.00 | 0.13 | 0.00 | 91 | 1024.4 |
| 20260906011029 | 52 | 134 | 0.0 | 0.0 | 0.00 | 0.13 | 0.00 | 91 | 1024.4 |
| 20260906010929 | 52 | 134 | 0.0 | 0.0 | 0.00 | 0.13 | 0.00 | 91 | 1024.4 |
| 20260906010829 | 52 | 134 | 0.0 | 0.0 | 0.00 | 0.13 | 0.00 | 91 | 1024.4 |
| 20260906010729 | 52 | 134 | 0.0 | 0.0 | 0.00 | 0.13 | 0.00 | 91 | 1024.3 |
| 20260906010718 | 52 | 134 | 0.0 | 0.0 | 0.00 | 0.13 | 0.00 | 91 | 1024.4 |
| 20260906010628 | 52 | 134 | 0.0 | 0.0 | 0.00 | 0.13 | 0.00 | 91 | 1024.4 |
| 20260906010528 | 52 | 134 | 0.0 | 0.0 | 0.00 | 0.13 | 0.00 | 91 | 1024.4 |
| 20260906010428 | 52 | 134 | 0.0 | 0.0 | 0.00 | 0.13 | 0.00 | 91 | 1024.4 |
| 20260906010328 | 53 | 134 | 0.0 | 0.0 | 0.00 | 0.13 | 0.00 | 91 | 1024.4 |
| 20260906010228 | 52 | 134 | 0.0 | 0.0 | 0.00 | 0.13 | 0.00 | 91 | 1024.4 |
| 20260906010219 | 52 | 134 | 0.0 | 0.9 | 0.00 | 0.13 | 0.00 | 91 | 1024.4 |
| 20260906010129 | 53 | 134 | 0.0 | 0.9 | 0.00 | 0.13 | 0.00 | 91 | 1024.4 |
| 20260906010030 | 53 | 134 | 0.0 | 0.9 | 0.00 | 0.13 | 0.00 | 91 | 1024.4 |
| 20260906005930 | 53 | 134 | 0.0 | 0.9 | 0.00 | 0.13 | 0.00 | 91 | 1024.4 |
| 20260906005828 | 53 | 134 | 0.0 | 0.9 | 0.00 | 0.13 | 0.00 | 91 | 1024.4 |
| 20260906005719 | 53 | 134 | 0.0 | 0.9 | 0.00 | 0.13 | 0.00 | 91 | 1024.4 |
| 20260906005629 | 53 | 134 | 0.0 | 0.9 | 0.00 | 0.13 | 0.00 | 91 | 1024.4 |
| 20260906005529 | 53 | 134 | 0.0 | 0.9 | 0.00 | 0.13 | 0.00 | 91 | 1024.4 |
| 20260906005429 | 53 | 134 | 0.0 | 0.9 | 0.00 | 0.13 | 0.00 | 91 | 1024.4 |
| 20260906005329 | 53 | 134 | 0.0 | 0.9 | 0.00 | 0.13 | 0.00 | 91 | 1024.4 |
| 20260906005218 | 53 | 134 | 0.0 | 0.9 | 0.00 | 0.13 | 0.00 | 91 | 1024.4 |
| 20260906005128 | 53 | 134 | 0.0 | 0.9 | 0.00 | 0.13 | 0.00 | 91 | 1024.4 |
| 20260906005029 | 53 | 134 | 0.0 | 0.9 | 0.00 | 0.13 | 0.00 | 90 | 1024.4 |
| 20260906004936 | 53 | 134 | 0.0 | 0.9 | 0.00 | 0.13 | 0.00 | 90 | 1024.5 |
| 20260906004931 | 53 | 134 | 0.0 | 0.9 | 0.00 | 0.13 | 0.00 | 90 | 1024.4 |
| 20260906004927 | 53 | 134 | 0.0 | 0.9 | 0.00 | 0.13 | 0.00 | 90 | 1024.4 |
| 20260906004923 | 53 | 134 | 0.0 | 0.9 | 0.00 | 0.13 | 0.00 | 90 | 1024.4 |
| 20260906004628 | 53 | 134 | 0.0 | 0.9 | 0.00 | 0.13 | 0.00 | 90 | 1024.5 |
| 20260906004532 | 53 | 134 | 0.0 | 1.7 | 0.00 | 0.13 | 0.00 | 90 | 1024.4 |
| 20260906004432 | 53 | 134 | 0.0 | 2.6 | 0.00 | 0.13 | 0.00 | 90 | 1024.4 |
| 20260906004428 | 53 | 134 | 0.9 | 3.5 | 0.00 | 0.13 | 0.00 | 90 | 1024.4 |
| 20260906004424 | 53 | 134 | 0.9 | 3.5 | 0.00 | 0.13 | 0.00 | 90 | 1024.4 |
| 20260906004129 | 53 | 134 | 0.9 | 3.5 | 0.00 | 0.13 | 0.00 | 90 | 1024.4 |
| 20260906004030 | 53 | 134 | 1.7 | 4.3 | 0.00 | 0.13 | 0.00 | 90 | 1024.4 |
| 20260906003929 | 53 | 134 | 1.7 | 4.3 | 0.00 | 0.13 | 0.00 | 90 | 1024.5 |
| 20260906003829 | 53 | 134 | 1.7 | 4.3 | 0.00 | 0.13 | 0.00 | 90 | 1024.5 |
| 20260906003729 | 53 | 134 | 1.7 | 4.3 | 0.00 | 0.13 | 0.00 | 90 | 1024.4 |
| 20260906003710 | 53 | 134 | 1.7 | 4.3 | 0.00 | 0.13 | 0.00 | 90 | 1024.5 |
| 20260906003629 | 53 | 134 | 1.7 | 4.3 | 0.00 | 0.13 | 0.00 | 90 | 1024.5 |
| 20260906003528 | 53 | 134 | 0.9 | 4.3 | 0.00 | 0.13 | 0.00 | 90 | 1024.5 |
| 20260906003429 | 53 | 134 | 0.9 | 4.3 | 0.00 | 0.13 | 0.00 | 90 | 1024.4 |
| 20260906003328 | 53 | 138 | 0.9 | 4.3 | 0.00 | 0.13 | 0.00 | 90 | 1024.5 |
| 20260906003228 | 53 | 139 | 0.9 | 4.3 | 0.00 | 0.13 | 0.00 | 90 | 1024.4 |
| 20260906003209 | 53 | 140 | 0.0 | 4.3 | 0.00 | 0.13 | 0.00 | 90 | 1024.5 |
| 20260906003129 | 53 | 139 | 0.0 | 4.3 | 0.00 | 0.13 | 0.00 | 91 | 1024.5 |
| 20260906003029 | 53 | 198 | 0.0 | 1.7 | 0.00 | 0.13 | 0.00 | 91 | 1024.4 |
| 20260906002929 | 53 | 198 | 0.0 | 0.0 | 0.00 | 0.13 | 0.00 | 91 | 1024.4 |
| 20260906002925 | 53 | 198 | 0.0 | 0.0 | 0.00 | 0.13 | 0.00 | 91 | 1024.4 |
| 20260906002921 | 53 | 198 | 0.0 | 0.0 | 0.00 | 0.13 | 0.00 | 91 | 1024.4 |
| 20260906002630 | 53 | 198 | 0.0 | 0.0 | 0.00 | 0.13 | 0.00 | 91 | 1024.4 |
| 20260906002529 | 53 | 198 | 0.0 | 0.0 | 0.00 | 0.13 | 0.00 | 90 | 1024.4 |
| 20260906002429 | 53 | 198 | 0.0 | 0.0 | 0.00 | 0.13 | 0.00 | 90 | 1024.4 |
| 20260906002328 | 53 | 198 | 0.0 | 0.0 | 0.00 | 0.13 | 0.00 | 90 | 1024.4 |
| 20260906002228 | 53 | 198 | 0.0 | 0.0 | 0.00 | 0.13 | 0.00 | 90 | 1024.4 |
| 20260906002209 | 53 | 198 | 0.0 | 0.0 | 0.00 | 0.13 | 0.00 | 90 | 1024.5 |
| 20260906002128 | 53 | 198 | 0.0 | 0.0 | 0.00 | 0.13 | 0.00 | 90 | 1024.5 |
| 20260906002029 | 54 | 198 | 0.0 | 0.0 | 0.00 | 0.13 | 0.00 | 90 | 1024.4 |
| 20260906001929 | 54 | 198 | 0.0 | 0.0 | 0.00 | 0.13 | 0.00 | 90 | 1024.4 |
| 20260906001829 | 54 | 198 | 0.0 | 0.0 | 0.00 | 0.13 | 0.00 | 90 | 1024.4 |
| 20260906001709 | 54 | 198 | 0.0 | 0.0 | 0.00 | 0.13 | 0.00 | 90 | 1024.4 |
| 20260906001628 | 54 | 198 | 0.0 | 0.0 | 0.00 | 0.13 | 0.00 | 90 | 1024.4 |
| 20260906001529 | 54 | 198 | 0.0 | 0.0 | 0.00 | 0.13 | 0.00 | 90 | 1024.3 |
| 20260906001429 | 54 | 198 | 0.0 | 0.0 | 0.00 | 0.13 | 0.00 | 90 | 1024.3 |
| 20260906001329 | 54 | 198 | 0.0 | 0.0 | 0.00 | 0.13 | 0.00 | 90 | 1024.4 |
| 20260906001209 | 54 | 198 | 0.0 | 0.0 | 0.00 | 0.13 | 0.00 | 90 | 1024.3 |
| 20260906001129 | 54 | 198 | 0.0 | 0.0 | 0.00 | 0.13 | 0.00 | 90 | 1024.3 |
| 20260906001029 | 54 | 198 | 0.0 | 0.0 | 0.00 | 0.13 | 0.00 | 90 | 1024.4 |
| 20260906000928 | 54 | 198 | 0.0 | 0.0 | 0.00 | 0.13 | 0.00 | 90 | 1024.3 |
| 20260906000828 | 54 | 198 | 0.0 | 0.0 | 0.00 | 0.13 | 0.00 | 90 | 1024.3 |
| 20260906000709 | 54 | 198 | 0.0 | 0.0 | 0.00 | 0.13 | 0.00 | 90 | 1024.3 |
| 20260906000629 | 54 | 198 | 0.0 | 0.0 | 0.00 | 0.13 | 0.00 | 90 | 1024.3 |
| 20260906000529 | 54 | 198 | 0.0 | 0.0 | 0.00 | 0.13 | 0.00 | 90 | 1024.3 |
| 20260906000429 | 54 | 198 | 0.0 | 0.0 | 0.00 | 0.13 | 0.00 | 90 | 1024.2 |
| 20260906000329 | 54 | 198 | 0.0 | 0.0 | 0.00 | 0.13 | 0.00 | 90 | 1024.2 |
| 20260906000208 | 54 | 198 | 0.0 | 0.0 | 0.00 | 0.13 | 0.00 | 90 | 1024.2 |
| 20260906000129 | 54 | 198 | 0.0 | 0.0 | 0.00 | 0.13 | 0.00 | 90 | 1024.2 |
| 20260906000029 | 54 | 198 | 0.0 | 0.0 | 0.00 | 0.13 | 0.00 | 90 | 1024.3 |
| 20260905235929 | 54 | 198 | 0.0 | 0.0 | 0.00 | 0.13 | 0.00 | 90 | 1024.3 |
| 20260905235825 | 54 | 198 | 0.0 | 0.0 | 0.00 | 0.13 | 0.00 | 90 | 1024.3 |
| 20260905235707 | 54 | 198 | 0.0 | 0.0 | 0.00 | 0.13 | 0.00 | 90 | 1024.3 |
| 20260905235622 | 54 | 198 | 0.0 | 0.0 | 0.00 | 0.13 | 0.00 | 90 | 1024.3 |
| 20260905235522 | 54 | 198 | 0.0 | 0.0 | 0.00 | 0.13 | 0.00 | 90 | 1024.3 |
| 20260905235420 | 54 | 198 | 0.0 | 0.0 | 0.00 | 0.13 | 0.00 | 90 | 1024.3 |
| 20260905235317 | 54 | 198 | 0.0 | 0.0 | 0.00 | 0.13 | 0.00 | 90 | 1024.3 |
| 20260905235207 | 54 | 198 | 0.0 | 0.0 | 0.00 | 0.13 | 0.00 | 90 | 1024.3 |
| 20260905235117 | 54 | 198 | 0.0 | 0.0 | 0.00 | 0.13 | 0.00 | 90 | 1024.4 |
| 20260905235017 | 54 | 198 | 0.0 | 0.0 | 0.00 | 0.13 | 0.00 | 90 | 1024.3 |
| 20260905234917 | 54 | 198 | 0.0 | 0.0 | 0.00 | 0.13 | 0.00 | 90 | 1024.3 |
| 20260905234817 | 54 | 198 | 0.0 | 0.0 | 0.00 | 0.13 | 0.00 | 90 | 1024.3 |
| 20260905234706 | 54 | 198 | 0.0 | 0.0 | 0.00 | 0.13 | 0.00 | 90 | 1024.4 |
| 20260905234615 | 54 | 198 | 0.0 | 0.0 | 0.00 | 0.13 | 0.00 | 90 | 1024.4 |
| 20260905234516 | 54 | 198 | 0.0 | 0.0 | 0.00 | 0.13 | 0.00 | 90 | 1024.4 |
| 20260905234412 | 54 | 198 | 0.0 | 0.0 | 0.00 | 0.13 | 0.00 | 90 | 1024.4 |
| 20260905234312 | 55 | 198 | 0.0 | 0.0 | 0.00 | 0.13 | 0.00 | 90 | 1024.4 |
| 20260905234206 | 55 | 198 | 0.0 | 0.0 | 0.00 | 0.13 | 0.00 | 90 | 1024.4 |
| 20260905234111 | 55 | 198 | 0.0 | 0.0 | 0.00 | 0.13 | 0.00 | 90 | 1024.4 |
| 20260905234011 | 55 | 198 | 0.0 | 0.0 | 0.00 | 0.13 | 0.00 | 90 | 1024.5 |
| 20260905233911 | 55 | 198 | 0.0 | 0.0 | 0.00 | 0.13 | 0.00 | 90 | 1024.4 |
| 20260905233811 | 55 | 198 | 0.0 | 0.0 | 0.00 | 0.13 | 0.00 | 90 | 1024.5 |
| 20260905233707 | 55 | 198 | 0.0 | 0.0 | 0.00 | 0.13 | 0.00 | 90 | 1024.4 |
| 20260905233611 | 55 | 198 | 0.0 | 0.0 | 0.00 | 0.13 | 0.00 | 90 | 1024.4 |
| 20260905233510 | 55 | 198 | 0.0 | 0.0 | 0.00 | 0.13 | 0.00 | 90 | 1024.5 |
| 20260905233411 | 55 | 198 | 0.0 | 0.0 | 0.00 | 0.13 | 0.00 | 90 | 1024.5 |
| 20260905233310 | 55 | 198 | 0.0 | 0.0 | 0.00 | 0.13 | 0.00 | 90 | 1024.4 |
| 20260905233202 | 55 | 198 | 0.0 | 0.0 | 0.00 | 0.13 | 0.00 | 90 | 1024.4 |
| 20260905233110 | 55 | 198 | 0.0 | 0.0 | 0.00 | 0.13 | 0.00 | 90 | 1024.4 |
| 20260905232906 | 55 | 198 | 0.0 | 0.0 | 0.00 | 0.13 | 0.00 | 90 | 1024.4 |
| 20260905232806 | 55 | 198 | 0.0 | 0.0 | 0.00 | 0.13 | 0.00 | 89 | 1024.4 |
| 20260905232703 | 55 | 198 | 0.0 | 0.0 | 0.00 | 0.13 | 0.00 | 89 | 1024.4 |
| 20260905232607 | 55 | 198 | 0.0 | 0.0 | 0.00 | 0.13 | 0.00 | 89 | 1024.4 |
| 20260905232507 | 55 | 198 | 0.0 | 0.0 | 0.00 | 0.13 | 0.00 | 89 | 1024.4 |
| 20260905232407 | 55 | 198 | 0.0 | 0.0 | 0.00 | 0.13 | 0.00 | 89 | 1024.4 |
| 20260905232306 | 55 | 198 | 0.0 | 0.0 | 0.00 | 0.13 | 0.00 | 89 | 1024.4 |
| 20260905232202 | 55 | 198 | 0.0 | 0.0 | 0.00 | 0.13 | 0.00 | 89 | 1024.4 |
| 20260905232106 | 55 | 198 | 0.0 | 0.0 | 0.00 | 0.13 | 0.00 | 89 | 1024.4 |
| 20260905232007 | 55 | 198 | 0.0 | 0.0 | 0.00 | 0.13 | 0.00 | 89 | 1024.4 |
| 20260905231906 | 55 | 198 | 0.0 | 0.0 | 0.00 | 0.13 | 0.00 | 89 | 1024.4 |
| 20260905231806 | 55 | 198 | 0.0 | 0.0 | 0.00 | 0.13 | 0.00 | 89 | 1024.4 |
| 20260905231703 | 55 | 198 | 0.0 | 0.0 | 0.00 | 0.13 | 0.00 | 89 | 1024.4 |
| 20260905231607 | 55 | 198 | 0.0 | 0.0 | 0.00 | 0.13 | 0.00 | 89 | 1024.4 |
| 20260905231507 | 55 | 198 | 0.0 | 0.0 | 0.00 | 0.13 | 0.00 | 89 | 1024.5 |
| 20260905231407 | 55 | 198 | 0.0 | 0.0 | 0.00 | 0.13 | 0.00 | 89 | 1024.4 |
| 20260905231307 | 55 | 198 | 0.0 | 0.0 | 0.00 | 0.13 | 0.00 | 89 | 1024.4 |
| 20260905231203 | 55 | 198 | 0.0 | 0.0 | 0.00 | 0.13 | 0.00 | 89 | 1024.4 |
| 20260905231107 | 55 | 198 | 0.0 | 0.0 | 0.00 | 0.13 | 0.00 | 89 | 1024.4 |
| 20260905231003 | 56 | 198 | 0.0 | 0.0 | 0.00 | 0.13 | 0.00 | 89 | 1024.5 |
| 20260905230903 | 56 | 198 | 0.0 | 0.0 | 0.00 | 0.13 | 0.00 | 89 | 1024.5 |
| 20260905230803 | 56 | 198 | 0.0 | 0.0 | 0.00 | 0.13 | 0.00 | 89 | 1024.5 |
| 20260905230702 | 56 | 198 | 0.0 | 0.0 | 0.00 | 0.13 | 0.00 | 89 | 1024.5 |
| 20260905230602 | 56 | 198 | 0.0 | 0.0 | 0.00 | 0.13 | 0.00 | 90 | 1024.5 |
| 20260905230502 | 56 | 198 | 0.0 | 0.0 | 0.00 | 0.13 | 0.00 | 90 | 1024.5 |
| 20260905230402 | 56 | 198 | 0.0 | 0.0 | 0.00 | 0.13 | 0.00 | 91 | 1024.5 |
| 20260905230302 | 56 | 198 | 0.0 | 0.0 | 0.00 | 0.13 | 0.00 | 91 | 1024.5 |
| 20260905230201 | 56 | 198 | 0.0 | 0.0 | 0.00 | 0.13 | 0.00 | 91 | 1024.5 |
| 20260905230100 | 56 | 198 | 0.0 | 0.0 | 0.00 | 0.13 | 0.00 | 90 | 1024.5 |
| 20260905230001 | 56 | 198 | 0.0 | 0.0 | 0.00 | 0.13 | 0.00 | 91 | 1024.5 |
| 20260905225901 | 56 | 198 | 0.0 | 0.9 | 0.00 | 0.13 | 0.00 | 91 | 1024.5 |
| 20260905225801 | 56 | 198 | 0.0 | 0.9 | 0.00 | 0.13 | 0.00 | 91 | 1024.5 |
| 20260905225702 | 56 | 198 | 0.0 | 0.9 | 0.00 | 0.13 | 0.00 | 90 | 1024.5 |
| 20260905225601 | 56 | 198 | 0.0 | 0.9 | 0.00 | 0.13 | 0.00 | 90 | 1024.5 |
| 20260905225501 | 56 | 198 | 0.0 | 1.7 | 0.00 | 0.13 | 0.00 | 91 | 1024.5 |
| 20260905225401 | 56 | 198 | 0.0 | 1.7 | 0.00 | 0.13 | 0.00 | 90 | 1024.5 |
| 20260905225301 | 56 | 198 | 0.0 | 1.7 | 0.00 | 0.13 | 0.00 | 90 | 1024.5 |
| 20260905225201 | 56 | 198 | 0.0 | 1.7 | 0.00 | 0.13 | 0.00 | 91 | 1024.5 |
| 20260905225101 | 56 | 198 | 0.0 | 1.7 | 0.00 | 0.13 | 0.00 | 91 | 1024.5 |
| 20260905225000 | 56 | 198 | 0.0 | 1.7 | 0.00 | 0.13 | 0.00 | 91 | 1024.5 |
| 20260905224900 | 56 | 198 | 0.0 | 1.7 | 0.00 | 0.13 | 0.00 | 90 | 1024.5 |
| 20260905224800 | 56 | 198 | 0.0 | 1.7 | 0.00 | 0.13 | 0.00 | 90 | 1024.5 |
| 20260905224700 | 56 | 198 | 0.0 | 1.7 | 0.00 | 0.13 | 0.00 | 90 | 1024.5 |
| 20260905224601 | 56 | 198 | 0.0 | 1.7 | 0.00 | 0.13 | 0.00 | 90 | 1024.4 |
| 20260905224501 | 56 | 198 | 0.0 | 1.7 | 0.00 | 0.13 | 0.00 | 90 | 1024.5 |
| 20260905224401 | 56 | 198 | 0.0 | 1.7 | 0.00 | 0.13 | 0.00 | 90 | 1024.4 |
| 20260905224300 | 56 | 198 | 0.0 | 1.7 | 0.00 | 0.13 | 0.00 | 90 | 1024.4 |
| 20260905224201 | 56 | 198 | 0.0 | 1.7 | 0.00 | 0.13 | 0.00 | 90 | 1024.4 |
| 20260905224101 | 56 | 198 | 0.0 | 1.7 | 0.00 | 0.13 | 0.00 | 89 | 1024.4 |
| 20260905224001 | 56 | 198 | 0.0 | 1.7 | 0.00 | 0.13 | 0.00 | 89 | 1024.4 |
| 20260905223920 | 56 | 198 | 0.0 | 1.7 | 0.00 | 0.13 | 0.00 | 89 | 1024.4 |
| 20260905223916 | 56 | 198 | 0.0 | 1.7 | 0.00 | 0.13 | 0.00 | 89 | 1024.4 |
| 20260905223912 | 56 | 213 | 0.0 | 1.7 | 0.00 | 0.13 | 0.00 | 89 | 1024.4 |
| 20260905223600 | 56 | 217 | 0.0 | 1.7 | 0.00 | 0.13 | 0.00 | 89 | 1024.4 |
| 20260905223500 | 56 | 217 | 0.0 | 1.7 | 0.00 | 0.13 | 0.00 | 89 | 1024.4 |
| 20260905223401 | 56 | 217 | 0.0 | 1.7 | 0.00 | 0.13 | 0.00 | 89 | 1024.4 |
| 20260905223301 | 56 | 217 | 0.0 | 1.7 | 0.00 | 0.13 | 0.00 | 89 | 1024.4 |
| 20260905223202 | 56 | 217 | 0.0 | 1.7 | 0.00 | 0.13 | 0.00 | 89 | 1024.4 |
| 20260905223101 | 56 | 241 | 0.0 | 0.9 | 0.00 | 0.13 | 0.00 | 89 | 1024.4 |
| 20260905223001 | 56 | 241 | 0.0 | 0.9 | 0.00 | 0.13 | 0.00 | 89 | 1024.4 |
| 20260905222905 | 56 | 241 | 0.0 | 0.9 | 0.00 | 0.13 | 0.00 | 89 | 1024.4 |
| 20260905222800 | 56 | 241 | 0.0 | 0.9 | 0.00 | 0.13 | 0.00 | 88 | 1024.4 |
| 20260905222701 | 56 | 241 | 0.0 | 0.9 | 0.00 | 0.13 | 0.00 | 88 | 1024.4 |
| 20260905222602 | 56 | 249 | 0.0 | 0.9 | 0.00 | 0.13 | 0.00 | 88 | 1024.4 |
| 20260905222501 | 57 | 257 | 0.0 | 0.9 | 0.00 | 0.13 | 0.00 | 88 | 1024.4 |
| 20260905222403 | 57 | 257 | 0.0 | 0.9 | 0.00 | 0.13 | 0.00 | 88 | 1024.4 |
| 20260905222301 | 57 | 257 | 0.0 | 0.9 | 0.00 | 0.13 | 0.00 | 88 | 1024.3 |
| 20260905222201 | 57 | 257 | 0.0 | 0.9 | 0.00 | 0.13 | 0.00 | 88 | 1024.4 |
| 20260905222101 | 57 | 257 | 0.0 | 0.9 | 0.00 | 0.13 | 0.00 | 89 | 1024.3 |
| 20260905222001 | 57 | 257 | 0.0 | 0.9 | 0.00 | 0.13 | 0.00 | 89 | 1024.3 |
| 20260905221901 | 57 | 257 | 0.0 | 0.9 | 0.00 | 0.13 | 0.00 | 89 | 1024.3 |
| 20260905221801 | 57 | 257 | 0.0 | 0.9 | 0.00 | 0.13 | 0.00 | 89 | 1024.3 |
| 20260905221701 | 57 | 257 | 0.0 | 0.9 | 0.00 | 0.13 | 0.00 | 89 | 1024.3 |
| 20260905221601 | 57 | 257 | 0.0 | 0.9 | 0.00 | 0.13 | 0.00 | 89 | 1024.3 |
| 20260905221501 | 57 | 259 | 0.0 | 0.9 | 0.00 | 0.13 | 0.00 | 88 | 1024.3 |
| 20260905221400 | 57 | 259 | 0.0 | 1.7 | 0.00 | 0.13 | 0.00 | 88 | 1024.3 |
| 20260905221301 | 57 | 261 | 0.0 | 1.7 | 0.00 | 0.13 | 0.00 | 88 | 1024.3 |
| 20260905221200 | 57 | 261 | 0.0 | 1.7 | 0.00 | 0.13 | 0.00 | 88 | 1024.3 |
| 20260905221100 | 57 | 261 | 0.0 | 1.7 | 0.00 | 0.13 | 0.00 | 88 | 1024.3 |
| 20260905221001 | 57 | 261 | 0.0 | 1.7 | 0.00 | 0.13 | 0.00 | 88 | 1024.3 |
| 20260905220901 | 57 | 261 | 0.0 | 1.7 | 0.00 | 0.13 | 0.00 | 88 | 1024.3 |
| 20260905220800 | 57 | 261 | 0.0 | 1.7 | 0.00 | 0.13 | 0.00 | 88 | 1024.3 |
| 20260905220701 | 57 | 261 | 0.0 | 1.7 | 0.00 | 0.13 | 0.00 | 88 | 1024.3 |
| 20260905220651 | 58 | 261 | 0.0 | 0.0 | 0.00 | 0.13 | 0.00 | 87 | 1024.3 |
| 20260905220647 | 57 | 261 | 0.0 | 1.7 | 0.00 | 0.13 | 0.00 | 88 | 1024.3 |
| 20260905220642 | 57 | 261 | 0.0 | 1.7 | 0.00 | 0.13 | 0.00 | 88 | 1024.3 |
| 20260905220425 | 57 | 261 | 0.0 | 1.7 | 0.00 | 0.13 | 0.00 | 88 | 1024.3 |
| 20260905220417 | 58 | 261 | 0.0 | 0.0 | 0.00 | 0.13 | 0.00 | 88 | 1024.3 |
| 20260905220413 | 58 | 261 | 0.0 | 0.0 | 0.00 | 0.13 | 0.00 | 87 | 1024.3 |
| 20260905220001 | 58 | 261 | 0.0 | 0.0 | 0.00 | 0.13 | 0.00 | 88 | 1024.3 |
| 20260905215901 | 58 | 261 | 0.0 | 0.0 | 0.00 | 0.13 | 0.13 | 88 | 1024.2 |
| 20260905215801 | 58 | 261 | 0.0 | 0.0 | 0.00 | 0.13 | 0.13 | 88 | 1024.3 |
| 20260905215701 | 58 | 261 | 0.0 | 0.0 | 0.00 | 0.13 | 0.13 | 88 | 1024.2 |
| 20260905215601 | 58 | 261 | 0.0 | 0.0 | 0.00 | 0.13 | 0.13 | 88 | 1024.3 |
| 20260905215501 | 58 | 261 | 0.0 | 0.0 | 0.00 | 0.13 | 0.13 | 88 | 1024.2 |
| 20260905215401 | 58 | 261 | 0.0 | 0.0 | 0.00 | 0.13 | 0.13 | 88 | 1024.2 |
| 20260905215305 | 58 | 261 | 0.0 | 0.0 | 0.00 | 0.13 | 0.13 | 88 | 1024.2 |
| 20260905215202 | 58 | 261 | 0.0 | 0.9 | 0.00 | 0.13 | 0.13 | 87 | 1024.3 |
| 20260905215101 | 58 | 261 | 0.0 | 0.9 | 0.00 | 0.13 | 0.13 | 87 | 1024.2 |
| 20260905215000 | 58 | 262 | 0.0 | 0.9 | 0.00 | 0.13 | 0.13 | 87 | 1024.2 |
| 20260905214901 | 58 | 262 | 0.0 | 0.9 | 0.00 | 0.13 | 0.13 | 87 | 1024.2 |
| 20260905214801 | 58 | 262 | 0.0 | 0.9 | 0.00 | 0.13 | 0.13 | 87 | 1024.2 |
| 20260905214701 | 58 | 262 | 0.0 | 0.9 | 0.00 | 0.13 | 0.13 | 87 | 1024.2 |
| 20260905214601 | 58 | 262 | 0.0 | 0.9 | 0.00 | 0.13 | 0.13 | 87 | 1024.2 |
| 20260905214501 | 58 | 262 | 0.0 | 0.9 | 0.00 | 0.13 | 0.13 | 87 | 1024.2 |
| 20260905214401 | 58 | 261 | 0.0 | 0.9 | 0.00 | 0.13 | 0.13 | 86 | 1024.2 |
| 20260905214301 | 58 | 261 | 0.0 | 0.9 | 0.00 | 0.13 | 0.13 | 86 | 1024.2 |
| 20260905214201 | 58 | 261 | 0.0 | 0.9 | 0.00 | 0.13 | 0.13 | 86 | 1024.2 |
| 20260905214100 | 58 | 261 | 0.0 | 0.9 | 0.00 | 0.13 | 0.13 | 86 | 1024.2 |
| 20260905214000 | 58 | 261 | 0.0 | 0.9 | 0.00 | 0.13 | 0.13 | 86 | 1024.2 |
| 20260905213900 | 58 | 261 | 0.0 | 1.7 | 0.00 | 0.13 | 0.13 | 86 | 1024.2 |
| 20260905213800 | 59 | 261 | 0.0 | 1.7 | 0.00 | 0.13 | 0.13 | 86 | 1024.2 |
| 20260905213700 | 59 | 261 | 0.0 | 1.7 | 0.00 | 0.13 | 0.13 | 86 | 1024.2 |
| 20260905213601 | 59 | 261 | 0.9 | 1.7 | 0.00 | 0.13 | 0.13 | 86 | 1024.2 |
| 20260905213501 | 59 | 261 | 0.9 | 1.7 | 0.00 | 0.13 | 0.13 | 86 | 1024.1 |
| 20260905213402 | 59 | 261 | 0.9 | 1.7 | 0.00 | 0.13 | 0.13 | 86 | 1024.2 |
| 20260905213302 | 59 | 261 | 0.9 | 1.7 | 0.00 | 0.13 | 0.13 | 86 | 1024.1 |
| 20260905213201 | 59 | 262 | 0.9 | 1.7 | 0.00 | 0.13 | 0.13 | 86 | 1024.1 |
| 20260905213101 | 59 | 261 | 0.9 | 1.7 | 0.00 | 0.13 | 0.13 | 86 | 1024.1 |
| 20260905213001 | 59 | 261 | 0.9 | 1.7 | 0.00 | 0.13 | 0.13 | 86 | 1024.1 |
| 20260905212901 | 59 | 261 | 0.9 | 1.7 | 0.00 | 0.13 | 0.13 | 86 | 1024.1 |
| 20260905212802 | 59 | 261 | 0.9 | 1.7 | 0.00 | 0.13 | 0.13 | 87 | 1024.1 |
| 20260905212701 | 59 | 261 | 0.9 | 1.7 | 0.00 | 0.13 | 0.13 | 87 | 1024.1 |
| 20260905212601 | 59 | 261 | 0.9 | 1.7 | 0.00 | 0.13 | 0.13 | 87 | 1024.1 |
| 20260905212501 | 59 | 261 | 0.0 | 1.7 | 0.00 | 0.13 | 0.13 | 87 | 1024.1 |
| 20260905212401 | 59 | 261 | 0.0 | 1.7 | 0.00 | 0.13 | 0.13 | 87 | 1024.1 |
| 20260905212301 | 59 | 261 | 0.0 | 1.7 | 0.00 | 0.13 | 0.13 | 87 | 1024.0 |
| 20260905212200 | 60 | 261 | 0.0 | 1.7 | 0.00 | 0.13 | 0.13 | 87 | 1024.0 |
| 20260905212100 | 60 | 262 | 0.0 | 1.7 | 0.00 | 0.13 | 0.13 | 87 | 1024.0 |
| 20260905212001 | 60 | 262 | 0.0 | 1.7 | 0.00 | 0.13 | 0.13 | 87 | 1024.0 |
| 20260905211901 | 60 | 262 | 0.0 | 0.0 | 0.00 | 0.13 | 0.13 | 87 | 1024.0 |
| 20260905211800 | 60 | 262 | 0.0 | 0.0 | 0.00 | 0.13 | 0.13 | 87 | 1024.0 |
| 20260905211700 | 60 | 262 | 0.0 | 0.0 | 0.00 | 0.13 | 0.13 | 87 | 1024.0 |
| 20260905211600 | 60 | 262 | 0.0 | 0.0 | 0.00 | 0.13 | 0.13 | 87 | 1024.0 |
| 20260905211501 | 60 | 262 | 0.0 | 0.0 | 0.00 | 0.13 | 0.13 | 87 | 1024.0 |
| 20260905211401 | 60 | 262 | 0.0 | 0.0 | 0.00 | 0.13 | 0.13 | 87 | 1024.0 |
| 20260905211300 | 60 | 262 | 0.0 | 0.0 | 0.00 | 0.13 | 0.13 | 87 | 1024.0 |
| 20260905211201 | 60 | 262 | 0.0 | 0.0 | 0.00 | 0.13 | 0.13 | 87 | 1024.0 |
| 20260905211101 | 60 | 262 | 0.0 | 0.9 | 0.00 | 0.13 | 0.13 | 87 | 1024.0 |
| 20260905211001 | 60 | 262 | 0.0 | 0.9 | 0.00 | 0.13 | 0.13 | 87 | 1024.1 |
| 20260905210901 | 60 | 262 | 0.0 | 1.7 | 0.00 | 0.13 | 0.13 | 87 | 1024.0 |
| 20260905210801 | 60 | 262 | 0.0 | 1.7 | 0.00 | 0.13 | 0.13 | 87 | 1024.0 |
| 20260905210701 | 60 | 262 | 0.0 | 1.7 | 0.00 | 0.13 | 0.13 | 87 | 1024.0 |
| 20260905210601 | 60 | 262 | 0.0 | 1.7 | 0.00 | 0.13 | 0.13 | 87 | 1024.0 |
| 20260905210500 | 60 | 262 | 0.0 | 1.7 | 0.00 | 0.13 | 0.13 | 87 | 1024.0 |
| 20260905210401 | 60 | 262 | 0.0 | 1.7 | 0.00 | 0.13 | 0.13 | 87 | 1024.0 |
| 20260905210302 | 60 | 262 | 0.0 | 1.7 | 0.00 | 0.13 | 0.13 | 87 | 1024.0 |
| 20260905210201 | 60 | 262 | 0.0 | 1.7 | 0.00 | 0.13 | 0.13 | 87 | 1024.0 |
| 20260905210001 | 60 | 262 | 0.0 | 1.7 | 0.00 | 0.13 | 0.13 | 87 | 1024.0 |
| 20260905205901 | 60 | 262 | 0.9 | 1.7 | 0.00 | 0.13 | 0.13 | 87 | 1024.0 |
| 20260905205801 | 60 | 262 | 0.9 | 1.7 | 0.00 | 0.13 | 0.13 | 87 | 1023.9 |
| 20260905205701 | 60 | 262 | 0.9 | 1.7 | 0.00 | 0.13 | 0.13 | 87 | 1023.9 |
| 20260905205601 | 60 | 262 | 0.9 | 1.7 | 0.00 | 0.13 | 0.13 | 87 | 1023.9 |
| 20260905205501 | 60 | 262 | 0.9 | 1.7 | 0.00 | 0.13 | 0.13 | 87 | 1023.8 |
| 20260905205401 | 60 | 262 | 0.9 | 1.7 | 0.00 | 0.13 | 0.13 | 87 | 1023.9 |
| 20260905205301 | 60 | 262 | 0.9 | 1.7 | 0.00 | 0.13 | 0.13 | 87 | 1023.8 |
| 20260905205201 | 60 | 262 | 0.9 | 2.6 | 0.00 | 0.13 | 0.13 | 87 | 1023.8 |
| 20260905205101 | 60 | 262 | 0.9 | 3.5 | 0.00 | 0.13 | 0.13 | 87 | 1023.8 |
| 20260905205001 | 60 | 262 | 0.9 | 3.5 | 0.00 | 0.13 | 0.13 | 87 | 1023.8 |
| 20260905204924 | 60 | 262 | 0.9 | 3.5 | 0.00 | 0.13 | 0.13 | 87 | 1023.8 |
| 20260905204915 | 60 | 262 | 0.9 | 3.5 | 0.00 | 0.13 | 0.13 | 87 | 1023.9 |
| 20260905204911 | 60 | 262 | 0.9 | 3.5 | 0.00 | 0.13 | 0.13 | 87 | 1023.8 |
| 20260905204601 | 60 | 262 | 0.9 | 3.5 | 0.00 | 0.13 | 0.13 | 87 | 1023.9 |
| 20260905204501 | 60 | 262 | 0.9 | 3.5 | 0.00 | 0.13 | 0.13 | 87 | 1023.9 |
| 20260905204424 | 60 | 262 | 0.9 | 3.5 | 0.00 | 0.13 | 0.13 | 87 | 1023.9 |
| 20260905204417 | 60 | 262 | 0.9 | 3.5 | 0.00 | 0.13 | 0.13 | 87 | 1023.9 |
| 20260905204412 | 60 | 261 | 0.0 | 3.5 | 0.00 | 0.13 | 0.13 | 87 | 1023.9 |
| 20260905204101 | 60 | 281 | 0.0 | 1.7 | 0.00 | 0.13 | 0.13 | 86 | 1023.9 |
| 20260905204000 | 60 | 282 | 0.9 | 1.7 | 0.00 | 0.13 | 0.13 | 86 | 1024.0 |
| 20260905203901 | 60 | 282 | 0.0 | 1.7 | 0.00 | 0.13 | 0.13 | 86 | 1024.0 |
| 20260905203800 | 60 | 282 | 0.0 | 1.7 | 0.00 | 0.13 | 0.13 | 86 | 1024.0 |
| 20260905203704 | 61 | 282 | 0.0 | 1.7 | 0.00 | 0.13 | 0.13 | 86 | 1024.0 |
| 20260905203659 | 61 | 282 | 0.0 | 1.7 | 0.00 | 0.13 | 0.13 | 86 | 1024.0 |
| 20260905203557 | 61 | 282 | 0.0 | 1.7 | 0.00 | 0.13 | 0.13 | 86 | 1024.0 |
| 20260905203455 | 61 | 282 | 0.0 | 1.7 | 0.00 | 0.13 | 0.13 | 85 | 1024.0 |
| 20260905203355 | 61 | 282 | 0.0 | 1.7 | 0.00 | 0.13 | 0.13 | 85 | 1024.0 |
| 20260905203253 | 61 | 282 | 0.0 | 1.7 | 0.00 | 0.13 | 0.13 | 85 | 1024.0 |
| 20260905203201 | 61 | 282 | 0.0 | 1.7 | 0.00 | 0.13 | 0.13 | 86 | 1024.0 |
| 20260905203153 | 61 | 282 | 0.0 | 1.7 | 0.00 | 0.13 | 0.13 | 86 | 1024.0 |
| 20260905203051 | 61 | 282 | 0.0 | 1.7 | 0.00 | 0.13 | 0.13 | 86 | 1024.0 |
| 20260905202949 | 61 | 282 | 0.0 | 1.7 | 0.00 | 0.13 | 0.13 | 85 | 1023.9 |
| 20260905202850 | 61 | 281 | 0.9 | 1.7 | 0.00 | 0.13 | 0.13 | 85 | 1023.9 |
| 20260905202749 | 61 | 281 | 0.9 | 1.7 | 0.00 | 0.13 | 0.13 | 86 | 1023.9 |
| 20260905202701 | 61 | 281 | 0.9 | 1.7 | 0.00 | 0.13 | 0.13 | 86 | 1023.9 |
| 20260905202650 | 61 | 281 | 0.9 | 1.7 | 0.00 | 0.13 | 0.13 | 86 | 1023.9 |
| 20260905202549 | 61 | 281 | 0.9 | 1.7 | 0.00 | 0.13 | 0.13 | 85 | 1023.9 |
| 20260905202447 | 61 | 281 | 0.9 | 1.7 | 0.00 | 0.13 | 0.13 | 86 | 1023.9 |
| 20260905202345 | 61 | 281 | 0.9 | 1.7 | 0.00 | 0.13 | 0.13 | 85 | 1023.9 |
| 20260905202244 | 61 | 282 | 0.0 | 1.7 | 0.00 | 0.13 | 0.13 | 85 | 1023.9 |
| 20260905202201 | 61 | 282 | 0.0 | 1.7 | 0.00 | 0.13 | 0.13 | 85 | 1023.9 |
| 20260905202143 | 61 | 282 | 0.0 | 1.7 | 0.00 | 0.13 | 0.13 | 85 | 1023.9 |
| 20260905202043 | 61 | 282 | 0.0 | 1.7 | 0.00 | 0.13 | 0.13 | 85 | 1023.8 |
| 20260905201941 | 61 | 282 | 0.0 | 1.7 | 0.00 | 0.13 | 0.13 | 85 | 1023.8 |
| 20260905201841 | 61 | 282 | 0.0 | 1.7 | 0.00 | 0.13 | 0.13 | 84 | 1023.8 |
| 20260905201739 | 61 | 282 | 0.0 | 0.0 | 0.00 | 0.13 | 0.13 | 84 | 1023.8 |
| 20260905201700 | 61 | 282 | 0.0 | 0.0 | 0.00 | 0.13 | 0.13 | 84 | 1023.8 |
| 20260905201639 | 61 | 282 | 0.0 | 0.0 | 0.00 | 0.13 | 0.13 | 84 | 1023.8 |
| 20260905201539 | 61 | 282 | 0.0 | 0.0 | 0.00 | 0.13 | 0.13 | 84 | 1023.8 |
| 20260905201439 | 61 | 282 | 0.0 | 0.0 | 0.00 | 0.13 | 0.13 | 84 | 1023.8 |
| 20260905201339 | 61 | 282 | 0.0 | 0.0 | 0.00 | 0.13 | 0.13 | 84 | 1023.8 |
| 20260905201237 | 61 | 282 | 0.0 | 0.0 | 0.00 | 0.13 | 0.13 | 84 | 1023.8 |
| 20260905201201 | 61 | 282 | 0.0 | 0.0 | 0.00 | 0.13 | 0.13 | 84 | 1023.9 |
| 20260905201138 | 61 | 282 | 0.0 | 0.0 | 0.00 | 0.13 | 0.13 | 84 | 1023.9 |
| 20260905201035 | 61 | 282 | 0.0 | 0.0 | 0.00 | 0.13 | 0.13 | 84 | 1023.9 |
| 20260905200933 | 62 | 282 | 0.0 | 0.0 | 0.00 | 0.13 | 0.13 | 84 | 1023.9 |
| 20260905200929 | 62 | 282 | 0.0 | 0.0 | 0.00 | 0.13 | 0.13 | 83 | 1023.8 |
| 20260905200919 | 62 | 282 | 0.0 | 0.0 | 0.00 | 0.13 | 0.13 | 84 | 1023.8 |
| 20260905200911 | 62 | 282 | 0.0 | 0.0 | 0.00 | 0.13 | 0.13 | 83 | 1023.9 |
| 20260905200630 | 62 | 282 | 0.0 | 0.0 | 0.00 | 0.13 | 0.13 | 83 | 1023.8 |
| 20260905200529 | 62 | 282 | 0.0 | 0.0 | 0.00 | 0.13 | 0.13 | 83 | 1023.8 |
| 20260905200429 | 62 | 282 | 0.0 | 0.0 | 0.00 | 0.13 | 0.13 | 83 | 1023.8 |
| 20260905200329 | 62 | 282 | 0.0 | 0.0 | 0.00 | 0.13 | 0.13 | 83 | 1023.8 |
| 20260905200201 | 62 | 282 | 0.0 | 0.0 | 0.00 | 0.13 | 0.13 | 83 | 1023.8 |
| 20260905200129 | 62 | 282 | 0.0 | 0.0 | 0.00 | 0.13 | 0.13 | 83 | 1023.8 |
| 20260905200029 | 62 | 282 | 0.0 | 0.0 | 0.00 | 0.13 | 0.13 | 83 | 1023.8 |
| 20260905195929 | 62 | 282 | 0.0 | 0.9 | 0.00 | 0.13 | 0.13 | 83 | 1023.7 |
| 20260905195829 | 62 | 282 | 0.0 | 0.9 | 0.00 | 0.13 | 0.13 | 83 | 1023.7 |
| 20260905195729 | 62 | 282 | 0.0 | 1.7 | 0.00 | 0.13 | 0.13 | 83 | 1023.8 |
| 20260905195701 | 62 | 282 | 0.0 | 1.7 | 0.00 | 0.13 | 0.13 | 83 | 1023.7 |
| 20260905195629 | 62 | 282 | 0.0 | 1.7 | 0.00 | 0.13 | 0.13 | 83 | 1023.7 |
| 20260905195530 | 62 | 282 | 0.0 | 1.7 | 0.00 | 0.13 | 0.13 | 83 | 1023.7 |
| 20260905195429 | 62 | 282 | 0.0 | 1.7 | 0.00 | 0.13 | 0.13 | 83 | 1023.7 |
| 20260905195329 | 62 | 282 | 0.9 | 1.7 | 0.00 | 0.13 | 0.13 | 83 | 1023.6 |
| 20260905195201 | 62 | 282 | 0.9 | 1.7 | 0.00 | 0.13 | 0.13 | 83 | 1023.7 |
| 20260905195129 | 62 | 282 | 0.9 | 1.7 | 0.00 | 0.13 | 0.13 | 83 | 1023.7 |
| 20260905195029 | 62 | 282 | 0.9 | 1.7 | 0.00 | 0.13 | 0.13 | 83 | 1023.7 |
| 20260905194928 | 62 | 282 | 0.9 | 1.7 | 0.00 | 0.13 | 0.13 | 83 | 1023.8 |
| 20260905194828 | 62 | 282 | 0.9 | 1.7 | 0.00 | 0.13 | 0.13 | 83 | 1023.7 |
| 20260905194728 | 62 | 282 | 0.9 | 2.6 | 0.00 | 0.13 | 0.13 | 83 | 1023.7 |
| 20260905194701 | 62 | 282 | 0.9 | 2.6 | 0.00 | 0.13 | 0.13 | 82 | 1023.6 |
| 20260905194629 | 62 | 282 | 0.9 | 2.6 | 0.00 | 0.13 | 0.13 | 82 | 1023.6 |
| 20260905194529 | 62 | 282 | 0.9 | 2.6 | 0.00 | 0.13 | 0.13 | 82 | 1023.6 |
| 20260905194429 | 62 | 282 | 0.9 | 2.6 | 0.00 | 0.13 | 0.13 | 82 | 1023.6 |
| 20260905194329 | 62 | 282 | 0.9 | 2.6 | 0.00 | 0.13 | 0.13 | 82 | 1023.6 |
| 20260905194228 | 62 | 282 | 1.7 | 2.6 | 0.00 | 0.13 | 0.13 | 82 | 1023.6 |
| 20260905194201 | 63 | 282 | 1.7 | 2.6 | 0.00 | 0.13 | 0.13 | 82 | 1023.6 |
| 20260905194125 | 62 | 282 | 1.7 | 2.6 | 0.00 | 0.13 | 0.13 | 82 | 1023.6 |
| 20260905194023 | 63 | 282 | 1.7 | 2.6 | 0.00 | 0.13 | 0.13 | 82 | 1023.6 |
| 20260905193923 | 63 | 282 | 1.7 | 2.6 | 0.00 | 0.13 | 0.13 | 82 | 1023.6 |
| 20260905193822 | 63 | 282 | 1.7 | 2.6 | 0.00 | 0.13 | 0.13 | 82 | 1023.6 |
| 20260905193723 | 63 | 281 | 1.7 | 2.6 | 0.00 | 0.13 | 0.13 | 82 | 1023.6 |
| 20260905193700 | 63 | 308 | 1.7 | 2.6 | 0.00 | 0.13 | 0.13 | 82 | 1023.6 |
| 20260905193619 | 63 | 308 | 1.7 | 2.6 | 0.00 | 0.13 | 0.13 | 82 | 1023.6 |
| 20260905193517 | 63 | 308 | 1.7 | 2.6 | 0.00 | 0.13 | 0.13 | 82 | 1023.6 |
| 20260905193417 | 63 | 308 | 1.7 | 2.6 | 0.00 | 0.13 | 0.13 | 82 | 1023.6 |
| 20260905193317 | 63 | 308 | 1.7 | 2.6 | 0.00 | 0.13 | 0.13 | 82 | 1023.6 |
| 20260905193201 | 63 | 308 | 1.7 | 2.6 | 0.00 | 0.13 | 0.13 | 82 | 1023.6 |
| 20260905193113 | 63 | 308 | 1.7 | 2.6 | 0.00 | 0.13 | 0.13 | 82 | 1023.6 |
| 20260905193013 | 63 | 308 | 1.7 | 3.5 | 0.00 | 0.13 | 0.13 | 82 | 1023.6 |
| 20260905192913 | 63 | 308 | 1.7 | 3.5 | 0.00 | 0.13 | 0.13 | 82 | 1023.6 |
| 20260905192813 | 63 | 308 | 1.7 | 3.5 | 0.00 | 0.13 | 0.13 | 82 | 1023.6 |
| 20260905192701 | 63 | 309 | 1.7 | 3.5 | 0.00 | 0.13 | 0.13 | 82 | 1023.6 |
| 20260905192611 | 63 | 309 | 1.7 | 3.5 | 0.00 | 0.13 | 0.13 | 82 | 1023.5 |
| 20260905192509 | 63 | 309 | 1.7 | 3.5 | 0.00 | 0.13 | 0.13 | 82 | 1023.5 |
| 20260905192409 | 63 | 309 | 1.7 | 3.5 | 0.00 | 0.13 | 0.13 | 82 | 1023.5 |
| 20260905192309 | 63 | 309 | 1.7 | 3.5 | 0.00 | 0.13 | 0.13 | 82 | 1023.5 |
| 20260905192201 | 63 | 309 | 1.7 | 4.3 | 0.00 | 0.13 | 0.13 | 82 | 1023.5 |
| 20260905192109 | 63 | 309 | 1.7 | 4.3 | 0.00 | 0.13 | 0.13 | 82 | 1023.5 |
| 20260905192007 | 63 | 304 | 1.7 | 4.3 | 0.00 | 0.13 | 0.13 | 82 | 1023.5 |
| 20260905191907 | 63 | 304 | 1.7 | 4.3 | 0.00 | 0.13 | 0.13 | 82 | 1023.5 |
| 20260905191806 | 63 | 304 | 1.7 | 4.3 | 0.00 | 0.13 | 0.13 | 82 | 1023.5 |
| 20260905191701 | 63 | 319 | 1.7 | 4.3 | 0.00 | 0.13 | 0.13 | 82 | 1023.5 |
| 20260905191607 | 63 | 318 | 0.9 | 4.3 | 0.00 | 0.13 | 0.13 | 82 | 1023.4 |
| 20260905191505 | 63 | 322 | 0.9 | 4.3 | 0.00 | 0.13 | 0.13 | 82 | 1023.4 |
| 20260905191405 | 63 | 302 | 0.9 | 4.3 | 0.00 | 0.13 | 0.13 | 81 | 1023.4 |
| 20260905191305 | 63 | 301 | 0.9 | 4.3 | 0.00 | 0.13 | 0.13 | 81 | 1023.4 |
| 20260905191201 | 63 | 312 | 0.9 | 2.6 | 0.00 | 0.13 | 0.13 | 81 | 1023.4 |
| 20260905191108 | 63 | 312 | 0.9 | 2.6 | 0.00 | 0.13 | 0.13 | 81 | 1023.4 |
| 20260905191003 | 63 | 346 | 0.9 | 2.6 | 0.00 | 0.13 | 0.13 | 81 | 1023.4 |
| 20260905190903 | 63 | 355 | 0.9 | 2.6 | 0.00 | 0.13 | 0.13 | 81 | 1023.2 |
| 20260905190803 | 63 | 355 | 0.9 | 2.6 | 0.00 | 0.13 | 0.13 | 81 | 1023.2 |
| 20260905190701 | 63 | 355 | 0.9 | 2.6 | 0.00 | 0.13 | 0.13 | 81 | 1023.2 |
| 20260905190656 | 63 | 355 | 1.7 | 2.6 | 0.00 | 0.13 | 0.13 | 80 | 1023.2 |
| 20260905190645 | 63 | 355 | 0.9 | 2.6 | 0.00 | 0.13 | 0.13 | 81 | 1023.2 |
| 20260905190641 | 63 | 355 | 0.9 | 2.6 | 0.00 | 0.13 | 0.13 | 81 | 1023.2 |
| 20260905190426 | 63 | 355 | 0.9 | 2.6 | 0.00 | 0.13 | 0.13 | 80 | 1023.2 |
| 20260905190422 | 63 | 355 | 0.9 | 2.6 | 0.00 | 0.13 | 0.13 | 80 | 1023.2 |
| 20260905190414 | 63 | 355 | 1.7 | 2.6 | 0.00 | 0.13 | 0.13 | 80 | 1023.2 |